[[{"header":{"parameterUnit":"m.s-1","parameterCategory":1,"la1":31.0,"la2":29.5877,"lo1":-88.7671,"lo2":-86.6584,"dy":0.0162,"dx":0.0185,"nx":115,"ny":88,"refTime":"2024-04-02T18:00:00:Z","depth":0,"parameterNumber":2,"parameterNumberName":"U-component_of_WINDS"},"data":[0.0,0.0,0.0,0.0,0.0,0.0,0.0,0.0,0.0,0.0,0.0,0.0,0.0,0.0,0.0,0.0,0.0,0.0,0.0,0.0,0.0,0.0,0.0,0.0,0.0,0.0,0.0,0.0,0.0,0.0,0.0,0.0,0.0,0.0,0.0,0.0,0.0,0.0,0.0,0.0,0.0,0.0,0.0,0.0,0.0,0.0,0.0,0.0,0.0,0.0,0.0,0.0,0.0,0.0,0.0,0.0,0.0,0.0,0.0,0.0,0.0,0.0,0.0,0.0,0.0,0.0,0.0,0.0,0.0,0.0,0.0,0.0,0.0,0.0,0.0,0.0,0.0,0.0,0.0,0.0,0.0,0.0,0.0,0.0,0.0,0.0,0.0,0.0,0.0,0.0,0.0,0.0,0.0,0.0,0.0,0.0,0.0,0.0,0.0,0.0,0.0,0.0,0.0,0.0,0.0,0.0,0.0,0.0,0.0,0.0,0.0,0.0,0.0,0.0,0.0,0.0,0.0,0.0,0.0,0.0,0.0,0.0,0.0,0.0,0.0,0.0,0.0,0.0,0.0,0.0,0.0,0.0,0.0,0.0,0.0,0.0,0.0,0.0,0.0,0.0,0.0,0.0,0.0,0.0,0.0,0.0,0.0,0.0,0.0,0.0,0.0,0.0,0.0,0.0,0.0,0.0,0.0,0.0,0.0,0.0,0.0,0.0,0.0,0.0,0.0,0.0,0.0,0.0,0.0,0.0,0.0,0.0,0.0,0.0,0.0,0.0,0.0,0.0,0.0,0.0,0.0,0.0,0.0,0.0,0.0,0.0,0.0,0.0,0.0,0.0,0.0,0.0,0.0,0.0,0.0,0.0,0.0,0.0,0.0,0.0,0.0,0.0,0.0,0.0,0.0,0.0,0.0,0.0,0.0,0.0,0.0,0.0,0.0,0.0,0.0,0.0,0.0,0.0,0.0,0.0,0.0,0.0,0.0,0.0,0.0,0.0,0.0,0.0,0.0,0.0,0.0,0.0,0.0,0.0,0.0,0.0,0.0,0.0,0.0,0.0,0.0,0.0,0.0,0.0,0.0,0.0,0.0,0.0,0.0,0.0,0.0,0.0,0.0,0.0,0.0,0.0,0.0,0.0,0.0,0.0,0.0,0.0,0.0,0.0,0.0,0.0,0.0,0.0,0.0,0.0,0.0,0.0,0.0,0.0,0.0,0.0,0.0,0.0,0.0,0.0,0.0,0.0,0.0,0.0,0.0,0.0,0.0,0.0,0.0,0.0,0.0,0.0,0.0,0.0,0.0,0.0,0.0,0.0,0.0,0.0,0.0,0.0,0.0,0.0,0.0,0.0,0.0,0.0,0.0,0.0,0.0,0.0,0.0,0.0,0.0,0.0,0.0,0.0,0.0,0.0,0.0,0.0,0.0,0.0,0.0,0.0,0.0,0.0,0.0,0.0,0.0,0.0,0.0,0.0,0.0,0.0,0.0,0.0,0.0,0.0,0.0,0.0,0.0,0.0,0.0,0.0,0.0,0.0,0.0,0.0,0.0,0.0,0.0,0.0,0.0,0.0,0.0,0.0,0.0,0.0,0.0,0.0,0.0,0.0,0.0,0.0,0.0,0.0,0.0,0.0,0.0,0.0,0.0,0.0,0.0,0.0,0.0,0.0,0.0,0.0,0.0,0.0,0.0,0.0,0.0,0.0,0.0,0.0,0.0,0.0,0.0,0.0,0.0,0.0,0.0,0.0,0.0,0.0,0.0,0.0,0.0,0.0,0.0,0.0,0.0,0.0,0.0,0.0,0.0,0.0,0.0,0.0,0.0,0.0,0.0,0.0,0.0,0.0,0.0,0.0,0.0,0.0,0.0,0.0,0.0,0.0,0.0,0.0,0.0,0.0,0.0,0.0,0.0,0.0,0.0,0.0,0.0,0.0,0.0,0.0,0.0,0.0,0.0,0.0,0.0,0.0,0.0,0.0,0.0,0.0,0.0,0.0,0.0,0.0,0.0,0.0,0.0,0.0,0.0,0.0,0.0,0.0,0.0,0.0,0.0,0.0,0.0,0.0,0.0,0.0,0.0,0.0,0.0,0.0,0.0,0.0,0.0,0.0,0.0,0.0,0.0,0.0,0.0,0.0,0.0,0.0,0.0,0.0,0.0,0.0,0.0,0.0,0.0,0.0,0.0,0.0,0.0,0.0,0.0,0.0,0.0,0.0,0.0,0.0,0.0,0.0,0.0,0.0,0.0,0.0,0.0,0.0,0.0,0.0,0.0,0.0,0.0,0.0,0.0,0.0,0.0,0.0,0.0,0.0,0.0,0.0,0.0,0.0,0.0,0.0,0.0,0.0,0.0,0.0,0.0,0.0,0.0,0.0,0.0,0.0,0.0,0.0,0.0,0.0,0.0,0.0,0.0,0.0,0.0,0.0,0.0,0.0,0.0,0.0,0.0,0.0,0.0,0.0,0.0,0.0,0.0,0.0,0.0,0.0,0.0,0.0,0.0,0.0,0.0,0.0,0.0,0.0,0.0,0.0,0.0,0.0,0.0,0.0,0.0,0.0,0.0,0.0,0.0,0.0,0.0,0.0,0.0,0.0,0.0,0.0,0.0,0.0,0.0,0.0,0.0,0.0,0.0,0.0,0.0,0.0,0.0,0.0,0.0,0.0,0.0,0.0,0.0,0.0,0.0,0.0,0.0,0.0,0.0,0.0,0.0,0.0,0.0,0.0,0.0,0.0,0.0,0.0,0.0,0.0,0.0,0.0,0.0,0.0,0.0,0.0,0.0,0.0,0.0,0.0,0.0,0.0,0.0,0.0,0.0,0.0,0.0,0.0,0.0,0.0,0.0,0.0,0.0,0.0,0.0,0.0,0.0,0.0,0.0,0.0,0.0,0.0,0.0,0.0,0.0,0.0,0.0,0.0,0.0,0.0,0.0,0.0,0.0,0.0,0.0,0.0,0.0,0.0,0.0,0.0,0.0,0.0,0.0,0.0,0.0,0.0,0.0,0.0,0.0,0.0,0.0,0.0,0.0,0.0,0.0,0.0,0.0,0.0,0.0,0.0,0.0,0.0,0.0,0.0,0.0,0.0,0.0,0.0,0.0,0.0,0.0,0.0,0.0,0.0,0.0,0.0,0.0,0.0,0.0,0.0,0.0,0.0,0.0,0.0,0.0,0.0,0.0,0.0,0.0,0.0,0.0,0.0,0.0,0.0,0.0,0.0,0.0,0.0,0.0,0.0,0.0,0.0,0.0,0.0,0.0,0.0,0.0,0.0,0.0,0.0,0.0,0.0,0.0,0.0,0.0,0.0,0.0,0.0,0.0,0.0,0.0,0.0,0.0,0.0,0.0,0.0,0.0,0.0,0.0,0.0,0.0,0.0,0.0,0.0,0.0,0.0,0.0,0.0,0.0,0.0,0.0,0.0,0.0,0.0,0.0,0.0,0.0,0.0,0.0,0.0,0.0,0.0,0.0,0.0,0.0,0.0,0.0,0.0,0.0,0.0,0.0,0.0,0.0,0.0,0.0,0.0,0.0,0.0,0.0,0.0,0.0,0.0,0.0,0.0,0.0,0.0,0.0,0.0,0.0,0.0,0.0,0.0,0.0,0.0,0.0,0.0,0.0,0.0,0.0,0.0,0.0,0.0,0.0,0.0,0.0,0.0,0.0,0.0,0.0,0.0,0.0,0.0,0.0,0.0,0.0,0.0,0.0,0.0,0.0,0.0,0.0,0.0,0.0,0.0,0.0,0.0,0.0,0.0,0.0,0.0,0.0,0.0,0.0,0.0,0.0,0.0,0.0,0.0,0.0,0.0,0.0,0.0,0.0,0.0,0.0,0.0,0.0,0.0,0.0,0.0,0.0,0.0,0.0,0.0,0.0,0.0,0.0,0.0,0.0,0.0,0.0,0.0,0.0,0.0,0.0,0.0,0.0,0.0,0.0,0.0,0.0,0.0,0.0,0.0,0.0,0.0,0.0,0.0,0.0,0.0,0.0,0.0,0.0,0.0,0.0,0.0,0.0,0.0,0.0,0.0,0.0,0.0,0.0,0.0,0.0,0.0,0.0,0.0,0.0,0.0,0.0,0.0,0.0,0.0,0.0,0.0,0.0,0.0,0.0,0.0,0.0,0.0,0.0,0.0,0.0,0.0,0.0,0.0,0.0,0.0,0.0,0.0,0.0,0.0,0.0,0.0,0.0,0.0,0.0,0.0,0.0,0.0,0.0,0.0,0.0,0.0,0.0,0.0,-4.8945,0.0,0.0,0.0,-5.3275,0.0,0.0,0.0,0.0,0.0,0.0,0.0,0.0,0.0,0.0,0.0,0.0,0.0,0.0,0.0,0.0,0.0,0.0,0.0,0.0,0.0,0.0,0.0,0.0,0.0,0.0,0.0,0.0,0.0,0.0,0.0,0.0,0.0,0.0,0.0,0.0,0.0,0.0,0.0,0.0,0.0,0.0,0.0,0.0,0.0,0.0,0.0,0.0,0.0,0.0,0.0,0.0,0.0,0.0,0.0,0.0,0.0,0.0,0.0,0.0,0.0,0.0,0.0,0.0,0.0,0.0,0.0,0.0,0.0,0.0,0.0,0.0,0.0,0.0,0.0,0.0,0.0,0.0,0.0,0.0,0.0,0.0,0.0,0.0,0.0,0.0,0.0,0.0,0.0,0.0,0.0,0.0,0.0,0.0,0.0,0.0,0.0,0.0,0.0,0.0,0.0,0.0,0.0,0.0,0.0,0.0,0.0,0.0,0.0,0.0,-5.071,-5.0624,-4.7729,-4.8647,-5.3933,0.0,0.0,0.0,0.0,0.0,0.0,0.0,0.0,0.0,0.0,0.0,0.0,0.0,0.0,0.0,0.0,0.0,0.0,0.0,0.0,0.0,0.0,0.0,0.0,0.0,0.0,0.0,0.0,0.0,0.0,0.0,0.0,0.0,0.0,0.0,0.0,0.0,0.0,0.0,0.0,0.0,0.0,0.0,0.0,0.0,0.0,0.0,0.0,0.0,0.0,0.0,0.0,0.0,0.0,0.0,0.0,0.0,0.0,0.0,0.0,0.0,0.0,0.0,0.0,0.0,0.0,0.0,0.0,0.0,0.0,0.0,0.0,0.0,0.0,0.0,0.0,0.0,0.0,0.0,0.0,0.0,0.0,0.0,0.0,0.0,0.0,0.0,0.0,0.0,0.0,0.0,0.0,0.0,0.0,0.0,0.0,0.0,0.0,0.0,0.0,0.0,0.0,0.0,0.0,0.0,0.0,0.0,0.0,0.0,0.0,0.0,0.0,-4.9042,-4.9764,-5.4351,0.0,0.0,0.0,0.0,0.0,0.0,0.0,0.0,0.0,0.0,0.0,0.0,0.0,0.0,0.0,0.0,0.0,0.0,0.0,0.0,0.0,0.0,0.0,0.0,0.0,0.0,0.0,0.0,0.0,0.0,0.0,0.0,0.0,0.0,0.0,0.0,0.0,0.0,0.0,0.0,0.0,0.0,0.0,0.0,0.0,0.0,0.0,0.0,0.0,0.0,0.0,0.0,0.0,0.0,0.0,0.0,0.0,0.0,0.0,0.0,0.0,0.0,0.0,0.0,0.0,0.0,0.0,0.0,0.0,0.0,0.0,0.0,0.0,0.0,0.0,0.0,0.0,0.0,0.0,0.0,0.0,0.0,0.0,0.0,0.0,0.0,0.0,0.0,0.0,0.0,0.0,0.0,0.0,0.0,0.0,0.0,0.0,0.0,0.0,0.0,0.0,0.0,0.0,0.0,0.0,0.0,0.0,0.0,0.0,0.0,-5.0767,-5.1038,-5.4197,0.0,-5.5957,0.0,0.0,0.0,0.0,0.0,0.0,0.0,0.0,0.0,0.0,0.0,0.0,0.0,0.0,0.0,0.0,0.0,0.0,0.0,0.0,0.0,0.0,0.0,0.0,0.0,0.0,0.0,0.0,0.0,0.0,0.0,0.0,0.0,0.0,0.0,0.0,0.0,0.0,0.0,0.0,0.0,0.0,0.0,0.0,0.0,0.0,0.0,0.0,0.0,0.0,0.0,0.0,0.0,0.0,0.0,0.0,0.0,0.0,0.0,0.0,0.0,0.0,0.0,0.0,0.0,0.0,0.0,0.0,0.0,0.0,0.0,0.0,0.0,0.0,0.0,0.0,0.0,0.0,0.0,0.0,0.0,0.0,0.0,0.0,0.0,0.0,0.0,0.0,0.0,0.0,0.0,0.0,0.0,0.0,0.0,0.0,0.0,0.0,0.0,0.0,0.0,0.0,0.0,0.0,0.0,0.0,0.0,0.0,0.0,0.0,-5.3649,-5.5684,-5.59,-5.5658,0.0,0.0,0.0,0.0,0.0,0.0,0.0,0.0,0.0,0.0,0.0,0.0,0.0,0.0,0.0,0.0,0.0,0.0,0.0,0.0,0.0,0.0,0.0,0.0,0.0,0.0,0.0,0.0,0.0,0.0,0.0,0.0,0.0,0.0,0.0,0.0,0.0,0.0,0.0,0.0,0.0,0.0,0.0,0.0,0.0,0.0,0.0,0.0,0.0,0.0,0.0,0.0,0.0,0.0,0.0,0.0,0.0,0.0,0.0,0.0,0.0,0.0,0.0,0.0,0.0,0.0,0.0,0.0,0.0,0.0,0.0,0.0,0.0,0.0,0.0,0.0,0.0,0.0,0.0,0.0,0.0,0.0,0.0,0.0,0.0,0.0,0.0,0.0,0.0,0.0,0.0,0.0,0.0,0.0,0.0,0.0,0.0,0.0,0.0,0.0,0.0,0.0,0.0,0.0,0.0,0.0,0.0,0.0,0.0,0.0,-5.0491,-5.5163,-5.7752,-5.5829,-5.4401,-5.3922,0.0,0.0,0.0,0.0,0.0,0.0,0.0,0.0,0.0,0.0,0.0,0.0,0.0,0.0,0.0,0.0,0.0,0.0,0.0,0.0,0.0,0.0,0.0,0.0,0.0,0.0,0.0,0.0,0.0,0.0,0.0,0.0,0.0,0.0,0.0,0.0,0.0,0.0,0.0,0.0,0.0,0.0,0.0,0.0,0.0,0.0,0.0,0.0,0.0,0.0,0.0,0.0,0.0,0.0,0.0,0.0,0.0,0.0,0.0,0.0,0.0,0.0,0.0,0.0,0.0,0.0,0.0,0.0,0.0,0.0,0.0,0.0,0.0,0.0,0.0,0.0,0.0,0.0,0.0,0.0,0.0,0.0,0.0,0.0,0.0,0.0,0.0,0.0,0.0,0.0,0.0,0.0,0.0,0.0,0.0,0.0,0.0,0.0,0.0,0.0,0.0,0.0,0.0,0.0,0.0,0.0,0.0,0.0,-4.329,-4.9694,-5.3885,-5.5338,-5.4012,-5.3264,0.0,0.0,0.0,0.0,0.0,0.0,0.0,0.0,0.0,0.0,0.0,0.0,0.0,0.0,0.0,0.0,0.0,0.0,0.0,0.0,0.0,0.0,0.0,0.0,0.0,0.0,0.0,0.0,0.0,0.0,0.0,0.0,0.0,0.0,0.0,0.0,0.0,0.0,0.0,0.0,0.0,0.0,0.0,0.0,0.0,0.0,0.0,0.0,0.0,0.0,0.0,0.0,0.0,0.0,0.0,0.0,0.0,0.0,0.0,0.0,0.0,0.0,0.0,0.0,0.0,0.0,0.0,0.0,0.0,0.0,0.0,0.0,0.0,0.0,0.0,0.0,0.0,0.0,0.0,0.0,0.0,0.0,0.0,0.0,0.0,0.0,0.0,0.0,0.0,0.0,0.0,0.0,0.0,0.0,0.0,0.0,0.0,0.0,0.0,0.0,0.0,0.0,0.0,0.0,0.0,0.0,0.0,0.0,0.0,-4.3252,-4.8862,-5.2989,-5.5009,-5.3473,-5.2965,0.0,0.0,0.0,0.0,0.0,0.0,0.0,0.0,0.0,0.0,0.0,0.0,0.0,0.0,0.0,0.0,0.0,0.0,0.0,0.0,0.0,0.0,0.0,0.0,0.0,0.0,0.0,0.0,0.0,0.0,0.0,0.0,0.0,0.0,0.0,0.0,0.0,0.0,0.0,0.0,0.0,0.0,0.0,0.0,0.0,0.0,0.0,0.0,0.0,0.0,0.0,0.0,0.0,0.0,0.0,0.0,0.0,0.0,0.0,0.0,0.0,0.0,0.0,0.0,0.0,0.0,0.0,0.0,0.0,0.0,0.0,0.0,0.0,0.0,0.0,0.0,0.0,0.0,0.0,0.0,0.0,0.0,0.0,0.0,0.0,0.0,0.0,0.0,0.0,0.0,0.0,0.0,0.0,0.0,0.0,0.0,0.0,0.0,0.0,0.0,0.0,0.0,0.0,0.0,0.0,0.0,0.0,0.0,0.0,-4.4512,0.0,-5.1894,-5.3155,-5.2396,-5.2127,0.0,0.0,0.0,0.0,0.0,0.0,0.0,0.0,0.0,0.0,0.0,0.0,0.0,0.0,0.0,0.0,0.0,0.0,0.0,0.0,0.0,0.0,0.0,0.0,0.0,0.0,0.0,0.0,0.0,0.0,0.0,0.0,0.0,0.0,0.0,0.0,0.0,0.0,0.0,0.0,0.0,0.0,0.0,0.0,0.0,0.0,0.0,0.0,0.0,0.0,0.0,0.0,0.0,0.0,0.0,0.0,0.0,0.0,0.0,0.0,0.0,0.0,0.0,0.0,0.0,0.0,0.0,0.0,0.0,0.0,0.0,0.0,0.0,0.0,0.0,0.0,0.0,0.0,0.0,0.0,0.0,0.0,0.0,0.0,0.0,0.0,0.0,0.0,0.0,0.0,0.0,0.0,0.0,0.0,0.0,0.0,0.0,0.0,0.0,0.0,0.0,0.0,0.0,0.0,0.0,0.0,0.0,0.0,-4.37,-4.7192,-4.9738,-5.0603,-4.9553,-5.0601,-5.0631,0.0,0.0,0.0,0.0,0.0,0.0,0.0,0.0,0.0,0.0,0.0,0.0,0.0,0.0,0.0,0.0,0.0,0.0,0.0,0.0,0.0,0.0,0.0,0.0,0.0,0.0,0.0,0.0,0.0,0.0,0.0,0.0,0.0,0.0,0.0,0.0,0.0,0.0,0.0,0.0,0.0,0.0,0.0,0.0,0.0,0.0,0.0,0.0,0.0,0.0,0.0,0.0,0.0,0.0,0.0,0.0,0.0,0.0,0.0,0.0,0.0,0.0,0.0,0.0,0.0,0.0,0.0,0.0,0.0,0.0,0.0,0.0,0.0,0.0,0.0,0.0,0.0,0.0,0.0,0.0,0.0,0.0,0.0,0.0,0.0,0.0,0.0,0.0,0.0,0.0,0.0,0.0,0.0,0.0,0.0,0.0,0.0,0.0,0.0,0.0,0.0,0.0,0.0,0.0,0.0,0.0,0.0,0.0,0.0,-4.655,-4.6937,-4.9775,-5.4919,-5.0481,-5.0212,0.0,0.0,0.0,0.0,0.0,0.0,0.0,0.0,0.0,0.0,0.0,0.0,0.0,0.0,0.0,0.0,0.0,0.0,0.0,0.0,0.0,0.0,0.0,0.0,0.0,0.0,0.0,0.0,0.0,0.0,0.0,0.0,0.0,0.0,0.0,0.0,0.0,0.0,0.0,0.0,0.0,0.0,0.0,0.0,0.0,0.0,0.0,0.0,0.0,0.0,0.0,0.0,0.0,0.0,0.0,0.0,0.0,0.0,0.0,0.0,0.0,0.0,0.0,0.0,0.0,0.0,0.0,0.0,0.0,0.0,0.0,0.0,0.0,0.0,0.0,0.0,0.0,0.0,0.0,0.0,0.0,0.0,0.0,0.0,0.0,0.0,0.0,0.0,0.0,0.0,0.0,0.0,0.0,0.0,0.0,0.0,0.0,0.0,0.0,0.0,0.0,0.0,0.0,0.0,0.0,0.0,0.0,0.0,0.0,-4.6462,-4.7434,-5.0132,-5.473,-5.072,-5.0361,-5.4162,0.0,0.0,0.0,0.0,0.0,0.0,0.0,0.0,0.0,0.0,0.0,0.0,0.0,0.0,0.0,0.0,0.0,0.0,0.0,0.0,0.0,0.0,0.0,0.0,0.0,0.0,0.0,0.0,0.0,0.0,0.0,0.0,0.0,0.0,0.0,0.0,0.0,0.0,0.0,0.0,0.0,0.0,0.0,0.0,0.0,0.0,0.0,0.0,0.0,0.0,0.0,0.0,0.0,0.0,0.0,0.0,0.0,0.0,0.0,0.0,0.0,0.0,0.0,0.0,0.0,0.0,0.0,0.0,0.0,0.0,0.0,0.0,0.0,0.0,0.0,0.0,0.0,0.0,0.0,0.0,0.0,0.0,0.0,0.0,0.0,0.0,0.0,0.0,0.0,0.0,0.0,0.0,0.0,0.0,0.0,0.0,0.0,0.0,0.0,0.0,0.0,0.0,0.0,0.0,0.0,0.0,0.0,0.0,-4.7013,-5.0875,-5.1994,-5.0272,-5.1439,-5.1109,0.0,0.0,0.0,0.0,0.0,0.0,0.0,0.0,0.0,0.0,0.0,0.0,0.0,0.0,0.0,0.0,0.0,0.0,0.0,0.0,0.0,0.0,0.0,0.0,0.0,0.0,0.0,0.0,0.0,0.0,0.0,0.0,0.0,0.0,0.0,0.0,0.0,0.0,0.0,0.0,0.0,0.0,0.0,0.0,0.0,0.0,0.0,0.0,0.0,0.0,0.0,0.0,0.0,0.0,0.0,0.0,0.0,0.0,0.0,0.0,0.0,0.0,0.0,0.0,0.0,0.0,0.0,0.0,0.0,0.0,0.0,0.0,0.0,0.0,0.0,0.0,0.0,0.0,0.0,0.0,0.0,0.0,0.0,0.0,0.0,0.0,0.0,0.0,0.0,0.0,0.0,0.0,0.0,0.0,0.0,0.0,0.0,0.0,0.0,0.0,0.0,0.0,0.0,0.0,0.0,0.0,0.0,0.0,0.0,-4.9659,-5.4685,-5.7564,-5.7902,-5.3773,-5.2785,0.0,0.0,0.0,0.0,0.0,0.0,0.0,0.0,0.0,0.0,0.0,0.0,0.0,0.0,0.0,0.0,0.0,0.0,0.0,0.0,0.0,0.0,0.0,0.0,0.0,0.0,0.0,0.0,0.0,0.0,0.0,0.0,0.0,0.0,0.0,0.0,0.0,0.0,0.0,0.0,0.0,0.0,0.0,0.0,0.0,0.0,0.0,0.0,0.0,0.0,0.0,0.0,0.0,0.0,0.0,0.0,0.0,0.0,0.0,0.0,0.0,0.0,0.0,0.0,0.0,0.0,0.0,0.0,0.0,0.0,0.0,0.0,0.0,0.0,0.0,0.0,0.0,0.0,0.0,0.0,0.0,0.0,0.0,0.0,0.0,0.0,0.0,0.0,0.0,0.0,0.0,0.0,0.0,0.0,0.0,0.0,0.0,0.0,0.0,0.0,0.0,0.0,0.0,0.0,0.0,0.0,0.0,0.0,-5.0222,-5.1437,-5.7546,-6.1283,-6.2301,-5.889,-5.6675,0.0,0.0,0.0,0.0,0.0,0.0,0.0,0.0,0.0,0.0,0.0,0.0,0.0,0.0,0.0,0.0,0.0,0.0,0.0,0.0,0.0,0.0,0.0,0.0,0.0,0.0,0.0,0.0,0.0,0.0,0.0,0.0,0.0,0.0,0.0,0.0,0.0,0.0,0.0,0.0,0.0,0.0,0.0,0.0,0.0,0.0,0.0,0.0,0.0,0.0,0.0,0.0,0.0,0.0,0.0,0.0,0.0,0.0,0.0,0.0,0.0,0.0,0.0,0.0,0.0,0.0,0.0,0.0,0.0,0.0,0.0,0.0,0.0,0.0,0.0,0.0,0.0,0.0,0.0,0.0,0.0,0.0,0.0,0.0,0.0,0.0,0.0,0.0,0.0,0.0,0.0,0.0,0.0,0.0,0.0,0.0,0.0,0.0,0.0,0.0,0.0,0.0,0.0,0.0,0.0,0.0,0.0,0.0,-5.2653,-5.2878,-5.9678,-6.3558,-6.4096,-6.4366,-6.1134,0.0,0.0,0.0,0.0,0.0,0.0,0.0,0.0,0.0,0.0,0.0,0.0,0.0,0.0,0.0,0.0,0.0,0.0,0.0,0.0,0.0,0.0,0.0,0.0,0.0,0.0,0.0,0.0,0.0,0.0,0.0,0.0,0.0,0.0,0.0,0.0,0.0,0.0,0.0,0.0,0.0,0.0,0.0,0.0,0.0,0.0,0.0,0.0,0.0,0.0,0.0,0.0,0.0,0.0,0.0,0.0,0.0,0.0,0.0,0.0,0.0,0.0,0.0,0.0,0.0,0.0,0.0,0.0,0.0,0.0,0.0,0.0,0.0,0.0,0.0,0.0,0.0,0.0,0.0,0.0,0.0,0.0,0.0,0.0,0.0,0.0,0.0,0.0,0.0,0.0,0.0,0.0,0.0,0.0,0.0,0.0,0.0,0.0,0.0,0.0,0.0,0.0,0.0,0.0,0.0,0.0,0.0,0.0,-5.2048,-5.4211,-6.0983,-6.4665,-6.4784,-6.2421,-5.9877,0.0,0.0,0.0,0.0,0.0,0.0,0.0,0.0,0.0,0.0,0.0,0.0,0.0,0.0,0.0,0.0,0.0,0.0,0.0,0.0,0.0,0.0,0.0,0.0,0.0,0.0,0.0,0.0,0.0,0.0,0.0,0.0,0.0,0.0,0.0,0.0,0.0,0.0,0.0,0.0,0.0,0.0,0.0,0.0,0.0,0.0,0.0,0.0,-8.4964,0.0,0.0,0.0,0.0,0.0,0.0,0.0,0.0,0.0,0.0,0.0,0.0,0.0,0.0,0.0,0.0,0.0,0.0,0.0,0.0,0.0,0.0,0.0,0.0,0.0,0.0,0.0,0.0,0.0,0.0,0.0,0.0,0.0,0.0,0.0,0.0,0.0,0.0,0.0,0.0,0.0,0.0,0.0,0.0,0.0,0.0,0.0,0.0,0.0,0.0,0.0,0.0,0.0,0.0,0.0,0.0,0.0,0.0,0.0,-5.1894,-5.6662,-6.1957,-6.4964,-6.5383,-6.3498,-6.1493,0.0,0.0,0.0,0.0,0.0,0.0,0.0,0.0,0.0,0.0,0.0,0.0,0.0,0.0,0.0,0.0,0.0,0.0,0.0,0.0,0.0,0.0,0.0,0.0,0.0,0.0,0.0,0.0,0.0,0.0,0.0,0.0,0.0,0.0,0.0,0.0,0.0,0.0,0.0,0.0,0.0,0.0,0.0,0.0,0.0,0.0,0.0,0.0,0.0,0.0,0.0,0.0,0.0,0.0,0.0,0.0,0.0,0.0,0.0,0.0,0.0,0.0,0.0,0.0,0.0,0.0,0.0,0.0,0.0,0.0,0.0,0.0,0.0,0.0,0.0,0.0,0.0,0.0,0.0,0.0,0.0,0.0,0.0,0.0,0.0,0.0,0.0,0.0,0.0,0.0,0.0,0.0,0.0,0.0,0.0,0.0,0.0,0.0,0.0,0.0,0.0,0.0,0.0,0.0,0.0,0.0,0.0,-4.9009,-5.2376,-5.9175,-6.2696,-6.4875,-6.5832,-6.5413,-6.4036,-6.1702,0.0,0.0,0.0,0.0,0.0,0.0,0.0,0.0,0.0,0.0,0.0,0.0,0.0,0.0,0.0,0.0,0.0,0.0,0.0,0.0,0.0,0.0,0.0,0.0,0.0,0.0,0.0,0.0,0.0,0.0,0.0,0.0,0.0,0.0,0.0,0.0,0.0,0.0,-6.7487,-6.9538,0.0,0.0,0.0,0.0,0.0,0.0,0.0,0.0,-8.3637,0.0,0.0,0.0,0.0,0.0,0.0,0.0,0.0,0.0,0.0,0.0,0.0,0.0,0.0,0.0,0.0,0.0,0.0,0.0,0.0,0.0,0.0,0.0,0.0,0.0,0.0,0.0,0.0,0.0,0.0,0.0,0.0,0.0,0.0,0.0,0.0,0.0,0.0,0.0,0.0,0.0,0.0,0.0,0.0,0.0,0.0,0.0,0.0,0.0,0.0,0.0,0.0,0.0,0.0,0.0,0.0,-5.2538,-5.1569,-5.4179,-6.0574,-6.3174,-6.4666,-6.5114,-6.5622,-6.5114,-6.3617,0.0,0.0,0.0,0.0,0.0,0.0,0.0,0.0,0.0,0.0,0.0,0.0,0.0,0.0,0.0,0.0,0.0,0.0,0.0,0.0,0.0,0.0,0.0,0.0,0.0,0.0,0.0,0.0,0.0,0.0,0.0,0.0,0.0,0.0,0.0,0.0,0.0,0.0,0.0,-7.3118,-7.633,0.0,0.0,0.0,0.0,0.0,0.0,0.0,0.0,-8.5823,0.0,0.0,0.0,0.0,0.0,0.0,0.0,0.0,0.0,0.0,0.0,0.0,0.0,0.0,0.0,0.0,0.0,0.0,0.0,0.0,0.0,0.0,0.0,0.0,0.0,0.0,0.0,0.0,0.0,0.0,0.0,0.0,0.0,0.0,0.0,0.0,0.0,0.0,0.0,0.0,0.0,0.0,0.0,0.0,0.0,0.0,0.0,0.0,0.0,0.0,0.0,0.0,0.0,0.0,0.0,-5.2348,-5.1894,-5.4931,-6.1885,-6.38,-6.4815,-6.5024,-6.4994,-6.4515,0.0,0.0,0.0,0.0,0.0,0.0,0.0,0.0,0.0,0.0,0.0,0.0,0.0,0.0,0.0,0.0,0.0,0.0,0.0,0.0,0.0,0.0,0.0,0.0,0.0,0.0,0.0,0.0,0.0,0.0,0.0,0.0,0.0,0.0,0.0,0.0,0.0,0.0,0.0,0.0,-7.2404,-7.5464,-7.6686,0.0,0.0,0.0,0.0,0.0,0.0,-8.4485,-8.7651,0.0,0.0,0.0,0.0,0.0,0.0,0.0,0.0,0.0,0.0,0.0,0.0,0.0,0.0,0.0,0.0,0.0,0.0,0.0,0.0,0.0,0.0,0.0,0.0,0.0,0.0,0.0,0.0,0.0,0.0,0.0,0.0,0.0,0.0,0.0,0.0,0.0,0.0,0.0,0.0,0.0,0.0,0.0,0.0,0.0,0.0,0.0,0.0,0.0,0.0,0.0,0.0,0.0,0.0,0.0,-5.2156,-5.2772,-5.6205,-6.2782,-6.4365,-6.4964,-6.4814,-6.4425,-6.3917,0.0,0.0,0.0,0.0,0.0,0.0,0.0,0.0,0.0,0.0,0.0,0.0,0.0,0.0,0.0,0.0,0.0,0.0,0.0,0.0,0.0,0.0,0.0,0.0,0.0,0.0,0.0,0.0,0.0,0.0,0.0,0.0,0.0,0.0,0.0,0.0,0.0,0.0,0.0,0.0,0.0,-7.5085,-7.6187,-7.9831,0.0,0.0,0.0,0.0,-8.1381,-8.5114,0.0,0.0,0.0,0.0,0.0,0.0,0.0,0.0,0.0,0.0,0.0,0.0,0.0,0.0,0.0,0.0,0.0,0.0,0.0,0.0,0.0,0.0,0.0,0.0,0.0,0.0,0.0,0.0,0.0,0.0,0.0,0.0,0.0,0.0,0.0,0.0,0.0,0.0,0.0,0.0,0.0,0.0,0.0,0.0,0.0,0.0,0.0,0.0,0.0,0.0,0.0,0.0,0.0,0.0,0.0,0.0,-5.3549,-5.6669,-5.9812,-6.2987,-6.433,-6.4721,-6.4126,-6.4635,-6.4575,0.0,0.0,0.0,0.0,0.0,0.0,0.0,0.0,0.0,0.0,0.0,0.0,0.0,0.0,0.0,0.0,0.0,0.0,0.0,0.0,0.0,0.0,0.0,0.0,0.0,0.0,0.0,0.0,0.0,0.0,0.0,0.0,0.0,0.0,0.0,0.0,0.0,0.0,0.0,0.0,0.0,-7.9079,-8.1226,-8.4229,-8.5621,0.0,0.0,-8.5952,-8.4345,-8.4712,0.0,0.0,0.0,0.0,0.0,0.0,0.0,0.0,0.0,0.0,0.0,0.0,0.0,0.0,0.0,0.0,0.0,0.0,0.0,0.0,0.0,0.0,0.0,0.0,0.0,0.0,0.0,0.0,0.0,0.0,0.0,0.0,0.0,0.0,0.0,0.0,0.0,0.0,0.0,0.0,0.0,0.0,0.0,0.0,0.0,0.0,0.0,0.0,0.0,0.0,0.0,0.0,0.0,0.0,0.0,-4.9218,-5.3689,-5.5829,-5.9045,-6.3408,-6.3827,-6.4156,-6.4575,-6.3797,-6.3558,0.0,0.0,0.0,0.0,0.0,0.0,0.0,0.0,0.0,0.0,0.0,0.0,0.0,0.0,0.0,0.0,0.0,0.0,0.0,0.0,0.0,0.0,0.0,0.0,0.0,0.0,0.0,0.0,0.0,0.0,0.0,0.0,0.0,0.0,0.0,0.0,0.0,0.0,0.0,0.0,0.0,0.0,-8.0547,-8.4244,0.0,0.0,0.0,-8.8519,-8.9545,0.0,0.0,0.0,0.0,0.0,0.0,0.0,0.0,0.0,0.0,0.0,0.0,0.0,0.0,0.0,0.0,0.0,0.0,0.0,0.0,0.0,0.0,0.0,0.0,0.0,0.0,0.0,0.0,0.0,0.0,0.0,0.0,0.0,0.0,0.0,0.0,0.0,0.0,0.0,0.0,0.0,0.0,0.0,0.0,0.0,0.0,0.0,0.0,0.0,0.0,0.0,0.0,0.0,0.0,0.0,0.0,0.0,-5.3937,-5.5425,-5.8716,-6.3767,-6.3621,-6.383,-6.4695,-6.3348,0.0,0.0,0.0,0.0,0.0,0.0,0.0,0.0,0.0,0.0,0.0,0.0,0.0,0.0,0.0,0.0,0.0,0.0,0.0,0.0,0.0,0.0,0.0,0.0,0.0,0.0,0.0,-6.1511,0.0,0.0,0.0,0.0,0.0,0.0,0.0,0.0,0.0,0.0,0.0,0.0,0.0,0.0,-8.0054,-8.0056,-8.4283,-8.7177,0.0,0.0,-9.0629,-9.2521,-9.0134,-8.8947,0.0,0.0,0.0,0.0,0.0,0.0,0.0,0.0,0.0,0.0,0.0,0.0,0.0,0.0,0.0,0.0,0.0,0.0,0.0,0.0,0.0,0.0,0.0,0.0,0.0,0.0,0.0,0.0,0.0,0.0,0.0,0.0,0.0,0.0,0.0,0.0,0.0,0.0,0.0,0.0,0.0,0.0,0.0,0.0,0.0,0.0,0.0,0.0,0.0,0.0,0.0,0.0,0.0,0.0,-4.955,-5.4552,-5.7399,-6.0488,-6.3827,-6.4185,-6.4273,-6.4066,-6.3947,-6.3617,0.0,0.0,0.0,0.0,0.0,0.0,0.0,0.0,0.0,0.0,0.0,0.0,0.0,0.0,0.0,0.0,0.0,0.0,0.0,0.0,0.0,0.0,0.0,0.0,0.0,0.0,0.0,0.0,0.0,0.0,0.0,0.0,0.0,0.0,0.0,0.0,0.0,0.0,0.0,0.0,0.0,-8.0659,-8.2004,-8.6041,-8.8666,0.0,-9.0324,-9.1849,-9.0939,-9.4347,-9.5379,-9.0223,0.0,0.0,0.0,0.0,0.0,0.0,0.0,0.0,0.0,0.0,0.0,0.0,0.0,0.0,0.0,0.0,0.0,0.0,0.0,0.0,0.0,0.0,0.0,0.0,0.0,0.0,0.0,0.0,0.0,0.0,0.0,0.0,0.0,0.0,0.0,0.0,0.0,0.0,0.0,0.0,0.0,0.0,0.0,0.0,0.0,0.0,0.0,0.0,0.0,0.0,0.0,0.0,0.0,-5.0353,-5.4689,-5.7643,-6.053,-6.3346,-6.4064,-6.4273,-6.4006,-6.4006,-6.3528,0.0,0.0,0.0,0.0,0.0,0.0,0.0,0.0,0.0,0.0,0.0,0.0,0.0,0.0,0.0,0.0,0.0,0.0,0.0,0.0,0.0,0.0,0.0,0.0,0.0,0.0,0.0,0.0,-6.1708,-6.2633,-6.5614,0.0,0.0,0.0,0.0,0.0,0.0,0.0,0.0,0.0,0.0,-8.2165,-8.4204,-8.711,0.0,0.0,-9.0797,-9.2208,-9.1602,-9.3122,-9.2322,-8.6432,-8.3565,0.0,0.0,0.0,0.0,0.0,0.0,0.0,0.0,0.0,0.0,0.0,0.0,0.0,0.0,0.0,0.0,0.0,0.0,0.0,0.0,0.0,0.0,0.0,0.0,0.0,0.0,0.0,0.0,0.0,0.0,0.0,0.0,0.0,0.0,0.0,0.0,0.0,0.0,0.0,0.0,0.0,0.0,0.0,0.0,0.0,0.0,0.0,0.0,0.0,0.0,0.0,0.0,-5.1072,-5.4936,-5.7511,-6.0251,-6.3288,-6.4004,-6.4275,-6.4276,-6.4096,-6.3498,0.0,0.0,0.0,0.0,0.0,0.0,0.0,0.0,0.0,0.0,0.0,0.0,0.0,0.0,0.0,0.0,0.0,0.0,0.0,0.0,0.0,0.0,0.0,0.0,0.0,0.0,0.0,0.0,-6.39,-6.5358,-6.6873,0.0,0.0,0.0,0.0,0.0,0.0,0.0,0.0,0.0,0.0,-8.2664,-8.4797,-8.7177,-8.8903,-8.9342,-9.056,-9.1372,-9.1213,-9.2327,-9.0935,-8.4337,0.0,0.0,0.0,0.0,0.0,0.0,0.0,0.0,0.0,0.0,0.0,0.0,0.0,0.0,0.0,0.0,0.0,0.0,0.0,0.0,0.0,0.0,0.0,0.0,0.0,0.0,0.0,-3.1562,0.0,0.0,-3.2855,0.0,0.0,0.0,0.0,0.0,0.0,0.0,0.0,0.0,0.0,0.0,0.0,0.0,0.0,0.0,0.0,0.0,0.0,0.0,0.0,0.0,0.0,-5.1653,-5.546,-5.7289,-6.0057,-6.3797,-6.3977,-6.4306,-6.4904,-6.4336,-6.3707,-6.3049,0.0,0.0,0.0,0.0,0.0,0.0,0.0,0.0,0.0,0.0,0.0,0.0,0.0,0.0,0.0,0.0,0.0,0.0,0.0,0.0,0.0,0.0,0.0,0.0,0.0,0.0,-6.7828,-6.9482,-6.9862,0.0,0.0,0.0,0.0,0.0,0.0,0.0,0.0,0.0,-7.4419,-7.8409,-8.1758,-8.3346,-8.6129,-8.8497,-8.9918,-8.9579,-8.9173,-8.9173,-9.2748,-9.294,0.0,0.0,0.0,0.0,0.0,0.0,0.0,0.0,0.0,0.0,0.0,0.0,0.0,0.0,0.0,0.0,0.0,0.0,0.0,0.0,0.0,0.0,0.0,0.0,0.0,0.0,0.0,-3.3379,-3.3569,0.0,0.0,0.0,0.0,0.0,0.0,0.0,0.0,0.0,0.0,0.0,-4.6301,-4.723,0.0,0.0,0.0,0.0,0.0,0.0,0.0,0.0,0.0,0.0,0.0,0.0,-5.3189,-5.7535,-5.8434,-6.0266,-6.3288,-6.3797,-6.3917,-6.3737,-6.3887,-6.3707,-6.3079,0.0,0.0,0.0,0.0,0.0,0.0,0.0,0.0,0.0,0.0,0.0,0.0,0.0,0.0,0.0,0.0,0.0,0.0,0.0,0.0,0.0,0.0,0.0,0.0,0.0,-6.7521,0.0,0.0,0.0,0.0,0.0,0.0,0.0,0.0,0.0,0.0,0.0,-7.4819,-7.4549,-7.8384,-8.1615,-8.2626,-8.5351,-8.7617,0.0,0.0,0.0,0.0,0.0,0.0,0.0,0.0,0.0,0.0,0.0,0.0,0.0,0.0,-8.9782,-8.7313,-8.6264,-8.6169,-8.7389,0.0,0.0,0.0,0.0,0.0,0.0,0.0,0.0,0.0,0.0,0.0,0.0,0.0,0.0,-3.4062,0.0,-3.335,0.0,0.0,0.0,0.0,0.0,0.0,0.0,0.0,-4.6351,-4.7129,-4.7657,-4.841,-4.848,0.0,-4.9999,-5.1332,0.0,0.0,0.0,0.0,0.0,0.0,0.0,0.0,-5.5196,-5.8668,-5.9218,-6.0625,-6.2959,-6.3468,-6.3469,-6.3113,-6.3498,-6.3378,-6.275,-6.1912,-6.2151,0.0,0.0,0.0,0.0,0.0,0.0,0.0,0.0,0.0,0.0,0.0,0.0,0.0,0.0,0.0,0.0,0.0,0.0,0.0,0.0,0.0,0.0,0.0,-6.9865,0.0,0.0,0.0,0.0,0.0,0.0,0.0,0.0,0.0,-7.4085,-7.4818,-7.5889,-7.6435,-7.9043,-8.1359,-8.2611,0.0,0.0,0.0,0.0,0.0,0.0,0.0,-8.4865,-8.4283,-8.4339,-8.4858,-8.5973,-8.7583,-8.87,-8.87,0.0,0.0,-8.6907,-8.6163,-8.5858,-8.6081,-8.6149,-8.6582,-8.8065,-8.8364,-8.8718,0.0,0.0,0.0,0.0,0.0,0.0,0.0,0.0,-3.2561,-3.3931,0.0,-3.4566,0.0,0.0,0.0,0.0,0.0,-4.6155,0.0,0.0,-4.7556,-4.7757,-4.738,-4.8435,-4.866,-4.8319,-5.1946,-5.3541,-5.3101,-5.1848,0.0,0.0,0.0,0.0,0.0,0.0,-5.7398,-5.8813,-5.9717,-6.1074,-6.3047,-6.3137,-6.3083,-6.3088,-6.3113,-6.281,-6.2181,-6.2091,-6.2421,-6.3196,-6.4336,0.0,0.0,0.0,0.0,0.0,0.0,0.0,0.0,0.0,0.0,0.0,0.0,0.0,0.0,0.0,0.0,0.0,0.0,0.0,0.0,-6.9957,0.0,0.0,0.0,0.0,0.0,0.0,0.0,0.0,0.0,0.0,-7.6154,-7.594,-7.6969,-7.9719,0.0,0.0,0.0,0.0,-8.3761,-8.4606,-8.4674,-8.4945,-8.5655,-8.2751,-8.1196,-8.325,0.0,0.0,-8.6961,-8.755,-8.8091,-8.8091,-8.8192,-8.8531,-8.9884,-8.8734,-8.7169,-8.5245,-8.6012,-8.8848,-9.3564,-9.1565,-8.9212,-3.3725,0.0,0.0,0.0,0.0,-3.4043,-3.5332,-3.6758,-3.7051,-3.7749,-3.8699,-3.9579,0.0,0.0,0.0,0.0,0.0,0.0,-4.7606,-4.7581,-4.9841,-5.0393,-4.954,-5.1021,-5.1641,-5.1564,-5.3049,-5.6006,-5.9818,-5.6328,-5.5091,-5.6203,0.0,0.0,0.0,0.0,-5.7679,-6.0871,-6.0909,-6.1553,-6.3049,-6.3137,-6.3109,-6.3141,-6.3139,-6.2989,-6.281,-6.2361,-6.2839,-6.4366,-6.4366,0.0,0.0,0.0,0.0,0.0,0.0,0.0,0.0,0.0,0.0,0.0,0.0,0.0,0.0,0.0,0.0,0.0,0.0,0.0,-7.2364,-7.3791,-7.5291,0.0,0.0,0.0,0.0,0.0,0.0,0.0,0.0,0.0,-7.8052,-7.9479,-8.0248,0.0,0.0,-8.1393,-8.2577,-8.2712,-8.3389,-8.5182,-8.5452,0.0,-8.4979,-8.4042,-8.3544,-8.4162,-8.6149,-8.7829,-8.8417,-8.8632,-8.8937,-8.9478,-8.9579,-8.9715,-8.9918,-8.8125,-8.6135,-8.5097,-8.7005,-9.0726,-9.5419,-9.5497,-9.45,-3.7052,-3.4219,-3.4297,-3.4531,-3.4922,-3.5781,-3.7342,-3.9222,-3.9303,-4.0439,-4.2296,-4.2111,-4.2215,-4.2701,-4.515,0.0,0.0,0.0,-4.8812,-4.9289,-5.0745,-5.1423,-5.1473,-5.2452,-5.2898,-5.3012,-5.4654,-5.8126,-6.3042,-5.9624,-5.8174,-5.8594,0.0,0.0,-6.0034,-5.8602,-5.9256,-6.1915,-6.1702,-6.2032,-6.3049,-6.3137,-6.3137,-6.3137,-6.3137,-6.3137,-6.3079,-6.272,-6.3019,-6.4186,-6.4096,-6.4545,0.0,0.0,0.0,0.0,0.0,0.0,0.0,0.0,0.0,0.0,0.0,-6.6999,-6.6999,0.0,0.0,0.0,-7.0126,-7.1814,-7.3657,-7.4167,0.0,0.0,0.0,0.0,0.0,0.0,0.0,-7.7164,-7.574,-7.571,-7.808,-8.0678,-8.1883,-8.0598,-8.119,-8.2002,-8.2746,0.0,-8.3016,-8.464,-8.4877,-8.4809,-8.464,-8.5162,-8.5703,-8.6291,-8.7253,-8.8226,-8.8937,-8.9309,-8.9681,-9.0121,-9.0459,-9.0765,-9.1259,-8.9313,-8.7315,-8.6645,-8.9243,-9.3094,-9.7348,-9.7867,-9.7536,-3.9783,-3.7559,-3.7187,-3.6719,-3.6309,-3.7269,-3.8797,-4.0378,-4.0312,-4.2544,-4.6194,-4.3105,-4.4078,-4.8059,-4.9084,0.0,-4.959,-4.964,-5.0243,-5.1322,-5.0845,-5.1423,-5.2904,-5.2861,-5.2861,-5.2998,-5.6363,-5.9767,-6.2952,-6.176,-6.1194,-6.1164,-5.9907,-5.9877,-6.1044,-6.1044,-6.1373,-6.2091,-6.2151,-6.248,-6.3049,-6.3137,-6.3137,-6.3137,-6.3137,-6.3137,-6.3137,-6.3137,-6.3137,-6.3109,-6.3617,-6.3917,-6.3947,0.0,0.0,0.0,0.0,0.0,0.0,0.0,0.0,0.0,0.0,0.0,0.0,0.0,0.0,-7.1481,-7.284,0.0,-7.2754,-7.2665,0.0,0.0,0.0,-7.6352,-7.757,-7.6589,-7.5777,-7.5709,0.0,0.0,-7.6935,-8.0124,-8.2309,-8.2459,-8.2475,-8.2746,-8.349,-8.2983,-8.278,-8.3727,-8.3761,-8.3998,-8.4877,-8.5938,-8.705,-8.7946,-8.8278,-8.8125,-8.87,-8.9342,-8.985,-9.0053,-9.0708,-9.1466,-9.2748,-9.1426,-9.0215,-8.9174,-9.1785,-9.5255,-9.8236,-9.8651,-9.8432,-4.0833,-4.0254,-4.0137,-3.9277,-3.819,-4.0503,-4.1908,-4.2804,-4.4467,-4.602,-4.7187,-4.6388,-4.6729,-4.7937,-4.8221,-4.8786,-4.9615,-5.0042,-5.082,-5.19,-5.2201,-5.2553,-5.2861,-5.2861,-5.2861,-5.311,-5.6363,-5.9753,-6.299,-6.2234,-6.1852,-6.1822,-6.1044,-6.0805,-6.1074,-6.0595,-6.0924,-6.2091,-6.26,-6.2929,-6.3137,-6.3137,-6.3137,-6.3137,-6.3137,-6.3137,-6.3137,-6.3137,-6.3137,-6.3079,-6.3199,-6.3318,-6.3318,-6.3446,0.0,0.0,0.0,0.0,0.0,0.0,0.0,0.0,0.0,-6.8707,-6.8621,0.0,-7.3368,0.0,-7.4321,-7.5108,-7.4918,-7.4931,0.0,0.0,-7.6623,-7.6893,-7.5574,-7.6115,-7.6386,-7.5777,-7.5373,-7.5665,-7.7036,-7.9246,-8.1308,-8.2782,-8.3136,-8.349,-8.42,-8.3693,-8.3727,-8.4877,-8.5114,-8.552,-8.6095,-8.6623,-8.6623,-8.5789,-8.6472,-8.7245,-8.7414,-8.755,-8.8023,-8.9094,-8.9805,-9.0431,-9.1334,-9.2233,-9.1937,-8.9962,-9.1823,-9.5143,-9.837,-9.8969,-9.8753,-4.1172,-4.125,-4.2119,-4.1898,-4.1103,-4.1834,-4.3189,-4.511,-4.6404,-4.8092,-4.9894,-4.965,-4.9478,-4.9464,-4.9665,-5.0117,-5.072,-5.1272,-5.1875,-5.2477,-5.2779,-5.2861,-5.2861,-5.2861,-5.2861,-5.2998,-5.6363,-5.9781,-6.2922,-6.2706,-6.2391,-6.2091,-6.1732,-6.1553,-6.1523,-6.1164,-6.1493,-6.254,-6.2899,-6.3137,-6.3137,-6.3137,-6.3137,-6.3137,-6.3137,-6.2929,-6.266,-6.2929,-6.2929,-6.266,-6.2929,-6.3137,-6.3079,-6.3087,-6.3236,0.0,0.0,0.0,0.0,0.0,0.0,0.0,0.0,0.0,0.0,0.0,-7.4533,-7.5054,-7.4832,-7.4843,-7.5202,-7.4897,-7.483,-7.5168,-7.598,-7.6115,-7.5202,-7.5845,-7.6183,-7.5777,-7.5658,-7.6182,-7.7389,-7.9094,-8.0614,-8.1765,-8.2543,-8.3389,-8.437,-8.4234,-8.42,-8.4674,-8.4776,-8.5032,-8.5763,-8.5607,-8.5209,-8.4804,-8.5607,-8.6501,-8.6839,-8.6907,-8.7211,-8.7998,-8.8753,-8.9615,-9.0583,-9.1569,-9.2159,-9.2809,-9.2877,-9.4223,-9.6472,-9.7782,-9.8264,-4.1172,-4.1385,-4.3283,-4.4075,-4.4021,-4.258,-4.4042,-4.7394,-4.7636,-4.9677,-5.2904,-5.2427,-5.195,-5.1523,-5.2,-5.2201,-5.2226,-5.2703,-5.2861,-5.2861,-5.2861,-5.2861,-5.2929,-5.311,-5.3128,-5.3027,-5.6634,-5.9977,-6.3082,-6.3091,-6.278,-6.2241,-6.2211,-6.2241,-6.2241,-6.2211,-6.251,-6.3137,-6.3137,-6.3137,-6.3137,-6.3137,-6.3137,-6.3137,-6.2989,-6.269,-6.2121,-6.257,-6.26,-6.2151,-6.263,-6.2989,-6.3079,-6.3109,-6.3378,0.0,-6.4665,0.0,0.0,0.0,0.0,0.0,0.0,0.0,0.0,-7.2099,-7.4506,-7.656,-7.4945,-7.4031,-7.4559,-7.4086,-7.4018,-7.4661,-7.4762,-7.4999,-7.5608,-7.5676,-7.5676,-7.5676,-7.5687,-7.6212,-7.7438,-7.9126,-8.0192,-8.0428,-8.1425,-8.2712,-8.3998,-8.4234,-8.3998,-8.3422,-8.3355,-8.3678,-8.4122,-8.3832,-8.3606,-8.4224,-8.477,-8.5587,-8.6061,-8.6298,-8.6467,-8.6677,-8.7554,-8.8773,-9.0187,-9.0545,-9.1877,-9.4763,-9.3968,-9.3239,-9.4356,-9.5946,-9.6869,-4.1172,-4.1385,-4.3283,-4.4075,-4.4172,-4.5351,-4.7248,-4.9534,-5.1093,-5.2189,-5.2836,-5.2804,-5.2703,-5.2628,-5.2729,-5.2754,-5.2779,-5.2879,-5.2861,-5.2861,-5.2861,-5.2861,-5.2998,-5.4299,-5.4204,-5.3288,-5.7771,-6.1117,-6.3105,-6.309,-6.3019,-6.2899,-6.2899,-6.2899,-6.2899,0.0,0.0,0.0,-6.3137,-6.3137,-6.3137,-6.3137,-6.3137,-6.3137,-6.257,0.0,-6.2091,-6.1702,-6.1672,-6.2091,-6.2211,0.0,0.0,0.0,0.0,0.0,0.0,0.0,0.0,0.0,0.0,0.0,-7.4703,-7.515,-7.1991,-7.2808,-7.4222,-7.5743,-7.5547,-7.5072,-7.4661,-7.5033,-7.5337,-7.5473,-7.5473,-7.554,-7.5676,-7.5676,-7.5676,-7.5709,-7.5687,-7.5792,-7.6245,-7.845,-8.0123,-8.0175,-8.0953,-8.1832,-8.2644,-8.2813,-8.2813,-8.2611,-8.2543,-8.2611,-8.2798,-8.2644,-8.2611,-8.2829,-8.2897,-8.3186,-8.3422,-8.3862,-8.4437,-8.4945,-8.6063,-8.7465,-8.9258,-9.0435,-9.1413,-9.2533,-9.334,-9.4036,-9.4261,-9.4629,-9.4887,-4.2297,0.0,-4.5127,-4.6072,0.0,-4.9081,-5.0481,-5.1443,-5.1443,-5.205,-5.2861,-5.2861,-5.2861,-5.2861,-5.2861,-5.2861,-5.2861,-5.2861,-5.2861,-5.2904,-5.2628,-5.2886,-5.3711,-5.4302,-5.5123,-5.6357,-5.8466,-6.0785,-6.2996,-6.2732,-6.26,-6.26,-6.26,-6.2421,-6.2121,-6.2421,-6.275,-6.3137,-6.3137,-6.3137,-6.3137,-6.3137,-6.3137,-6.3137,-6.275,0.0,0.0,0.0,0.0,0.0,0.0,0.0,0.0,-6.3083,0.0,-6.3977,-6.4427,-6.5381,-6.7,-7.0005,-7.1678,-7.1337,-7.4268,-7.5734,-7.4563,-7.46,-7.4897,-7.5608,-7.5033,-7.4593,-7.4478,-7.4897,-7.5168,-7.5168,-7.5473,-7.5676,-7.5676,-7.5676,-7.5676,-7.5709,-7.5681,-7.5687,-7.5725,-7.6917,-7.828,-7.8991,-7.9397,-7.9837,-8.0276,-8.1528,-8.2205,-8.146,-8.0987,-8.0919,-8.1257,-8.1325,-8.129,-8.1356,-8.1914,-8.2322,-8.2408,-8.2712,-8.3219,-8.3968,-8.5034,-8.6345,-8.7678,-8.936,-9.0895,-9.1669,-9.2458,-9.3051,-9.3125,-9.3712,-9.4153,-4.4571,-4.6514,-4.7248,-4.8506,-5.0198,-5.205,-5.2861,-5.2767,0.0,0.0,0.0,-5.2861,-5.2861,-5.2861,-5.2861,-5.2879,-5.2804,-5.2779,-5.2729,-5.2628,-5.2176,-5.2838,-5.4287,-5.4171,-5.5825,-5.9149,-5.9065,-6.0326,-6.2793,-6.2314,-6.2151,-6.2241,-6.2151,-6.1822,-6.1373,-6.1822,-6.2421,-6.3049,-6.3137,-6.3137,-6.3137,-6.3137,-6.3137,-6.3137,-6.2959,-6.266,-6.2121,-6.251,-6.254,-6.2151,-6.26,-6.2959,-6.3079,-6.3137,-6.3348,-6.3947,-6.4393,-6.5171,-6.6493,-6.9102,-7.0981,-7.1566,-7.3651,-7.5455,-7.6796,-7.6149,-7.5676,-7.5676,-7.4371,-7.3649,-7.4013,-7.4411,-7.4593,-7.4627,-7.527,-7.5676,-7.5676,-7.5676,-7.5676,-7.5676,-7.5709,-7.5695,-7.5672,-7.5759,-7.6111,-7.7303,-7.7942,-7.7908,-7.8111,-7.9904,-8.0987,-8.0006,-7.9397,-7.9194,-7.9634,-7.9954,-7.9905,-7.9904,-8.0867,-8.1697,-8.1832,-8.1934,-8.2306,-8.2915,-8.4026,-8.5096,-8.6164,-8.8038,-8.9992,-9.1498,-9.1795,-9.1693,-9.1583,-9.2684,-9.3529,-4.8617,-4.4752,-4.8144,-4.9748,-5.0198,-5.2119,-5.2861,-5.2861,-5.256,-5.2629,-5.2861,-5.2861,-5.2861,-5.2861,-5.2861,-5.2678,-5.2226,-5.2226,-5.1975,-5.1523,-5.1423,-5.2251,-5.3772,-5.5184,-5.6376,-5.7499,-5.9621,-6.1124,-6.1836,-6.2007,-6.2361,-6.278,-6.2391,-6.2032,-6.1972,-6.2061,-6.2421,-6.3049,-6.3137,-6.3137,-6.3137,-6.3137,-6.3137,-6.3049,-6.254,-6.2211,-6.2091,-6.1672,-6.1613,-6.2061,-6.2181,-6.248,-6.3049,-6.3137,-6.3348,-6.3977,-6.4962,-6.6457,-6.8578,-7.0935,-7.3577,-7.6524,-7.6707,-7.6665,-7.686,-7.6149,-7.5676,-7.5642,-7.4371,-7.3353,-7.3137,-7.3966,-7.4593,-7.4661,-7.527,-7.5676,-7.5676,-7.5676,-7.5676,-7.5676,-7.5676,-7.5709,-7.5695,-7.5687,-7.5725,-7.6144,-7.683,-7.7638,-7.7266,-7.7942,-7.8483,-7.8348,-7.8213,-7.8213,-7.828,-7.865,-7.8702,-7.8366,-7.8871,-7.9497,-7.9701,-8.0175,-8.0784,-8.1494,-8.2326,-8.3575,-8.5402,-8.6763,-8.8601,-9.0836,-9.1547,-9.1289,-9.0225,-9.1143,-9.2097,-4.9352,-4.8961,-4.9677,-5.0646,-5.1677,-5.256,-5.2861,-5.2861,-5.2861,-5.2861,-5.2861,-5.2861,-5.2861,-5.2904,-5.2628,-5.2352,-5.2101,-5.18,-5.1523,-5.1272,-5.0946,-5.2156,-5.4367,-5.5017,-5.6463,-5.8631,-5.9585,-6.045,-6.1317,-6.1164,-6.1134,-6.1433,-6.1164,-6.1194,-6.1553,-6.1912,-6.2421,-6.3107,-6.3137,-6.3137,-6.3137,-6.3137,-6.3137,-6.3049,-6.275,-6.263,-6.263,-6.2331,-6.2331,-6.26,-6.263,-6.278,-6.3049,-6.3408,-6.3857,-6.4515,-6.612,-6.77,-6.9081,-7.1621,-7.4305,-7.7104,-7.669,-7.6251,-7.6251,-7.5912,-7.5676,-7.5676,-7.5033,-7.4262,-7.3319,-7.4047,-7.4593,-7.4593,-7.527,-7.5676,-7.5676,-7.5676,-7.5676,-7.5676,-7.5676,-7.5676,-7.5676,-7.5681,-7.5315,-7.4795,-7.5276,-7.554,-7.5676,-7.5946,-7.6318,-7.6657,-7.7096,-7.7164,-7.6893,-7.7382,-7.7517,-7.6883,-7.7371,-7.801,-7.8416,-7.8855,-7.9431,-8.0445,-8.1021,-8.1918,-8.3693,-8.5364,-8.7287,-8.9112,-9.0261,-9.0008,-8.9675,-9.0078,-9.0739,-4.9818,-5.2119,-5.1093,-5.1513,-5.2861,-5.2861,-5.2861,-5.2861,-5.2861,-5.2861,-5.2929,-5.2804,-5.2754,-5.2703,-5.2277,-5.1975,-5.1724,-5.1423,-5.1147,-5.087,-5.0444,-5.1918,-5.4721,-5.458,-5.6363,-5.9662,-5.9428,-5.9787,-6.0894,-6.0416,-6.0086,-6.0086,-6.0236,-6.0595,-6.1134,-6.1762,-6.2421,-6.3019,-6.3137,-6.3137,-6.3137,-6.3137,-6.3137,-6.3137,-6.3137,-6.3137,-6.3137,-6.3137,-6.3137,-6.3137,-6.3137,-6.3139,-6.3288,-6.3589,-6.4217,-6.5263,-6.7188,-6.8862,-7.0217,-7.2567,-7.4772,-7.6425,-7.6048,-7.5676,-7.5676,-7.5676,-7.5676,-7.5676,-7.5649,-7.5174,-7.4296,-7.4296,-7.4593,-7.4661,-7.527,-7.5676,-7.5676,-7.5676,-7.5676,-7.5676,-7.5676,-7.5676,-7.5676,-7.5676,-7.5222,-7.4182,-7.362,-7.3747,-7.4255,-7.4458,-7.4864,-7.5405,-7.6115,-7.6386,-7.5845,-7.5966,-7.6121,-7.5638,-7.6376,-7.6898,-7.7367,-7.757,-7.8077,-7.916,-7.9566,-8.0272,-8.1576,-8.3729,-8.5875,-8.7741,-8.8898,-8.9419,-8.916,-8.872,-8.9234,-5.158,-5.06,-5.1956,-5.2698,-5.2861,-5.2861,-5.2861,-5.2861,-5.2861,-5.2861,-5.2854,-5.2402,-5.2201,-5.2176,-5.2151,-5.1599,-5.072,-5.1071,-5.0745,-4.9866,-4.969,-5.1346,-5.4286,-5.4414,-5.6363,-5.9577,-5.9344,-5.9757,-6.0894,-6.0356,-6.0057,-6.0146,-6.0715,-6.1044,-6.1194,-6.1792,-6.2421,-6.3107,-6.3137,-6.3137,-6.3137,-6.3137,-6.3137,-6.3137,-6.3137,-6.3137,-6.3137,-6.3137,-6.3137,-6.3137,-6.3137,-6.3348,-6.3797,-6.3444,-6.401,-6.5832,-6.7641,-6.9856,-7.2868,-7.4638,-7.5566,-7.5777,-7.5777,-7.5676,-7.5676,-7.5676,-7.5676,-7.5723,-7.5683,-7.5607,-7.5459,-7.4992,-7.4695,-7.4728,-7.5303,-7.5676,-7.5676,-7.5676,-7.5676,-7.5676,-7.5676,-7.5676,-7.5676,-7.5676,-7.5371,-7.4411,-7.3768,-7.351,-7.3713,-7.4255,-7.4661,-7.4864,-7.5371,-7.5777,-7.5608,-7.4579,-7.4815,-7.5479,-7.5729,-7.6014,-7.6251,-7.6623,-7.713,-7.7468,-7.7807,-7.8623,-7.9981,-8.2076,-8.4474,-8.6377,-8.7848,-8.9014,-8.8353,-8.7252,-8.7288,-5.2456,-5.1816,-5.256,-5.2861,-5.2861,-5.2861,-5.2861,-5.2861,-5.2861,-5.2754,-5.2402,-5.2085,-5.2186,-5.2553,-5.2251,-5.1674,-5.0946,-5.082,-5.0368,-4.964,-4.959,-5.079,-5.2883,-5.3969,-5.5729,-5.8044,-5.8753,-5.9398,-5.9787,-5.9638,-5.9697,-6.0116,-6.0775,-6.1313,-6.1702,-6.2331,-6.281,-6.3137,-6.3137,-6.3137,-6.3137,-6.3137,-6.3137,-6.3137,-6.3137,-6.3137,-6.3137,-6.3137,-6.3137,-6.3137,-6.3137,-6.3348,-6.3977,-6.4128,-6.514,-6.7225,-6.9991,-7.2496,-7.4736,-7.5354,-7.5676,-7.5676,-7.5676,-7.5676,-7.5676,-7.5676,-7.5676,-7.5676,-7.5655,-7.5669,-7.5669,-7.5419,-7.527,-7.5303,-7.554,-7.5709,-7.5676,-7.5709,-7.5676,-7.5676,-7.5676,-7.5676,-7.5676,-7.5703,-7.5195,-7.4268,-7.3646,-7.351,-7.3544,-7.4119,-7.4762,-7.5168,-7.554,-7.5655,-7.5635,-7.529,-7.5141,-7.5486,-7.5655,-7.5676,-7.5743,-7.5879,-7.6183,-7.6149,-7.642,-7.697,-7.7829,-8.0002,-8.2333,-8.4436,-8.5664,-8.6444,-8.6114,-8.5563,-8.5857,-5.2903,-5.2911,-5.2861,-5.2861,-5.2861,-5.2861,-5.2861,-5.2836,-5.2779,-5.2477,-5.2076,-5.1875,-5.2127,-5.2553,-5.2219,-5.1766,-5.1272,-5.0845,-5.0343,-4.9866,-4.9816,-5.0843,-5.2666,-5.3954,-5.5697,-5.7476,-5.8669,-5.9219,-5.9368,-5.9608,-5.9907,-6.0416,-6.1044,-6.1613,-6.2121,-6.275,-6.3137,-6.3137,-6.3137,-6.3137,-6.3137,-6.3137,-6.3137,-6.3137,-6.3137,-6.3137,-6.3137,-6.3137,-6.3137,-6.3137,-6.3137,-6.3438,-6.4246,-6.4814,-6.648,-6.9233,-7.2055,-7.4206,-7.558,-7.5676,-7.5676,-7.5676,-7.5676,-7.5676,-7.5676,-7.5676,-7.5676,-7.5676,-7.5676,-7.5676,-7.5676,-7.5676,-7.5676,-7.5709,-7.5845,-7.598,-7.5743,-7.5845,-7.598,-7.5743,-7.5676,-7.5676,-7.5676,-7.5649,-7.5221,-7.4166,-7.3646,-7.3612,-7.3781,-7.4289,-7.4864,-7.554,-7.5676,-7.5689,-7.5683,-7.5588,-7.5703,-7.5669,-7.5689,-7.5608,-7.5506,-7.5405,-7.5168,-7.5067,-7.51,-7.5714,-7.6919,-7.8691,-8.0816,-8.2696,-8.3847,-8.4132,-8.4058,-8.4058,-8.4352,-5.2903,-5.2886,-5.2861,-5.2861,-5.2861,-5.2861,-5.2861,-5.2904,-5.2402,-5.2151,-5.2026,-5.1875,-5.1926,-5.2076,-5.1926,-5.1648,-5.1389,-5.1222,-5.087,-5.0368,-5.0383,-5.1788,-5.4231,-5.4939,-5.6817,-5.924,-5.915,-5.9458,-6.0057,-6.0655,-6.1044,-6.1104,-6.1702,-6.2032,-6.2241,-6.278,-6.3137,-6.3137,-6.3137,-6.3137,-6.3137,-6.3137,-6.3137,-6.3137,-6.3137,-6.3137,-6.3137,-6.3137,-6.3137,-6.3137,-6.3137,-6.3647,-6.4814,-6.5472,-6.7873,-7.1922,-7.3175,-7.4256,-7.5484,-7.5676,-7.5676,-7.5676,-7.5676,-7.5676,-7.5676,-7.5676,-7.5676,-7.5676,-7.5676,-7.5676,-7.5676,-7.5676,-7.5676,-7.5743,-7.6352,-7.6352,-7.5845,-7.6284,-7.642,-7.5946,-7.5743,-7.5709,-7.5676,-7.5683,-7.5344,-7.4606,-7.395,-7.3781,-7.4322,-7.4593,-7.4999,-7.5473,-7.5676,-7.5676,-7.5676,-7.5676,-7.5676,-7.5689,-7.5655,-7.554,-7.5033,-7.4593,-7.4322,-7.3984,-7.3984,-7.4662,-7.6079,-7.7996,-8.0281,-8.1889,-8.2527,-8.2737,-8.2663,-8.3104,-8.3434,-5.2854,-5.2861,-5.2861,-5.2861,-5.2861,-5.2861,-5.2861,-5.2904,-5.2729,-5.2226,-5.1624,-5.149,-5.1289,-5.1046,-5.2108,-5.2269,-5.1774,-5.1448,-5.0971,-5.055,-5.1088,-5.2135,-5.3536,-5.5277,-5.688,-5.8399,-5.8944,-5.9797,-6.0976,-6.116,-6.1343,-6.1732,-6.1972,-6.2301,-6.269,-6.2959,-6.3137,-6.3137,-6.3137,-6.3137,-6.3137,-6.3137,-6.3137,-6.3137,-6.3137,-6.3137,-6.3137,-6.3137,-6.3137,-6.3137,-6.3137,-6.3468,-6.4482,-6.7152,-7.0044,-7.2972,-7.4339,-7.5161,-7.558,-7.5676,-7.5676,-7.5676,-7.5676,-7.5676,-7.5676,-7.5676,-7.5676,-7.5676,-7.5676,-7.5676,-7.5676,-7.5676,-7.5676,-7.5743,-7.5946,-7.6318,-7.6352,-7.6284,-7.6183,-7.6318,-7.6048,-7.5676,-7.5709,-7.5689,-7.5385,-7.4796,-7.4762,-7.483,-7.4695,-7.4999,-7.5405,-7.5574,-7.5676,-7.5676,-7.5676,-7.5676,-7.5676,-7.5676,-7.5676,-7.5642,-7.5303,-7.5168,-7.4931,-7.4322,-7.3883,-7.4105,-7.5734,-7.8114,-8.0226,-8.0961,-8.1562,-8.1782,-8.1525,-8.226,-8.27,-5.2861,-5.2861,-5.2861,-5.2861,-5.2861,-5.2861,-5.2861,-5.2879,-5.2553,-5.1975,-5.1322,-5.0955,-5.0729,-5.082,-5.1883,-5.2439,-5.2277,-5.18,-5.1322,-5.1078,-5.2256,-5.3253,-5.4294,-5.6488,-5.8031,-5.8837,-5.9688,-6.0693,-6.1579,-6.1759,-6.1972,-6.2391,-6.2421,-6.263,-6.3077,-6.3137,-6.3137,-6.3137,-6.3137,-6.3137,-6.3137,-6.3137,-6.3137,-6.3137,-6.3137,-6.3137,-6.3137,-6.3137,-6.3169,-6.3348,-6.3378,-6.3704,-6.4825,-6.8901,-7.1981,-7.3335,-7.4817,-7.5676,-7.5676,-7.5676,-7.5676,-7.5676,-7.5676,-7.5676,-7.5676,-7.5676,-7.5676,-7.5676,-7.5676,-7.5676,-7.5676,-7.5676,-7.5811,-7.6048,-7.6284,-7.6521,-7.6826,-7.642,-7.6284,-7.6318,-7.6014,-7.5845,-7.6048,-7.6299,-7.6231,-7.5743,-7.598,-7.5845,-7.5574,-7.5473,-7.5676,-7.5676,-7.5676,-7.5695,-7.5695,-7.5729,-7.5743,-7.5709,-7.5676,-7.5676,-7.5642,-7.5574,-7.5303,-7.4695,-7.449,-7.4532,-7.5833,-7.8264,-7.9532,-8.0268,-8.0828,-8.12,-8.1305,-8.1599,-8.226,-5.2861,-5.2861,-5.2861,-5.2861,-5.2861,-5.2861,-5.2861,-5.2779,-5.19,-5.1548,-5.1322,-5.0265,-5.0456,-5.113,-5.154,-5.1997,-5.2535,-5.2302,-5.2161,-5.2304,-5.3779,-5.5195,-5.636,-5.836,-5.9829,-6.0764,-6.1646,-6.1885,-6.1885,-6.254,-6.2929,-6.3019,-6.3047,-6.3047,-6.3137,-6.3137,-6.3137,-6.3137,-6.3137,-6.3137,-6.3137,-6.3137,-6.3137,-6.3137,-6.3137,-6.3137,-6.3137,-6.3137,-6.3348,-6.3857,-6.4034,-6.4591,-6.6534,-7.062,-7.3284,-7.3373,-7.4716,-7.558,-7.5676,-7.5676,-7.5676,-7.5676,-7.5676,-7.5676,-7.5676,-7.5676,-7.5709,-7.5662,-7.5777,-7.5811,-7.5879,-7.6014,-7.6183,-7.6758,-7.7096,-7.7232,-7.6995,-7.6927,-7.6623,-7.6048,-7.5763,-7.6082,-7.6806,-7.7513,-7.7832,-7.7551,-7.7198,-7.686,-7.669,-7.6352,-7.5879,-7.5777,-7.6014,-7.6203,-7.5986,-7.5735,-7.5763,-7.5743,-7.5709,-7.5676,-7.5574,-7.5506,-7.5337,-7.4843,-7.5183,-7.5293,-7.6411,-7.8567,-7.9184,-7.9842,-8.0282,-8.0723,-8.0906,-8.1305,-8.2223,-5.2861,-5.2861,-5.2861,-5.2861,-5.2861,-5.2861,-5.2861,-5.2836,-5.2528,-5.2201,-5.1757,-5.1088,-5.1005,-5.1423,-5.1993,-5.2345,-5.2377,-5.2528,-5.3038,-5.3974,-5.5139,-5.6713,-5.8557,-5.9975,-6.0746,-6.1197,-6.1792,-6.2325,-6.2652,-6.2984,-6.3137,-6.3137,-6.3137,-6.3137,-6.3137,-6.3137,-6.3137,-6.3137,-6.3137,-6.3137,-6.3137,-6.3137,-6.3137,-6.3137,-6.3137,-6.3137,-6.3137,-6.3137,-6.3378,-6.3977,-6.4957,-6.6979,-7.0062,-7.1989,-7.3459,-7.4683,-7.5287,-7.5676,-7.5676,-7.5676,-7.5676,-7.5676,-7.5676,-7.5676,-7.5676,-7.5676,-7.5695,-7.5769,-7.6188,-7.669,-7.7232,-7.7773,-7.7435,-7.6217,-7.6284,-7.6724,-7.6927,-7.7299,-7.7266,-7.6608,-7.6043,-7.6313,-7.7502,-7.8594,-7.8982,-7.8228,-7.7841,-7.7638,-7.757,-7.7367,-7.7029,-7.669,-7.6893,-7.6845,-7.6511,-7.6478,-7.6594,-7.6439,-7.6236,-7.5845,-7.5676,-7.5676,-7.5473,-7.5593,-7.5878,-7.6549,-7.7655,-7.8557,-7.9365,-7.9622,-8.0099,-8.0356,-8.0466,-8.1089,-8.2003,-5.2861,-5.2861,-5.2861,-5.2861,-5.2861,-5.2861,-5.2861,-5.2879,-5.2703,-5.2427,-5.2033,-5.1537,-5.143,-5.1749,-5.2505,-5.2732,-5.2521,-5.3343,-5.4559,-5.5773,-5.6503,-5.802,-5.9994,-6.1315,-6.1852,-6.1912,-6.2271,-6.2685,-6.3069,-6.3104,-6.3137,-6.3137,-6.3137,-6.3137,-6.3137,-6.3137,-6.3137,-6.3137,-6.3137,-6.3137,-6.3137,-6.3137,-6.3137,-6.3137,-6.3137,-6.3137,-6.3137,-6.3137,-6.3498,-6.4656,-6.6689,-6.9627,-7.2408,-7.3343,-7.4366,-7.5349,-7.5676,-7.5676,-7.5676,-7.5676,-7.5676,-7.5676,-7.5676,-7.5676,-7.5676,-7.5676,-7.5681,-7.5773,-7.6376,-7.7416,-7.853,-7.8567,-7.7976,-7.6758,-7.6657,-7.6657,-7.6995,-7.7299,-7.7536,-7.7183,-7.6868,-7.7239,-7.828,-7.934,-7.988,-7.8988,-7.8585,-7.8416,-7.8348,-7.8145,-7.7739,-7.7502,-7.7536,-7.742,-7.707,-7.722,-7.7506,-7.7318,-7.6932,-7.6338,-7.5912,-7.6197,-7.6163,-7.6633,-7.7007,-7.7677,-7.8745,-7.9556,-8.0277,-8.0209,-7.9952,-8.0172,-8.0392,-8.0938,-8.1819,-5.2886,-5.2861,-5.2861,-5.2861,-5.2861,-5.2861,-5.2861,-5.2785,-5.2452,-5.2251,-5.2083,-5.1754,-5.1729,-5.2184,-5.2678,-5.2991,-5.3291,-5.4515,-5.6245,-5.7605,-5.8279,-5.9177,-6.0874,-6.2289,-6.281,-6.2897,-6.3017,-6.3077,-6.3104,-6.3107,-6.3137,-6.3137,-6.3137,-6.3137,-6.3137,-6.3137,-6.3137,-6.3137,-6.3137,-6.3137,-6.3137,-6.3137,-6.3137,-6.3137,-6.3137,-6.3137,-6.3137,-6.3547,-6.4146,-6.5642,-6.9057,-7.1542,-7.3087,-7.4731,-7.5546,-7.5709,-7.5743,-7.5845,-7.5811,-7.6048,-7.598,-7.5912,-7.5879,-7.5777,-7.5879,-7.5811,-7.5667,-7.5744,-7.6545,-7.7886,-7.9254,-7.9155,-7.833,-7.8077,-7.7773,-7.7536,-7.7063,-7.713,-7.757,-7.7976,-7.8077,-7.8348,-7.9092,-7.9817,-8.0055,-7.9954,-7.9498,-7.9228,-7.9092,-7.8788,-7.828,-7.8179,-7.8314,-7.8197,-7.7963,-7.8317,-7.8535,-7.8046,-7.7742,-7.7284,-7.651,-7.6605,-7.7388,-7.7815,-7.8188,-7.8885,-7.9576,-8.0333,-8.0319,-7.981,-7.981,-8.0062,-8.0466,-8.0979,-8.1672,-5.2869,-5.2861,-5.2861,-5.2861,-5.2861,-5.2861,-5.2861,-5.2836,-5.2779,-5.2678,-5.261,-5.2585,-5.2491,-5.2729,-5.2829,-5.3563,-5.4541,-5.5247,-5.7122,-5.9475,-5.9872,-6.081,-6.2175,-6.2817,-6.3104,-6.3099,-6.3104,-6.3104,-6.3096,-6.3104,-6.3137,-6.3137,-6.3137,-6.3137,-6.3137,-6.3137,-6.3137,-6.3137,-6.3137,-6.3137,-6.3137,-6.3137,-6.3137,-6.3137,-6.3137,-6.3137,-6.3342,-6.5128,-6.6834,-6.8233,-7.0131,-7.2534,-7.4569,-7.5369,-7.5676,-7.5777,-7.64,-7.6705,-7.669,-7.7029,-7.7096,-7.6657,-7.6521,-7.6589,-7.6555,-7.6048,-7.574,-7.5934,-7.6905,-7.8364,-7.9734,-7.9785,-7.9363,-7.8822,-7.845,-7.801,-7.7841,-7.8213,-7.8619,-7.8822,-7.9261,-7.96,-7.9803,-8.0022,-8.0191,-8.0141,-8.0006,-7.9837,-7.9667,-7.9634,-7.9194,-7.9126,-7.916,-7.9042,-7.9076,-7.9381,-7.9381,-7.8857,-7.8671,-7.8551,-7.7686,-7.7042,-7.8232,-7.9341,-7.9345,-7.9894,-8.0326,-8.0874,-8.025,-7.9888,-8.014,-8.0612,-8.0585,-8.0882,-8.1677,-5.2934,-5.2861,-5.2861,-5.2861,-5.2861,-5.2861,-5.2861,-5.2861,-5.2861,-5.2861,-5.2861,-5.2861,-5.2861,-5.2861,-5.2929,-5.3784,-5.5287,-5.618,-5.804,-6.0176,-6.1258,-6.2145,-6.2933,-6.3137,-6.3104,-6.3129,-6.3134,-6.3104,-6.3129,-6.3134,-6.3137,-6.3137,-6.3137,-6.3137,-6.3137,-6.3137,-6.3137,-6.3137,-6.3137,-6.3137,-6.3137,-6.3137,-6.3137,-6.3137,-6.3137,-6.3369,-6.4532,-6.6483,-6.8311,-6.9787,-7.1443,-7.3379,-7.5354,-7.5676,-7.5676,-7.5743,-7.6637,-7.7077,-7.7063,-7.757,-7.7773,-7.7367,-7.713,-7.7096,-7.713,-7.6657,-7.6144,-7.5855,-7.7444,-7.8873,-7.987,-8.0209,-8.0006,-7.96,-7.9194,-7.8788,-7.8517,-7.8822,-7.9228,-7.9566,-7.9904,-8.0209,-8.0209,-8.0209,-8.0209,-8.0209,-8.0175,-8.0141,-8.0141,-8.0175,-8.0141,-7.987,-7.9735,-7.9583,-7.955,-7.9837,-7.9904,-7.9482,-7.9144,-7.916,-7.8638,-7.7799,-7.8656,-7.9807,-8.0249,-8.0731,-8.1099,-8.1415,-8.131,-8.1163,-8.1195,-8.1163,-8.1208,-8.1432,-8.2154,-5.2911,-5.2861,-5.2861,-5.2861,-5.2861,-5.2861,-5.2861,-5.2861,-5.2861,-5.2861,-5.2861,-5.2861,-5.2861,-5.2929,-5.3673,-5.4402,-5.588,-5.7533,-5.9166,-6.0959,-6.2175,-6.3021,-6.3079,-6.3137,-6.3137,-6.3107,-6.3137,-6.3137,-6.3107,-6.3137,-6.3137,-6.3137,-6.3137,-6.3137,-6.3137,-6.3137,-6.3137,-6.3137,-6.3137,-6.3137,-6.3137,-6.3137,-6.3137,-6.3079,-6.3258,-6.4395,-6.6057,-6.7803,-6.9241,-7.0717,-7.2606,-7.4156,-7.5504,-7.5811,-7.5912,-7.6183,-7.6893,-7.7333,-7.7333,-7.801,-7.8247,-7.8077,-7.7536,-7.7401,-7.7807,-7.7435,-7.6901,-7.6759,-7.8017,-7.9245,-8.0006,-8.0209,-8.0175,-8.004,-8.0073,-7.9837,-7.9431,-7.9228,-7.9464,-8.0073,-8.0209,-8.0209,-8.0209,-8.0209,-8.0209,-8.0209,-8.0209,-8.0209,-8.0209,-8.0175,-8.0175,-8.0107,-8.0107,-8.0141,-8.0141,-8.0141,-8.0141,-7.9972,-7.9634,-7.9447,-7.9288,-7.8897,-7.9278,-7.9898,-8.05,-8.1163,-8.1809,-8.2003,-8.2076,-8.2076,-8.1856,-8.2003,-8.226,-8.2594,-8.3141,-5.2919,-5.2861,-5.2861,-5.2861,-5.2861,-5.2861,-5.2861,-5.2861,-5.2861,-5.2861,-5.2861,-5.2861,-5.2861,-5.3023,-5.5289,-5.7177,-5.746,-5.9104,-6.087,-6.2438,-6.2817,-6.3079,-6.3137,-6.3137,-6.3137,-6.3137,-6.3137,-6.3137,-6.3137,-6.3137,-6.3137,-6.3137,-6.3137,-6.3137,-6.3137,-6.3137,-6.3137,-6.3137,-6.3137,-6.3137,-6.3079,-6.3139,-6.3169,-6.3228,-6.3704,-6.5298,-6.7497,-6.9194,-7.0856,-7.2502,-7.35,-7.4739,-7.6028,-7.6072,-7.6309,-7.7183,-7.7641,-7.8065,-7.8569,-7.9126,-7.9431,-7.8889,-7.8653,-7.8686,-7.8754,-7.8179,-7.8299,-7.8807,-7.9245,-7.9532,-8.0073,-8.0209,-8.0209,-8.0209,-8.0209,-8.0141,-7.9972,-7.9938,-8.0006,-8.0141,-8.0209,-8.0209,-8.0209,-8.0209,-8.0209,-8.0209,-8.0209,-8.0209,-8.0209,-8.0209,-8.0209,-8.0209,-8.0209,-8.0209,-8.0209,-8.0209,-8.0209,-8.0209,-7.9938,-8.005,-7.9888,-7.963,-7.988,-8.0268,-8.0797,-8.152,-8.2378,-8.2333,-8.2333,-8.237,-8.259,-8.321,-8.3684,-8.3871,-8.3801,-5.2903,-5.2886,-5.2861,-5.2861,-5.2861,-5.2861,-5.2861,-5.2861,-5.2861,-5.2861,-5.2861,-5.2861,-5.2861,-5.3161,-5.58,-5.7407,-5.8557,-6.0629,-6.2175,-6.2963,-6.3079,-6.3137,-6.3137,-6.3137,-6.3137,-6.3137,-6.3137,-6.3137,-6.3137,-6.3137,-6.3137,-6.3137,-6.3137,-6.3137,-6.3137,-6.3137,-6.3137,-6.3137,-6.3137,-6.3137,-6.3079,-6.3378,-6.3737,-6.427,-6.5276,-6.7073,-6.9146,-7.1006,-7.2728,-7.4173,-7.4955,-7.5621,-7.6665,-7.683,-7.7236,-7.7825,-7.8754,-7.8907,-7.9295,-7.9735,-8.0006,-7.9634,-7.9329,-7.9363,-7.9363,-7.8957,-7.9058,-7.9803,-7.9904,-7.9837,-8.0141,-8.0209,-8.0209,-8.0209,-8.0209,-8.0209,-8.0209,-8.0209,-8.0209,-8.0209,-8.0209,-8.0209,-8.0209,-8.0209,-8.0209,-8.0209,-8.0209,-8.0209,-8.0209,-8.0209,-8.0209,-8.0209,-8.0209,-8.0209,-8.0209,-8.0209,-8.0209,-8.0209,-8.0141,-8.0535,-8.0913,-8.0594,-8.0228,-8.0952,-8.1701,-8.2206,-8.2854,-8.2704,-8.2594,-8.2524,-8.3034,-8.4202,-8.504,-8.5117,-8.4789,-5.2903,-5.2861,-5.2861,-5.2861,-5.2861,-5.2861,-5.2861,-5.2861,-5.2861,-5.2861,-5.2861,-5.2861,-5.2861,-5.3503,-5.5882,-5.7476,-5.9403,-6.1287,-6.3021,-6.3079,-6.3137,-6.3137,-6.3137,-6.3137,-6.3137,-6.3137,-6.3137,-6.3137,-6.3137,-6.3137,-6.3137,-6.3137,-6.3137,-6.3137,-6.3137,-6.3137,-6.3137,-6.3137,-6.3137,-6.3139,-6.3258,-6.3707,-6.4306,-6.5291,-6.6797,-6.8595,-7.0435,-7.2424,-7.4355,-7.5817,-7.6758,-7.713,-7.7367,-7.7589,-7.8213,-7.8314,-7.9463,-7.9734,-7.9532,-7.987,-8.0209,-8.0276,-7.987,-7.9904,-8.0242,-8.0175,-8.0023,-7.9972,-8.0107,-8.009,-8.0209,-8.0209,-8.0209,-8.0209,-8.0209,-8.0209,-8.0209,-8.0209,-8.0209,-8.0209,-8.0209,-8.0209,-8.0209,-8.0209,-8.0209,-8.0209,-8.0209,-8.0209,-8.0209,-8.0209,-8.0209,-8.0209,-8.0209,-8.0209,-8.0209,-8.0209,-8.0209,-8.0276,-8.0276,-8.0917,-8.1723,-8.2278,-8.2198,-8.2232,-8.2784,-8.3043,-8.3228,-8.3254,-8.3071,-8.2821,-8.3625,-8.501,-8.5741,-8.6253,-8.5817,-5.2903,-5.2861,-5.2861,-5.2861,-5.2861,-5.2861,-5.2861,-5.2861,-5.2861,-5.2861,-5.2861,-5.2861,-5.2861,-5.387,-5.7396,-6.0109,-6.1613,-6.2817,-6.3137,-6.3137,-6.3137,-6.3137,-6.3137,-6.3137,-6.3137,-6.3137,-6.3137,-6.3137,-6.3137,-6.3137,-6.3137,-6.3137,-6.3137,-6.3137,-6.3137,-6.3137,-6.3109,-6.3199,-6.3199,-6.32,-6.3383,-6.4008,-6.4904,-6.5892,-6.7464,-6.9196,-7.1228,-7.3318,-7.5187,-7.6646,-7.7961,-7.8551,-7.8535,-7.8267,-7.8722,-7.9498,-7.9954,-8.009,-7.9972,-8.0107,-8.0547,-8.0885,-8.0919,-8.1224,-8.1697,-8.1765,-8.1155,-8.0562,-8.036,-8.0259,-8.0209,-8.031,-8.0209,-8.0209,-8.0209,-8.0209,-8.0209,-8.0276,-8.0242,-8.0209,-8.0209,-8.0209,-8.0209,-8.0209,-8.0209,-8.0209,-8.0209,-8.0209,-8.0209,-8.0209,-8.0209,-8.0209,-8.0209,-8.0209,-8.0209,-8.0209,-8.0259,-8.0426,-8.0641,-8.1222,-8.2209,-8.3845,-8.4306,-8.381,-8.3328,-8.3118,-8.332,-8.3661,-8.3768,-8.3698,-8.4722,-8.5891,-8.6292,-8.666,-8.6735,-5.2872,-5.2886,-5.2861,-5.2861,-5.2861,-5.2861,-5.2861,-5.2861,-5.2861,-5.2861,-5.2861,-5.2861,-5.2861,-5.3954,-5.6969,-6.0312,-6.2527,-6.3137,-6.3137,-6.3137,-6.3137,-6.3137,-6.3137,-6.3137,-6.3137,-6.3137,-6.3137,-6.3137,-6.3137,-6.3137,-6.3137,-6.3137,-6.3137,-6.3137,-6.3137,-6.3137,-6.3288,-6.3438,-6.3558,-6.362,-6.3832,-6.4665,-6.5592,-6.6613,-6.7954,-6.9603,-7.142,-7.3494,-7.5353,-7.6803,-7.8314,-7.8957,-7.9076,-7.9245,-7.9432,-8.0073,-8.0242,-8.0209,-8.031,-8.0479,-8.0953,-8.1224,-8.1629,-8.2002,-8.2272,-8.222,-8.2101,-8.1592,-8.1322,-8.1155,-8.0851,-8.075,-8.0581,-8.0276,-8.0209,-8.0242,-8.031,-8.0547,-8.0513,-8.0378,-8.0242,-8.0242,-8.0209,-8.0209,-8.0209,-8.0209,-8.0209,-8.0242,-8.0242,-8.0209,-8.0209,-8.0209,-8.0209,-8.0209,-8.0209,-8.0209,-8.0209,-8.0426,-8.0819,-8.1427,-8.229,-8.3713,-8.4545,-8.4691,-8.4134,-8.3659,-8.3829,-8.4315,-8.4428,-8.4685,-8.5637,-8.6407,-8.6772,-8.6993,-8.7105,-5.2902,-5.2861,-5.2861,-5.2861,-5.2861,-5.2861,-5.2861,-5.2861,-5.2861,-5.2861,-5.2861,-5.2861,-5.2861,-5.381,-5.6493,-5.9839,-6.2933,-6.3137,-6.3137,-6.3137,-6.3137,-6.3137,-6.3137,-6.3137,-6.3137,-6.3137,-6.3137,-6.3137,-6.3137,-6.3137,-6.3137,-6.3137,-6.3137,-6.3169,-6.3258,-6.3348,-6.3647,-6.4036,-6.4216,-6.4337,-6.4815,-6.5562,-6.628,-6.7122,-6.8535,-7.0135,-7.174,-7.4049,-7.5918,-7.7378,-7.8585,-7.9363,-7.9431,-7.9854,-8.0226,-8.0412,-8.0564,-8.0598,-8.0615,-8.1122,-8.1629,-8.1968,-8.234,-8.2644,-8.2915,-8.3084,-8.2829,-8.2678,-8.2798,-8.2493,-8.1884,-8.1444,-8.1122,-8.0885,-8.0648,-8.0547,-8.0885,-8.1088,-8.1088,-8.0851,-8.0429,-8.0243,-8.031,-8.0276,-8.031,-8.0564,-8.0598,-8.0513,-8.0513,-8.0242,-8.0209,-8.0209,-8.0209,-8.0209,-8.0209,-8.0209,-8.0209,-8.0276,-8.0819,-8.1474,-8.229,-8.3285,-8.4064,-8.4917,-8.5118,-8.4662,-8.4832,-8.4976,-8.5162,-8.5639,-8.641,-8.6848,-8.6958,-8.7252,-8.7509,-5.2907,-5.2861,-5.2861,-5.2861,-5.2861,-5.2861,-5.2861,-5.2861,-5.2861,-5.2861,-5.2861,-5.2929,-5.2929,-5.4013,-5.6558,-5.99,-6.2233,-6.3137,-6.3137,-6.3137,-6.3137,-6.3137,-6.3137,-6.3137,-6.3137,-6.3137,-6.3137,-6.3137,-6.3109,-6.3109,-6.3079,-6.3079,-6.3258,-6.3318,-6.3737,-6.3857,-6.4246,-6.4814,-6.4905,-6.5203,-6.5831,-6.655,-6.6939,-6.7607,-6.8995,-7.0824,-7.2476,-7.4832,-7.6997,-7.8555,-7.9532,-8.0006,-8.0057,-8.0124,-8.058,-8.1122,-8.1648,-8.1868,-8.1444,-8.1832,-8.2475,-8.2847,-8.3253,-8.3693,-8.393,-8.4065,-8.3809,-8.3201,-8.3764,-8.3801,-8.2936,-8.1985,-8.1782,-8.1629,-8.146,-8.1562,-8.1832,-8.1934,-8.1866,-8.1391,-8.1036,-8.0647,-8.0461,-8.0427,-8.0444,-8.0732,-8.0918,-8.0834,-8.0648,-8.0344,-8.0209,-8.0209,-8.0412,-8.0445,-8.0496,-8.0429,-8.0682,-8.0547,-8.1073,-8.1707,-8.2464,-8.3375,-8.4134,-8.4856,-8.5223,-8.5749,-8.5967,-8.6077,-8.6114,-8.6371,-8.674,-8.6958,-8.6995,-8.7399,-8.7912,-5.2903,-5.2861,-5.2861,-5.2861,-5.2861,-5.2861,-5.2861,-5.2861,-5.2861,-5.2861,-5.2861,-5.2929,-5.3878,-5.5709,-5.756,-5.99,-6.2497,-6.3137,-6.3137,-6.3137,-6.3137,-6.3137,-6.3137,-6.3137,-6.3137,-6.3137,-6.3137,-6.3137,-6.3169,-6.3378,-6.3468,-6.3228,-6.3737,-6.4066,-6.4306,-6.4425,-6.5203,-6.5801,-6.6186,-6.6483,-6.7147,-6.7717,-6.8106,-6.823,-6.9913,-7.154,-7.3331,-7.544,-7.7547,-7.8893,-7.9803,-8.0412,-8.0564,-8.0529,-8.0647,-8.1934,-8.3003,-8.3055,-8.2256,-8.2678,-8.3118,-8.349,-8.3862,-8.4268,-8.4573,-8.4606,-8.4485,-8.4046,-8.4355,-8.4359,-8.3919,-8.3121,-8.2629,-8.2374,-8.2205,-8.2272,-8.2509,-8.2813,-8.278,-8.2184,-8.1675,-8.1387,-8.1439,-8.2018,-8.1695,-8.107,-8.1121,-8.1054,-8.0716,-8.0276,-8.0209,-8.0209,-8.0479,-8.0733,-8.0868,-8.0918,-8.1629,-8.1733,-8.1948,-8.2531,-8.2893,-8.363,-8.4505,-8.533,-8.5918,-8.6419,-8.6889,-8.6628,-8.6224,-8.6554,-8.6995,-8.7325,-8.769,-8.7839,-8.8353,-5.2861,-5.2861,-5.2861,-5.2861,-5.2861,-5.2861,-5.2861,-5.2861,-5.2861,-5.2861,-5.3067,-5.3427,-5.5195,-5.7487,-5.846,-6.0387,-6.3021,-6.3137,-6.3137,-6.3137,-6.3137,-6.3137,-6.3137,-6.3137,-6.3137,-6.3137,-6.3137,-6.3137,-6.3318,-6.3707,-6.3947,-6.3378,-6.4066,-6.4725,-6.4964,-6.5383,-6.6191,-6.7326,-6.707,-6.737,-6.8163,-6.9043,-6.9444,-6.9911,-7.0952,-7.241,-7.4356,-7.605,-7.7846,-7.9196,-7.987,-8.0513,-8.1021,-8.1274,-8.1628,-8.2678,-8.3764,-8.4001,-8.3475,-8.349,-8.3727,-8.3964,-8.4167,-8.4539,-8.4573,-8.4606,-8.4606,-8.4452,-8.4539,-8.4558,-8.4408,-8.3847,-8.3475,-8.3084,-8.2881,-8.2881,-8.2949,-8.3389,-8.349,-8.3032,-8.2623,-8.2551,-8.2825,-8.3783,-8.329,-8.1864,-8.1358,-8.1257,-8.0953,-8.0615,-8.0716,-8.0851,-8.119,-8.1409,-8.1477,-8.1747,-8.234,-8.2905,-8.3168,-8.3343,-8.3717,-8.4392,-8.5218,-8.595,-8.6684,-8.708,-8.7545,-8.6848,-8.6261,-8.6775,-8.7325,-8.8094,-8.8496,-8.8645,-8.9087,-5.2861,-5.2861,-5.2861,-5.2861,-5.2861,-5.2861,-5.2861,-5.2929,-5.2836,-5.2879,-5.3035,-5.4448,-5.5729,-5.748,-5.9338,-6.1139,-6.3079,-6.3137,-6.3137,-6.3137,-6.3137,-6.3137,-6.3137,-6.3137,-6.3137,-6.3079,-6.3169,-6.3199,-6.3378,-6.4306,-6.4366,-6.4126,-6.4635,-6.5443,-6.6161,-6.6789,-6.7448,-6.8283,-6.7902,-6.7961,-6.8974,-6.9926,-7.0734,-7.1198,-7.2047,-7.357,-7.6407,-7.7515,-7.8597,-8.0057,-8.0276,-8.0851,-8.1596,-8.2069,-8.2678,-8.3456,-8.4065,-8.4336,-8.4234,-8.4234,-8.4437,-8.4539,-8.4573,-8.4606,-8.4606,-8.4606,-8.4606,-8.4606,-8.4606,-8.4606,-8.437,-8.4065,-8.3896,-8.3828,-8.3693,-8.3693,-8.3795,-8.4065,-8.4099,-8.3761,-8.3573,-8.3433,-8.338,-8.4152,-8.4446,-8.3084,-8.1966,-8.1832,-8.1765,-8.1528,-8.1663,-8.1832,-8.2137,-8.2306,-8.222,-8.2696,-8.3394,-8.4095,-8.4516,-8.4516,-8.4565,-8.5323,-8.6563,-8.7042,-8.7815,-8.7994,-8.8059,-8.7619,-8.7325,-8.7252,-8.7655,-8.8572,-8.9379,-8.9783,-9.0335,-5.2891,-5.2929,-5.2861,-5.2861,-5.2861,-5.2861,-5.2861,-5.2879,-5.2578,-5.2427,-5.2563,-5.4155,-5.5945,-5.7862,-5.9611,-6.1437,-6.2933,-6.3137,-6.3137,-6.3137,-6.3137,-6.3137,-6.3137,-6.3137,-6.3137,-6.3139,-6.3378,-6.3765,-6.4034,-6.4695,-6.5144,-6.5233,-6.5562,-6.6131,-6.7029,-6.8106,-6.8854,-6.897,-6.9232,-6.959,-6.9568,-7.0457,-7.14,-7.2458,-7.3836,-7.5278,-7.7324,-7.8688,-7.9782,-8.0563,-8.0851,-8.1528,-8.2238,-8.2746,-8.3235,-8.3964,-8.4471,-8.4573,-8.4606,-8.4606,-8.4606,-8.4606,-8.4606,-8.4606,-8.4606,-8.4606,-8.4606,-8.4606,-8.4606,-8.4606,-8.4539,-8.437,-8.4336,-8.4437,-8.4471,-8.4403,-8.4437,-8.4573,-8.4573,-8.4133,-8.42,-8.4215,-8.4249,-8.4316,-8.4457,-8.4306,-8.3272,-8.2441,-8.2441,-8.2374,-8.2441,-8.2644,-8.2915,-8.2863,-8.2777,-8.3546,-8.4452,-8.5148,-8.5781,-8.5985,-8.6152,-8.7385,-8.8436,-8.8765,-8.8728,-8.8725,-8.8683,-8.8536,-8.8208,-8.7767,-8.8316,-8.9197,-8.9968,-9.0739,-9.1216,-5.243,-5.2427,-5.2427,-5.2628,-5.2904,-5.2861,-5.2829,-5.2653,-5.2477,-5.2607,-5.2992,-5.4798,-5.6632,-5.8603,-6.0511,-6.1821,-6.2875,-6.3137,-6.3137,-6.3137,-6.3137,-6.3137,-6.3137,-6.3137,-6.3137,-6.3199,-6.3438,-6.3825,-6.4213,-6.4934,-6.5622,-6.634,-6.7119,-6.7537,-6.8016,-6.9183,-6.9991,-6.9961,-7.026,-7.0889,-7.059,-7.188,-7.2887,-7.4268,-7.5528,-7.718,-7.8684,-7.9983,-8.0748,-8.1341,-8.1731,-8.2306,-8.2795,-8.3182,-8.3452,-8.4114,-8.4606,-8.4606,-8.4606,-8.4606,-8.4606,-8.4606,-8.4606,-8.4606,-8.4606,-8.4606,-8.4606,-8.4606,-8.4606,-8.4606,-8.4606,-8.4539,-8.4505,-8.4573,-8.4573,-8.4539,-8.4539,-8.4606,-8.4606,-8.4505,-8.4573,-8.4519,-8.4485,-8.4452,-8.4505,-8.4476,-8.3712,-8.3152,-8.3389,-8.3253,-8.305,-8.3287,-8.3625,-8.3418,-8.3264,-8.3949,-8.481,-8.6439,-8.7071,-8.7657,-8.8213,-8.9197,-8.9932,-9.0191,-9.0008,-8.9529,-8.9491,-8.9674,-8.8978,-8.8098,-8.9087,-9.0297,-9.0629,-9.1289,-9.1473,-5.1322,-5.1297,-5.1373,-5.195,-5.2779,-5.2904,-5.2578,-5.2201,-5.2503,-5.3282,-5.4459,-5.6549,-5.8277,-5.9841,-6.1674,-6.273,-6.2933,-6.3137,-6.3137,-6.3137,-6.3137,-6.3137,-6.3137,-6.3137,-6.3137,-6.3079,-6.3468,-6.3887,-6.4156,-6.5562,-6.637,-6.7178,-6.8076,-6.8854,-6.9064,-7.0231,-7.0829,-7.0889,-7.1009,-7.1188,-7.2059,-7.3527,-7.4624,-7.5937,-7.6685,-7.8092,-8.0181,-8.0933,-8.1629,-8.2238,-8.2374,-8.2847,-8.349,-8.3437,-8.3776,-8.4452,-8.4606,-8.4606,-8.4606,-8.4606,-8.4606,-8.4606,-8.4606,-8.4606,-8.4606,-8.4606,-8.4606,-8.4606,-8.4606,-8.4606,-8.4606,-8.4606,-8.4606,-8.4606,-8.4606,-8.4606,-8.4606,-8.4606,-8.4606,-8.4606,-8.4606,-8.4606,-8.4606,-8.4606,-8.4606,-8.437,-8.3862,-8.3828,-8.4065,-8.3998,-8.3727,-8.3795,-8.4133,-8.4046,-8.3925,-8.4249,-8.5221,-8.6968,-8.8147,-8.8596,-8.9153,-8.9781,-9.0521,-9.1253,-9.1069,-9.0408,-9.0665,-9.1033,-9.0042,-8.9345,-9.0444,-9.1435,-9.1693,-9.173,-9.1767,-5.0597,-5.1272,-5.1272,-5.1498,-5.1825,-5.1825,-5.1724,-5.1599,-5.1884,-5.2854,-5.4705,-5.665,-5.8587,-6.0341,-6.2056,-6.3137,-6.3137,-6.3137,-6.3137,-6.3137,-6.3137,-6.3137,-6.3137,-6.3137,-6.3166,-6.3348,-6.3737,-6.4306,-6.4755,-6.6281,-6.7178,-6.7926,-6.8974,-6.9782,-7.035,-7.1158,-7.1697,-7.193,-7.1625,-7.1446,-7.2517,-7.3571,-7.4936,-7.6582,-7.7137,-7.8771,-8.1272,-8.1799,-8.2374,-8.3016,-8.3118,-8.3456,-8.4031,-8.4046,-8.4215,-8.4606,-8.4606,-8.4606,-8.4606,-8.4606,-8.4606,-8.4606,-8.4606,-8.4606,-8.4606,-8.4606,-8.4606,-8.4606,-8.4606,-8.4606,-8.4606,-8.4606,-8.4606,-8.4606,-8.4606,-8.4606,-8.4606,-8.4606,-8.4606,-8.4606,-8.4606,-8.4606,-8.4606,-8.4606,-8.4606,-8.4606,-8.42,-8.4167,-8.437,-8.4437,-8.4302,-8.4336,-8.4471,-8.4539,-8.4606,-8.489,-8.4761,-8.5703,-8.7621,-8.9209,-8.9811,-9.0292,-9.0923,-9.162,-9.1473,-9.1289,-9.1179,-9.1069,-9.0886,-9.0886,-9.1473,-9.1803,-9.1766,-9.1767,-9.1767,-5.0022,-5.0695,-5.0695,-5.0695,-5.077,-5.1096,-5.1373,-5.1498,-5.1465,-5.2598,-5.489,-5.6732,-5.8587,-6.0543,-6.2175,-6.3137,-6.3137,-6.3137,-6.3137,-6.3137,-6.3137,-6.3137,-6.3137,-6.3166,-6.3258,-6.3558,-6.4186,-6.4844,-6.5772,-6.7208,-6.8286,-6.9123,-6.9812,-7.0739,-7.1368,-7.1936,-7.1996,-7.2139,-7.1864,-7.2073,-7.3214,-7.4574,-7.6148,-7.7344,-7.8462,-7.9935,-8.16,-8.2577,-8.3118,-8.3625,-8.3964,-8.4099,-8.4471,-8.4606,-8.4606,-8.4606,-8.4606,-8.4606,-8.4606,-8.4606,-8.4606,-8.4606,-8.4606,-8.4606,-8.4606,-8.4606,-8.4606,-8.4606,-8.4606,-8.4606,-8.4606,-8.4606,-8.4606,-8.4606,-8.4606,-8.4606,-8.4606,-8.4606,-8.4606,-8.4606,-8.4606,-8.4606,-8.4606,-8.4606,-8.4606,-8.4606,-8.4573,-8.4606,-8.4606,-8.4713,-8.4943,-8.5066,-8.5086,-8.519,-8.531,-8.5412,-8.522,-8.4693,-8.6604,-8.8976,-9.0172,-9.0618,-9.1288,-9.1803,-9.1657,-9.1436,-9.1143,-9.0996,-9.1106,-9.1289,-9.162,-9.1803,-9.1803,-9.1803,-9.1803,-4.959,-4.959,-4.959,-4.964,-4.9816,-5.072,-5.1448,-5.1975,-5.1523,-5.2854,-5.5432,-5.7104,-5.8744,-6.06,-6.2292,-6.3079,-6.3137,-6.3137,-6.3137,-6.3137,-6.3137,-6.3137,-6.3166,-6.3169,-6.3468,-6.3827,-6.4455,-6.5473,-6.6849,-6.7986,-6.9213,-7.026,-7.059,-7.1457,-7.2056,-7.2325,-7.2295,-7.2654,-7.2581,-7.282,-7.3684,-7.6901,-7.7985,-7.8989,-8.0039,-8.1604,-8.2912,-8.3456,-8.3896,-8.4268,-8.4539,-8.4573,-8.4606,-8.4606,-8.4606,-8.4606,-8.4606,-8.4606,-8.4606,-8.4606,-8.4606,-8.4606,-8.4606,-8.4606,-8.4606,-8.4606,-8.4606,-8.4606,-8.4606,-8.4606,-8.4606,-8.4606,-8.4606,-8.4606,-8.4606,-8.4606,-8.4606,-8.4606,-8.4606,-8.4606,-8.4606,-8.4606,-8.4606,-8.4606,-8.4606,-8.4606,-8.4606,-8.4606,-8.4713,-8.5066,-8.5395,-8.6003,-8.598,-8.59,-8.6019,-8.6088,-8.5279,-8.4682,-8.6239,-8.8321,-8.9532,-9.0793,-9.1435,-9.1803,-9.1803,-9.1657,-9.14,-9.1436,-9.162,-9.1803,-9.1803,-9.1803,-9.1803,-9.1803,-9.1803,-4.9558,-4.9583,-4.9618,-4.959,-4.964,-4.9941,-5.0619,-5.1448,-5.1724,-5.3238,-5.5459,-5.6357,-5.8146,-6.054,-6.2292,-6.2933,-6.3137,-6.3137,-6.3137,-6.3137,-6.3137,-6.3137,-6.3228,-6.3498,-6.3797,-6.4306,-6.4964,-6.5892,-6.7178,-6.8435,-6.9722,-7.0709,-7.0889,-7.1727,-7.2385,-7.2714,-7.3163,-7.3522,-7.3328,-7.3582,-7.4904,-7.7903,-7.8901,-7.9683,-8.0866,-8.2381,-8.3366,-8.4031,-8.4403,-8.4539,-8.4606,-8.4606,-8.4606,-8.4606,-8.4606,-8.4606,-8.4606,-8.4606,-8.4606,-8.4606,-8.4606,-8.4606,-8.4606,-8.4606,-8.4606,-8.4606,-8.4606,-8.4606,-8.4606,-8.4606,-8.4606,-8.4606,-8.4606,-8.4606,-8.4606,-8.4606,-8.4606,-8.4606,-8.4606,-8.4606,-8.4606,-8.4606,-8.4606,-8.4606,-8.4606,-8.4606,-8.4606,-8.466,-8.489,-8.5344,-8.5903,-8.6575,-8.7305,-8.7374,-8.6754,-8.6719,-8.555,-8.4916,-8.6566,-8.7921,-8.9032,-9.0284,-9.1286,-9.1803,-9.1803,-9.1803,-9.173,-9.1803,-9.1803,-9.1803,-9.1803,-9.1803,-9.1803,-9.1803,-9.1803,-4.885,-4.9533,-4.9341,-4.9389,-4.9615,-4.9841,-5.0343,-5.0996,-5.1548,-5.28,-5.4437,-5.5773,-5.7515,-5.9569,-6.1851,-6.3137,-6.3137,-6.3137,-6.3137,-6.3137,-6.3137,-6.3288,-6.3528,-6.3857,-6.4336,-6.4904,-6.5652,-6.658,-6.7837,-6.9273,-7.062,-7.0829,-7.0919,-7.1727,-7.2505,-7.2954,-7.3642,-7.4053,-7.436,-7.4549,-7.6126,-7.831,-7.9276,-8.0307,-8.1619,-8.2883,-8.3737,-8.4418,-8.4573,-8.4606,-8.4606,-8.4606,-8.4606,-8.4606,-8.4606,-8.4606,-8.4606,-8.4606,-8.4606,-8.4606,-8.4606,-8.4606,-8.4606,-8.4606,-8.4606,-8.4606,-8.4606,-8.4606,-8.4606,-8.4606,-8.4606,-8.4606,-8.4606,-8.4606,-8.4606,-8.4606,-8.4606,-8.4606,-8.4606,-8.4606,-8.4606,-8.4606,-8.4606,-8.4606,-8.4606,-8.4606,-8.4785,-8.5014,-8.5395,-8.5887,-8.6561,-8.7305,-8.8294,-8.8963,-8.837,-8.7947,-8.7478,-8.6959,-8.7212,-8.8404,-8.9013,-9.0046,-9.1435,-9.1803,-9.1803,-9.1803,-9.1803,-9.1803,-9.1803,-9.1803,-9.1803,-9.184,-9.1803,-9.1803,-9.1803,-4.7508,-4.9242,-4.8964,-4.9063,-4.9565,-5.0042,-5.0343,-5.0469,-5.0996,-5.1842,-5.3064,-5.502,-5.6622,-5.8569,-6.1434,-6.3025,-6.3139,-6.3137,-6.3137,-6.3137,-6.3137,-6.3318,-6.3767,-6.4126,-6.4784,-6.5592,-6.637,-6.7089,-6.8794,-7.0051,-7.0769,-7.0919,-7.0919,-7.1607,-7.2714,-7.2894,-7.3552,-7.454,-7.4887,-7.5153,-7.6761,-7.8719,-8.0777,-8.1993,-8.3354,-8.4485,-8.4519,-8.4606,-8.4606,-8.4606,-8.4606,-8.4606,-8.4606,-8.4606,-8.4606,-8.4606,-8.4606,-8.4606,-8.4606,-8.4606,-8.4606,-8.4606,-8.4606,-8.4606,-8.4606,-8.4606,-8.4606,-8.4606,-8.4606,-8.4606,-8.4606,-8.4606,-8.4606,-8.4606,-8.4606,-8.4606,-8.4606,-8.4606,-8.4606,-8.4606,-8.4606,-8.4606,-8.4606,-8.4606,-8.4606,-8.4606,-8.5014,-8.5412,-8.6053,-8.6575,-8.7352,-8.8178,-8.9299,-9.0304,-9.0557,-9.0208,-9.0036,-8.9706,-8.9049,-8.8917,-8.9533,-9.0559,-9.1694,-9.1803,-9.1803,-9.1803,-9.1803,-9.1803,-9.1803,-9.1803,-9.1803,-9.1877,-9.1877,-9.2024,-9.1877,-4.6588,-4.7208,-4.8322,-4.8862,-4.9038,-4.9565,-5.0017,-5.0419,-5.0544,-5.1021,-5.1883,-5.3218,-5.5247,-5.7834,-6.1421,-6.3091,-6.3081,-6.3137,-6.3137,-6.3137,-6.3137,-6.3498,-6.4036,-6.4515,-6.5233,-6.5922,-6.664,-6.7567,-6.8944,-7.0141,-7.0919,-7.0919,-7.0979,-7.1667,-7.2834,-7.2954,-7.3679,-7.5128,-7.4995,-7.592,-7.7713,-8.0859,-8.3465,-8.3242,-8.3674,-8.45,-8.4606,-8.4606,-8.4606,-8.4606,-8.4606,-8.4606,-8.4606,-8.4606,-8.4606,-8.4606,-8.4606,-8.4606,-8.4606,-8.464,-8.4674,-8.4674,-8.4674,-8.464,-8.4606,-8.4606,-8.464,-8.464,-8.4606,-8.4606,-8.4606,-8.4606,-8.4606,-8.4606,-8.4606,-8.4606,-8.4606,-8.4606,-8.4606,-8.4606,-8.4606,-8.4606,-8.4606,-8.4606,-8.4606,-8.5014,-8.5684,-8.6316,-8.7104,-8.7769,-8.8579,-8.9432,-9.0559,-9.143,-9.1642,-9.1542,-9.0892,-9.0654,-9.0012,-8.9992,-9.0155,-9.0945,-9.1803,-9.1803,-9.1803,-9.195,-9.1987,-9.1803,-9.1803,-9.195,-9.2207,-9.2427,-9.2574,-9.2721,-9.2317,-4.6312,-4.6439,-4.7808,-4.8385,-4.8485,-4.8987,-4.9414,-4.969,-4.9941,-5.0218,-5.0701,-5.1909,-5.4028,-5.7391,-6.1293,-6.312,-6.3141,-6.3079,-6.3137,-6.3137,-6.3256,-6.3737,-6.4276,-6.4785,-6.5652,-6.637,-6.7448,-6.8435,-6.9153,-7.0171,-7.0919,-7.0949,-7.1158,-7.1816,-7.2864,-7.3193,-7.4165,-7.5875,-7.5361,-7.6614,-7.8971,-8.2395,-8.4209,-8.3799,-8.4035,-8.4606,-8.4606,-8.4606,-8.4606,-8.4606,-8.4606,-8.4606,-8.4606,-8.4606,-8.4606,-8.4606,-8.4606,-8.4606,-8.4606,-8.4674,-8.4809,-8.4945,-8.5148,-8.5249,-8.5249,-8.5215,-8.4911,-8.4877,-8.464,-8.4606,-8.4606,-8.4606,-8.4606,-8.4606,-8.4606,-8.4606,-8.4606,-8.4606,-8.4606,-8.4606,-8.4606,-8.4606,-8.4606,-8.4606,-8.4732,-8.5617,-8.6316,-8.7469,-8.8214,-8.8754,-8.96,-9.024,-9.1093,-9.1171,-9.0816,-9.0895,-9.0892,-9.0743,-9.0784,-9.102,-9.1118,-9.1432,-9.1803,-9.2024,-9.2244,-9.2464,-9.2427,-9.2281,-9.2317,-9.2501,-9.2794,-9.3088,-9.3272,-9.3455,-9.3345,-4.601,-4.6362,-4.7357,-4.7807,-4.7933,-4.851,-4.8812,-4.8912,-4.9364,-4.9615,-4.978,-5.0687,-5.3467,-5.7245,-6.1117,-6.2381,-6.3114,-6.3109,-6.3137,-6.3137,-6.3137,-6.3827,-6.4515,-6.5084,-6.5831,-6.6908,-6.8103,-6.8642,-6.915,-7.026,-7.0949,-7.1038,-7.1547,-7.2206,-7.2894,-7.3724,-7.4825,-7.6296,-7.7021,-7.8365,-8.1009,-8.3711,-8.4255,-8.4526,-8.4606,-8.4606,-8.4606,-8.4606,-8.4606,-8.4606,-8.4606,-8.4606,-8.4606,-8.4606,-8.4606,-8.4606,-8.4606,-8.4606,-8.4674,-8.4843,-8.5182,-8.552,-8.5757,-8.5892,-8.5858,-8.5621,-8.5317,-8.4945,-8.4708,-8.464,-8.464,-8.4606,-8.4606,-8.4708,-8.4708,-8.4674,-8.4674,-8.4742,-8.4809,-8.4776,-8.4621,-8.4621,-8.4843,-8.4809,-8.5754,-8.6547,-8.7386,-8.8454,-8.9406,-8.9755,-9.0324,-9.0585,-9.0925,-9.0737,-9.0177,-9.0065,-9.0284,-9.0959,-9.1043,-9.1578,-9.2091,-9.25,-9.2684,-9.2537,-9.2758,-9.3125,-9.3198,-9.3125,-9.3125,-9.3161,-9.3566,-9.3933,-9.3932,-9.4189,-9.452,-4.4969,-4.5764,-4.6792,-4.728,-4.7431,-4.8309,-4.8786,-4.8862,-4.9339,-4.959,-4.9654,-5.0078,-5.2334,-5.6704,-6.1152,-6.3002,-6.3111,-6.3137,-6.3137,-6.3137,-6.3137,-6.3917,-6.4784,-6.5293,-6.586,-6.6994,-6.828,-6.906,-6.9449,-7.0316,-7.0919,-7.0949,-7.1607,-7.2265,-7.2924,-7.3954,-7.5261,-7.698,-7.8719,-8.0026,-8.1654,-8.355,-8.4367,-8.4614,-8.4606,-8.4606,-8.4606,-8.4606,-8.4606,-8.4606,-8.4606,-8.4606,-8.4587,-8.4587,-8.4587,-8.4587,-8.4587,-8.4688,-8.479,-8.5182,-8.5621,-8.6061,-8.6298,-8.6467,-8.6332,-8.6061,-8.5587,-8.479,-8.4621,-8.4621,-8.4674,-8.464,-8.464,-8.4843,-8.4945,-8.4911,-8.4911,-8.5215,-8.5452,-8.5094,-8.4716,-8.5128,-8.5675,-8.6568,-8.8517,-8.9144,-8.9456,-9.0466,-9.0944,-9.1063,-9.1053,-9.0878,-9.0809,-9.0336,-8.9743,-8.9399,-8.9577,-9.0444,-9.1412,-9.2066,-9.2813,-9.371,-9.3822,-9.3382,-9.3602,-9.4006,-9.4006,-9.4042,-9.3895,-9.4006,-9.4484,-9.4815,-9.474,-9.496,-9.529]},{"header":{"parameterUnit":"m.s-1","parameterCategory":1,"la1":31.0,"la2":29.5877,"lo1":-88.7671,"lo2":-86.6584,"dy":0.0162,"dx":0.0185,"nx":115,"ny":88,"refTime":"2024-04-02T18:00:00:Z","depth":0,"parameterNumber":3,"parameterNumberName":"V-component_of_WINDS"},"data":[0.0,0.0,0.0,0.0,0.0,0.0,0.0,0.0,0.0,0.0,0.0,0.0,0.0,0.0,0.0,0.0,0.0,0.0,0.0,0.0,0.0,0.0,0.0,0.0,0.0,0.0,0.0,0.0,0.0,0.0,0.0,0.0,0.0,0.0,0.0,0.0,0.0,0.0,0.0,0.0,0.0,0.0,0.0,0.0,0.0,0.0,0.0,0.0,0.0,0.0,0.0,0.0,0.0,0.0,0.0,0.0,0.0,0.0,0.0,0.0,0.0,0.0,0.0,0.0,0.0,0.0,0.0,0.0,0.0,0.0,0.0,0.0,0.0,0.0,0.0,0.0,0.0,0.0,0.0,0.0,0.0,0.0,0.0,0.0,0.0,0.0,0.0,0.0,0.0,0.0,0.0,0.0,0.0,0.0,0.0,0.0,0.0,0.0,0.0,0.0,0.0,0.0,0.0,0.0,0.0,0.0,0.0,0.0,0.0,0.0,0.0,0.0,0.0,0.0,0.0,0.0,0.0,0.0,0.0,0.0,0.0,0.0,0.0,0.0,0.0,0.0,0.0,0.0,0.0,0.0,0.0,0.0,0.0,0.0,0.0,0.0,0.0,0.0,0.0,0.0,0.0,0.0,0.0,0.0,0.0,0.0,0.0,0.0,0.0,0.0,0.0,0.0,0.0,0.0,0.0,0.0,0.0,0.0,0.0,0.0,0.0,0.0,0.0,0.0,0.0,0.0,0.0,0.0,0.0,0.0,0.0,0.0,0.0,0.0,0.0,0.0,0.0,0.0,0.0,0.0,0.0,0.0,0.0,0.0,0.0,0.0,0.0,0.0,0.0,0.0,0.0,0.0,0.0,0.0,0.0,0.0,0.0,0.0,0.0,0.0,0.0,0.0,0.0,0.0,0.0,0.0,0.0,0.0,0.0,0.0,0.0,0.0,0.0,0.0,0.0,0.0,0.0,0.0,0.0,0.0,0.0,0.0,0.0,0.0,0.0,0.0,0.0,0.0,0.0,0.0,0.0,0.0,0.0,0.0,0.0,0.0,0.0,0.0,0.0,0.0,0.0,0.0,0.0,0.0,0.0,0.0,0.0,0.0,0.0,0.0,0.0,0.0,0.0,0.0,0.0,0.0,0.0,0.0,0.0,0.0,0.0,0.0,0.0,0.0,0.0,0.0,0.0,0.0,0.0,0.0,0.0,0.0,0.0,0.0,0.0,0.0,0.0,0.0,0.0,0.0,0.0,0.0,0.0,0.0,0.0,0.0,0.0,0.0,0.0,0.0,0.0,0.0,0.0,0.0,0.0,0.0,0.0,0.0,0.0,0.0,0.0,0.0,0.0,0.0,0.0,0.0,0.0,0.0,0.0,0.0,0.0,0.0,0.0,0.0,0.0,0.0,0.0,0.0,0.0,0.0,0.0,0.0,0.0,0.0,0.0,0.0,0.0,0.0,0.0,0.0,0.0,0.0,0.0,0.0,0.0,0.0,0.0,0.0,0.0,0.0,0.0,0.0,0.0,0.0,0.0,0.0,0.0,0.0,0.0,0.0,0.0,0.0,0.0,0.0,0.0,0.0,0.0,0.0,0.0,0.0,0.0,0.0,0.0,0.0,0.0,0.0,0.0,0.0,0.0,0.0,0.0,0.0,0.0,0.0,0.0,0.0,0.0,0.0,0.0,0.0,0.0,0.0,0.0,0.0,0.0,0.0,0.0,0.0,0.0,0.0,0.0,0.0,0.0,0.0,0.0,0.0,0.0,0.0,0.0,0.0,0.0,0.0,0.0,0.0,0.0,0.0,0.0,0.0,0.0,0.0,0.0,0.0,0.0,0.0,0.0,0.0,0.0,0.0,0.0,0.0,0.0,0.0,0.0,0.0,0.0,0.0,0.0,0.0,0.0,0.0,0.0,0.0,0.0,0.0,0.0,0.0,0.0,0.0,0.0,0.0,0.0,0.0,0.0,0.0,0.0,0.0,0.0,0.0,0.0,0.0,0.0,0.0,0.0,0.0,0.0,0.0,0.0,0.0,0.0,0.0,0.0,0.0,0.0,0.0,0.0,0.0,0.0,0.0,0.0,0.0,0.0,0.0,0.0,0.0,0.0,0.0,0.0,0.0,0.0,0.0,0.0,0.0,0.0,0.0,0.0,0.0,0.0,0.0,0.0,0.0,0.0,0.0,0.0,0.0,0.0,0.0,0.0,0.0,0.0,0.0,0.0,0.0,0.0,0.0,0.0,0.0,0.0,0.0,0.0,0.0,0.0,0.0,0.0,0.0,0.0,0.0,0.0,0.0,0.0,0.0,0.0,0.0,0.0,0.0,0.0,0.0,0.0,0.0,0.0,0.0,0.0,0.0,0.0,0.0,0.0,0.0,0.0,0.0,0.0,0.0,0.0,0.0,0.0,0.0,0.0,0.0,0.0,0.0,0.0,0.0,0.0,0.0,0.0,0.0,0.0,0.0,0.0,0.0,0.0,0.0,0.0,0.0,0.0,0.0,0.0,0.0,0.0,0.0,0.0,0.0,0.0,0.0,0.0,0.0,0.0,0.0,0.0,0.0,0.0,0.0,0.0,0.0,0.0,0.0,0.0,0.0,0.0,0.0,0.0,0.0,0.0,0.0,0.0,0.0,0.0,0.0,0.0,0.0,0.0,0.0,0.0,0.0,0.0,0.0,0.0,0.0,0.0,0.0,0.0,0.0,0.0,0.0,0.0,0.0,0.0,0.0,0.0,0.0,0.0,0.0,0.0,0.0,0.0,0.0,0.0,0.0,0.0,0.0,0.0,0.0,0.0,0.0,0.0,0.0,0.0,0.0,0.0,0.0,0.0,0.0,0.0,0.0,0.0,0.0,0.0,0.0,0.0,0.0,0.0,0.0,0.0,0.0,0.0,0.0,0.0,0.0,0.0,0.0,0.0,0.0,0.0,0.0,0.0,0.0,0.0,0.0,0.0,0.0,0.0,0.0,0.0,0.0,0.0,0.0,0.0,0.0,0.0,0.0,0.0,0.0,0.0,0.0,0.0,0.0,0.0,0.0,0.0,0.0,0.0,0.0,0.0,0.0,0.0,0.0,0.0,0.0,0.0,0.0,0.0,0.0,0.0,0.0,0.0,0.0,0.0,0.0,0.0,0.0,0.0,0.0,0.0,0.0,0.0,0.0,0.0,0.0,0.0,0.0,0.0,0.0,0.0,0.0,0.0,0.0,0.0,0.0,0.0,0.0,0.0,0.0,0.0,0.0,0.0,0.0,0.0,0.0,0.0,0.0,0.0,0.0,0.0,0.0,0.0,0.0,0.0,0.0,0.0,0.0,0.0,0.0,0.0,0.0,0.0,0.0,0.0,0.0,0.0,0.0,0.0,0.0,0.0,0.0,0.0,0.0,0.0,0.0,0.0,0.0,0.0,0.0,0.0,0.0,0.0,0.0,0.0,0.0,0.0,0.0,0.0,0.0,0.0,0.0,0.0,0.0,0.0,0.0,0.0,0.0,0.0,0.0,0.0,0.0,0.0,0.0,0.0,0.0,0.0,0.0,0.0,0.0,0.0,0.0,0.0,0.0,0.0,0.0,0.0,0.0,0.0,0.0,0.0,0.0,0.0,0.0,0.0,0.0,0.0,0.0,0.0,0.0,0.0,0.0,0.0,0.0,0.0,0.0,0.0,0.0,0.0,0.0,0.0,0.0,0.0,0.0,0.0,0.0,0.0,0.0,0.0,0.0,0.0,0.0,0.0,0.0,0.0,0.0,0.0,0.0,0.0,0.0,0.0,0.0,0.0,0.0,0.0,0.0,0.0,0.0,0.0,0.0,0.0,0.0,0.0,0.0,0.0,0.0,0.0,0.0,0.0,0.0,0.0,0.0,0.0,0.0,0.0,0.0,0.0,0.0,0.0,0.0,0.0,0.0,0.0,0.0,0.0,0.0,0.0,0.0,0.0,0.0,0.0,0.0,0.0,0.0,0.0,0.0,0.0,0.0,0.0,0.0,0.0,0.0,0.0,0.0,0.0,0.0,0.0,0.0,0.0,0.0,0.0,0.0,0.0,0.0,0.0,0.0,0.0,0.0,0.0,0.0,0.0,0.0,0.0,0.0,0.0,0.0,0.0,0.0,0.0,0.0,0.0,0.0,0.0,0.0,0.0,0.0,0.0,0.0,0.0,0.0,0.0,0.0,0.0,0.0,0.0,0.0,0.0,0.0,0.0,0.0,0.0,0.0,0.0,0.0,0.0,0.0,0.0,0.0,0.0,0.0,0.0,0.0,-4.7889,0.0,0.0,0.0,-4.4802,0.0,0.0,0.0,0.0,0.0,0.0,0.0,0.0,0.0,0.0,0.0,0.0,0.0,0.0,0.0,0.0,0.0,0.0,0.0,0.0,0.0,0.0,0.0,0.0,0.0,0.0,0.0,0.0,0.0,0.0,0.0,0.0,0.0,0.0,0.0,0.0,0.0,0.0,0.0,0.0,0.0,0.0,0.0,0.0,0.0,0.0,0.0,0.0,0.0,0.0,0.0,0.0,0.0,0.0,0.0,0.0,0.0,0.0,0.0,0.0,0.0,0.0,0.0,0.0,0.0,0.0,0.0,0.0,0.0,0.0,0.0,0.0,0.0,0.0,0.0,0.0,0.0,0.0,0.0,0.0,0.0,0.0,0.0,0.0,0.0,0.0,0.0,0.0,0.0,0.0,0.0,0.0,0.0,0.0,0.0,0.0,0.0,0.0,0.0,0.0,0.0,0.0,0.0,0.0,0.0,0.0,0.0,0.0,0.0,0.0,-4.865,-4.9748,-4.4411,-4.2756,-4.5355,0.0,0.0,0.0,0.0,0.0,0.0,0.0,0.0,0.0,0.0,0.0,0.0,0.0,0.0,0.0,0.0,0.0,0.0,0.0,0.0,0.0,0.0,0.0,0.0,0.0,0.0,0.0,0.0,0.0,0.0,0.0,0.0,0.0,0.0,0.0,0.0,0.0,0.0,0.0,0.0,0.0,0.0,0.0,0.0,0.0,0.0,0.0,0.0,0.0,0.0,0.0,0.0,0.0,0.0,0.0,0.0,0.0,0.0,0.0,0.0,0.0,0.0,0.0,0.0,0.0,0.0,0.0,0.0,0.0,0.0,0.0,0.0,0.0,0.0,0.0,0.0,0.0,0.0,0.0,0.0,0.0,0.0,0.0,0.0,0.0,0.0,0.0,0.0,0.0,0.0,0.0,0.0,0.0,0.0,0.0,0.0,0.0,0.0,0.0,0.0,0.0,0.0,0.0,0.0,0.0,0.0,0.0,0.0,0.0,0.0,0.0,0.0,-4.5235,-4.3259,-4.5707,0.0,0.0,0.0,0.0,0.0,0.0,0.0,0.0,0.0,0.0,0.0,0.0,0.0,0.0,0.0,0.0,0.0,0.0,0.0,0.0,0.0,0.0,0.0,0.0,0.0,0.0,0.0,0.0,0.0,0.0,0.0,0.0,0.0,0.0,0.0,0.0,0.0,0.0,0.0,0.0,0.0,0.0,0.0,0.0,0.0,0.0,0.0,0.0,0.0,0.0,0.0,0.0,0.0,0.0,0.0,0.0,0.0,0.0,0.0,0.0,0.0,0.0,0.0,0.0,0.0,0.0,0.0,0.0,0.0,0.0,0.0,0.0,0.0,0.0,0.0,0.0,0.0,0.0,0.0,0.0,0.0,0.0,0.0,0.0,0.0,0.0,0.0,0.0,0.0,0.0,0.0,0.0,0.0,0.0,0.0,0.0,0.0,0.0,0.0,0.0,0.0,0.0,0.0,0.0,0.0,0.0,0.0,0.0,0.0,0.0,-5.0326,-5.1711,-4.8799,0.0,-4.6954,0.0,0.0,0.0,0.0,0.0,0.0,0.0,0.0,0.0,0.0,0.0,0.0,0.0,0.0,0.0,0.0,0.0,0.0,0.0,0.0,0.0,0.0,0.0,0.0,0.0,0.0,0.0,0.0,0.0,0.0,0.0,0.0,0.0,0.0,0.0,0.0,0.0,0.0,0.0,0.0,0.0,0.0,0.0,0.0,0.0,0.0,0.0,0.0,0.0,0.0,0.0,0.0,0.0,0.0,0.0,0.0,0.0,0.0,0.0,0.0,0.0,0.0,0.0,0.0,0.0,0.0,0.0,0.0,0.0,0.0,0.0,0.0,0.0,0.0,0.0,0.0,0.0,0.0,0.0,0.0,0.0,0.0,0.0,0.0,0.0,0.0,0.0,0.0,0.0,0.0,0.0,0.0,0.0,0.0,0.0,0.0,0.0,0.0,0.0,0.0,0.0,0.0,0.0,0.0,0.0,0.0,0.0,0.0,0.0,0.0,-4.9919,-5.0359,-4.8166,-4.6702,0.0,0.0,0.0,0.0,0.0,0.0,0.0,0.0,0.0,0.0,0.0,0.0,0.0,0.0,0.0,0.0,0.0,0.0,0.0,0.0,0.0,0.0,0.0,0.0,0.0,0.0,0.0,0.0,0.0,0.0,0.0,0.0,0.0,0.0,0.0,0.0,0.0,0.0,0.0,0.0,0.0,0.0,0.0,0.0,0.0,0.0,0.0,0.0,0.0,0.0,0.0,0.0,0.0,0.0,0.0,0.0,0.0,0.0,0.0,0.0,0.0,0.0,0.0,0.0,0.0,0.0,0.0,0.0,0.0,0.0,0.0,0.0,0.0,0.0,0.0,0.0,0.0,0.0,0.0,0.0,0.0,0.0,0.0,0.0,0.0,0.0,0.0,0.0,0.0,0.0,0.0,0.0,0.0,0.0,0.0,0.0,0.0,0.0,0.0,0.0,0.0,0.0,0.0,0.0,0.0,0.0,0.0,0.0,0.0,0.0,-5.0271,-4.9127,-4.846,-4.6742,-4.5648,-4.5246,0.0,0.0,0.0,0.0,0.0,0.0,0.0,0.0,0.0,0.0,0.0,0.0,0.0,0.0,0.0,0.0,0.0,0.0,0.0,0.0,0.0,0.0,0.0,0.0,0.0,0.0,0.0,0.0,0.0,0.0,0.0,0.0,0.0,0.0,0.0,0.0,0.0,0.0,0.0,0.0,0.0,0.0,0.0,0.0,0.0,0.0,0.0,0.0,0.0,0.0,0.0,0.0,0.0,0.0,0.0,0.0,0.0,0.0,0.0,0.0,0.0,0.0,0.0,0.0,0.0,0.0,0.0,0.0,0.0,0.0,0.0,0.0,0.0,0.0,0.0,0.0,0.0,0.0,0.0,0.0,0.0,0.0,0.0,0.0,0.0,0.0,0.0,0.0,0.0,0.0,0.0,0.0,0.0,0.0,0.0,0.0,0.0,0.0,0.0,0.0,0.0,0.0,0.0,0.0,0.0,0.0,0.0,0.0,-5.3459,-5.0458,-4.8094,-4.6537,-4.5321,-4.4694,0.0,0.0,0.0,0.0,0.0,0.0,0.0,0.0,0.0,0.0,0.0,0.0,0.0,0.0,0.0,0.0,0.0,0.0,0.0,0.0,0.0,0.0,0.0,0.0,0.0,0.0,0.0,0.0,0.0,0.0,0.0,0.0,0.0,0.0,0.0,0.0,0.0,0.0,0.0,0.0,0.0,0.0,0.0,0.0,0.0,0.0,0.0,0.0,0.0,0.0,0.0,0.0,0.0,0.0,0.0,0.0,0.0,0.0,0.0,0.0,0.0,0.0,0.0,0.0,0.0,0.0,0.0,0.0,0.0,0.0,0.0,0.0,0.0,0.0,0.0,0.0,0.0,0.0,0.0,0.0,0.0,0.0,0.0,0.0,0.0,0.0,0.0,0.0,0.0,0.0,0.0,0.0,0.0,0.0,0.0,0.0,0.0,0.0,0.0,0.0,0.0,0.0,0.0,0.0,0.0,0.0,0.0,0.0,0.0,-4.9976,-4.7807,-4.6573,-4.626,-4.4869,-4.4443,0.0,0.0,0.0,0.0,0.0,0.0,0.0,0.0,0.0,0.0,0.0,0.0,0.0,0.0,0.0,0.0,0.0,0.0,0.0,0.0,0.0,0.0,0.0,0.0,0.0,0.0,0.0,0.0,0.0,0.0,0.0,0.0,0.0,0.0,0.0,0.0,0.0,0.0,0.0,0.0,0.0,0.0,0.0,0.0,0.0,0.0,0.0,0.0,0.0,0.0,0.0,0.0,0.0,0.0,0.0,0.0,0.0,0.0,0.0,0.0,0.0,0.0,0.0,0.0,0.0,0.0,0.0,0.0,0.0,0.0,0.0,0.0,0.0,0.0,0.0,0.0,0.0,0.0,0.0,0.0,0.0,0.0,0.0,0.0,0.0,0.0,0.0,0.0,0.0,0.0,0.0,0.0,0.0,0.0,0.0,0.0,0.0,0.0,0.0,0.0,0.0,0.0,0.0,0.0,0.0,0.0,0.0,0.0,0.0,-4.7421,0.0,-4.551,-4.4702,-4.3966,-4.374,0.0,0.0,0.0,0.0,0.0,0.0,0.0,0.0,0.0,0.0,0.0,0.0,0.0,0.0,0.0,0.0,0.0,0.0,0.0,0.0,0.0,0.0,0.0,0.0,0.0,0.0,0.0,0.0,0.0,0.0,0.0,0.0,0.0,0.0,0.0,0.0,0.0,0.0,0.0,0.0,0.0,0.0,0.0,0.0,0.0,0.0,0.0,0.0,0.0,0.0,0.0,0.0,0.0,0.0,0.0,0.0,0.0,0.0,0.0,0.0,0.0,0.0,0.0,0.0,0.0,0.0,0.0,0.0,0.0,0.0,0.0,0.0,0.0,0.0,0.0,0.0,0.0,0.0,0.0,0.0,0.0,0.0,0.0,0.0,0.0,0.0,0.0,0.0,0.0,0.0,0.0,0.0,0.0,0.0,0.0,0.0,0.0,0.0,0.0,0.0,0.0,0.0,0.0,0.0,0.0,0.0,0.0,0.0,-4.8854,-4.6274,-4.6381,-4.4967,-4.158,-4.2459,-4.2484,0.0,0.0,0.0,0.0,0.0,0.0,0.0,0.0,0.0,0.0,0.0,0.0,0.0,0.0,0.0,0.0,0.0,0.0,0.0,0.0,0.0,0.0,0.0,0.0,0.0,0.0,0.0,0.0,0.0,0.0,0.0,0.0,0.0,0.0,0.0,0.0,0.0,0.0,0.0,0.0,0.0,0.0,0.0,0.0,0.0,0.0,0.0,0.0,0.0,0.0,0.0,0.0,0.0,0.0,0.0,0.0,0.0,0.0,0.0,0.0,0.0,0.0,0.0,0.0,0.0,0.0,0.0,0.0,0.0,0.0,0.0,0.0,0.0,0.0,0.0,0.0,0.0,0.0,0.0,0.0,0.0,0.0,0.0,0.0,0.0,0.0,0.0,0.0,0.0,0.0,0.0,0.0,0.0,0.0,0.0,0.0,0.0,0.0,0.0,0.0,0.0,0.0,0.0,0.0,0.0,0.0,0.0,0.0,0.0,-4.6146,-4.4057,-4.4134,-4.6185,-4.2359,-4.2133,0.0,0.0,0.0,0.0,0.0,0.0,0.0,0.0,0.0,0.0,0.0,0.0,0.0,0.0,0.0,0.0,0.0,0.0,0.0,0.0,0.0,0.0,0.0,0.0,0.0,0.0,0.0,0.0,0.0,0.0,0.0,0.0,0.0,0.0,0.0,0.0,0.0,0.0,0.0,0.0,0.0,0.0,0.0,0.0,0.0,0.0,0.0,0.0,0.0,0.0,0.0,0.0,0.0,0.0,0.0,0.0,0.0,0.0,0.0,0.0,0.0,0.0,0.0,0.0,0.0,0.0,0.0,0.0,0.0,0.0,0.0,0.0,0.0,0.0,0.0,0.0,0.0,0.0,0.0,0.0,0.0,0.0,0.0,0.0,0.0,0.0,0.0,0.0,0.0,0.0,0.0,0.0,0.0,0.0,0.0,0.0,0.0,0.0,0.0,0.0,0.0,0.0,0.0,0.0,0.0,0.0,0.0,0.0,0.0,-4.5958,-4.404,-4.3965,-4.5924,-4.2559,-4.2258,-4.5447,0.0,0.0,0.0,0.0,0.0,0.0,0.0,0.0,0.0,0.0,0.0,0.0,0.0,0.0,0.0,0.0,0.0,0.0,0.0,0.0,0.0,0.0,0.0,0.0,0.0,0.0,0.0,0.0,0.0,0.0,0.0,0.0,0.0,0.0,0.0,0.0,0.0,0.0,0.0,0.0,0.0,0.0,0.0,0.0,0.0,0.0,0.0,0.0,0.0,0.0,0.0,0.0,0.0,0.0,0.0,0.0,0.0,0.0,0.0,0.0,0.0,0.0,0.0,0.0,0.0,0.0,0.0,0.0,0.0,0.0,0.0,0.0,0.0,0.0,0.0,0.0,0.0,0.0,0.0,0.0,0.0,0.0,0.0,0.0,0.0,0.0,0.0,0.0,0.0,0.0,0.0,0.0,0.0,0.0,0.0,0.0,0.0,0.0,0.0,0.0,0.0,0.0,0.0,0.0,0.0,0.0,0.0,0.0,-4.5898,-4.6009,-4.4801,-4.2183,-4.3162,-4.2886,0.0,0.0,0.0,0.0,0.0,0.0,0.0,0.0,0.0,0.0,0.0,0.0,0.0,0.0,0.0,0.0,0.0,0.0,0.0,0.0,0.0,0.0,0.0,0.0,0.0,0.0,0.0,0.0,0.0,0.0,0.0,0.0,0.0,0.0,0.0,0.0,0.0,0.0,0.0,0.0,0.0,0.0,0.0,0.0,0.0,0.0,0.0,0.0,0.0,0.0,0.0,0.0,0.0,0.0,0.0,0.0,0.0,0.0,0.0,0.0,0.0,0.0,0.0,0.0,0.0,0.0,0.0,0.0,0.0,0.0,0.0,0.0,0.0,0.0,0.0,0.0,0.0,0.0,0.0,0.0,0.0,0.0,0.0,0.0,0.0,0.0,0.0,0.0,0.0,0.0,0.0,0.0,0.0,0.0,0.0,0.0,0.0,0.0,0.0,0.0,0.0,0.0,0.0,0.0,0.0,0.0,0.0,0.0,0.0,-4.8165,-4.8488,-4.8624,-4.8586,-4.5121,-4.4292,0.0,0.0,0.0,0.0,0.0,0.0,0.0,0.0,0.0,0.0,0.0,0.0,0.0,0.0,0.0,0.0,0.0,0.0,0.0,0.0,0.0,0.0,0.0,0.0,0.0,0.0,0.0,0.0,0.0,0.0,0.0,0.0,0.0,0.0,0.0,0.0,0.0,0.0,0.0,0.0,0.0,0.0,0.0,0.0,0.0,0.0,0.0,0.0,0.0,0.0,0.0,0.0,0.0,0.0,0.0,0.0,0.0,0.0,0.0,0.0,0.0,0.0,0.0,0.0,0.0,0.0,0.0,0.0,0.0,0.0,0.0,0.0,0.0,0.0,0.0,0.0,0.0,0.0,0.0,0.0,0.0,0.0,0.0,0.0,0.0,0.0,0.0,0.0,0.0,0.0,0.0,0.0,0.0,0.0,0.0,0.0,0.0,0.0,0.0,0.0,0.0,0.0,0.0,0.0,0.0,0.0,0.0,0.0,-4.8818,-4.8281,-5.0024,-5.1423,-5.2277,-4.9414,-4.7556,0.0,0.0,0.0,0.0,0.0,0.0,0.0,0.0,0.0,0.0,0.0,0.0,0.0,0.0,0.0,0.0,0.0,0.0,0.0,0.0,0.0,0.0,0.0,0.0,0.0,0.0,0.0,0.0,0.0,0.0,0.0,0.0,0.0,0.0,0.0,0.0,0.0,0.0,0.0,0.0,0.0,0.0,0.0,0.0,0.0,0.0,0.0,0.0,0.0,0.0,0.0,0.0,0.0,0.0,0.0,0.0,0.0,0.0,0.0,0.0,0.0,0.0,0.0,0.0,0.0,0.0,0.0,0.0,0.0,0.0,0.0,0.0,0.0,0.0,0.0,0.0,0.0,0.0,0.0,0.0,0.0,0.0,0.0,0.0,0.0,0.0,0.0,0.0,0.0,0.0,0.0,0.0,0.0,0.0,0.0,0.0,0.0,0.0,0.0,0.0,0.0,0.0,0.0,0.0,0.0,0.0,0.0,0.0,-5.0405,-4.7403,-5.1082,-5.3331,-5.3783,-5.4009,-5.1297,0.0,0.0,0.0,0.0,0.0,0.0,0.0,0.0,0.0,0.0,0.0,0.0,0.0,0.0,0.0,0.0,0.0,0.0,0.0,0.0,0.0,0.0,0.0,0.0,0.0,0.0,0.0,0.0,0.0,0.0,0.0,0.0,0.0,0.0,0.0,0.0,0.0,0.0,0.0,0.0,0.0,0.0,0.0,0.0,0.0,0.0,0.0,0.0,0.0,0.0,0.0,0.0,0.0,0.0,0.0,0.0,0.0,0.0,0.0,0.0,0.0,0.0,0.0,0.0,0.0,0.0,0.0,0.0,0.0,0.0,0.0,0.0,0.0,0.0,0.0,0.0,0.0,0.0,0.0,0.0,0.0,0.0,0.0,0.0,0.0,0.0,0.0,0.0,0.0,0.0,0.0,0.0,0.0,0.0,0.0,0.0,0.0,0.0,0.0,0.0,0.0,0.0,0.0,0.0,0.0,0.0,0.0,0.0,-4.9284,-4.8492,-5.22,-5.426,-5.4361,-5.2377,-5.0243,0.0,0.0,0.0,0.0,0.0,0.0,0.0,0.0,0.0,0.0,0.0,0.0,0.0,0.0,0.0,0.0,0.0,0.0,0.0,0.0,0.0,0.0,0.0,0.0,0.0,0.0,0.0,0.0,0.0,0.0,0.0,0.0,0.0,0.0,0.0,0.0,0.0,0.0,0.0,0.0,0.0,0.0,0.0,0.0,0.0,0.0,0.0,0.0,-4.8931,0.0,0.0,0.0,0.0,0.0,0.0,0.0,0.0,0.0,0.0,0.0,0.0,0.0,0.0,0.0,0.0,0.0,0.0,0.0,0.0,0.0,0.0,0.0,0.0,0.0,0.0,0.0,0.0,0.0,0.0,0.0,0.0,0.0,0.0,0.0,0.0,0.0,0.0,0.0,0.0,0.0,0.0,0.0,0.0,0.0,0.0,0.0,0.0,0.0,0.0,0.0,0.0,0.0,0.0,0.0,0.0,0.0,0.0,0.0,-4.9786,-4.9256,-5.2683,-5.4754,-5.4863,-5.3281,-5.1599,0.0,0.0,0.0,0.0,0.0,0.0,0.0,0.0,0.0,0.0,0.0,0.0,0.0,0.0,0.0,0.0,0.0,0.0,0.0,0.0,0.0,0.0,0.0,0.0,0.0,0.0,0.0,0.0,0.0,0.0,0.0,0.0,0.0,0.0,0.0,0.0,0.0,0.0,0.0,0.0,0.0,0.0,0.0,0.0,0.0,0.0,0.0,0.0,0.0,0.0,0.0,0.0,0.0,0.0,0.0,0.0,0.0,0.0,0.0,0.0,0.0,0.0,0.0,0.0,0.0,0.0,0.0,0.0,0.0,0.0,0.0,0.0,0.0,0.0,0.0,0.0,0.0,0.0,0.0,0.0,0.0,0.0,0.0,0.0,0.0,0.0,0.0,0.0,0.0,0.0,0.0,0.0,0.0,0.0,0.0,0.0,0.0,0.0,0.0,0.0,0.0,0.0,0.0,0.0,0.0,0.0,0.0,-5.009,-5.0468,-4.9985,-5.2959,-5.4799,-5.5239,-5.4888,-5.3733,-5.1774,0.0,0.0,0.0,0.0,0.0,0.0,0.0,0.0,0.0,0.0,0.0,0.0,0.0,0.0,0.0,0.0,0.0,0.0,0.0,0.0,0.0,0.0,0.0,0.0,0.0,0.0,0.0,0.0,0.0,0.0,0.0,0.0,0.0,0.0,0.0,0.0,0.0,0.0,-5.5016,-5.4451,0.0,0.0,0.0,0.0,0.0,0.0,0.0,0.0,-4.9882,0.0,0.0,0.0,0.0,0.0,0.0,0.0,0.0,0.0,0.0,0.0,0.0,0.0,0.0,0.0,0.0,0.0,0.0,0.0,0.0,0.0,0.0,0.0,0.0,0.0,0.0,0.0,0.0,0.0,0.0,0.0,0.0,0.0,0.0,0.0,0.0,0.0,0.0,0.0,0.0,0.0,0.0,0.0,0.0,0.0,0.0,0.0,0.0,0.0,0.0,0.0,0.0,0.0,0.0,0.0,0.0,-5.2423,-5.0346,-4.9864,-5.1053,-5.3362,-5.4623,-5.4758,-5.5064,-5.4637,-5.3381,0.0,0.0,0.0,0.0,0.0,0.0,0.0,0.0,0.0,0.0,0.0,0.0,0.0,0.0,0.0,0.0,0.0,0.0,0.0,0.0,0.0,0.0,0.0,0.0,0.0,0.0,0.0,0.0,0.0,0.0,0.0,0.0,0.0,0.0,0.0,0.0,0.0,0.0,0.0,-5.2275,-5.1971,0.0,0.0,0.0,0.0,0.0,0.0,0.0,0.0,-5.0176,0.0,0.0,0.0,0.0,0.0,0.0,0.0,0.0,0.0,0.0,0.0,0.0,0.0,0.0,0.0,0.0,0.0,0.0,0.0,0.0,0.0,0.0,0.0,0.0,0.0,0.0,0.0,0.0,0.0,0.0,0.0,0.0,0.0,0.0,0.0,0.0,0.0,0.0,0.0,0.0,0.0,0.0,0.0,0.0,0.0,0.0,0.0,0.0,0.0,0.0,0.0,0.0,0.0,0.0,0.0,-5.1893,-4.9786,-4.9677,-5.2043,-5.3772,-5.4628,-5.4561,-5.4536,-5.4135,0.0,0.0,0.0,0.0,0.0,0.0,0.0,0.0,0.0,0.0,0.0,0.0,0.0,0.0,0.0,0.0,0.0,0.0,0.0,0.0,0.0,0.0,0.0,0.0,0.0,0.0,0.0,0.0,0.0,0.0,0.0,0.0,0.0,0.0,0.0,0.0,0.0,0.0,0.0,0.0,-5.1526,-5.1021,-4.7108,0.0,0.0,0.0,0.0,0.0,0.0,-5.0138,-5.0605,0.0,0.0,0.0,0.0,0.0,0.0,0.0,0.0,0.0,0.0,0.0,0.0,0.0,0.0,0.0,0.0,0.0,0.0,0.0,0.0,0.0,0.0,0.0,0.0,0.0,0.0,0.0,0.0,0.0,0.0,0.0,0.0,0.0,0.0,0.0,0.0,0.0,0.0,0.0,0.0,0.0,0.0,0.0,0.0,0.0,0.0,0.0,0.0,0.0,0.0,0.0,0.0,0.0,0.0,0.0,-5.1366,-4.9427,-4.9835,-5.2797,-5.3889,-5.439,-5.4386,-5.4059,-5.3632,0.0,0.0,0.0,0.0,0.0,0.0,0.0,0.0,0.0,0.0,0.0,0.0,0.0,0.0,0.0,0.0,0.0,0.0,0.0,0.0,0.0,0.0,0.0,0.0,0.0,0.0,0.0,0.0,0.0,0.0,0.0,0.0,0.0,0.0,0.0,0.0,0.0,0.0,0.0,0.0,0.0,-5.0884,-4.7838,-4.7494,0.0,0.0,0.0,0.0,-5.036,-5.1142,0.0,0.0,0.0,0.0,0.0,0.0,0.0,0.0,0.0,0.0,0.0,0.0,0.0,0.0,0.0,0.0,0.0,0.0,0.0,0.0,0.0,0.0,0.0,0.0,0.0,0.0,0.0,0.0,0.0,0.0,0.0,0.0,0.0,0.0,0.0,0.0,0.0,0.0,0.0,0.0,0.0,0.0,0.0,0.0,0.0,0.0,0.0,0.0,0.0,0.0,0.0,0.0,0.0,0.0,0.0,0.0,-5.2623,-5.0136,-5.0077,-5.2735,-5.3503,-5.3828,-5.3808,-5.4235,-5.4185,0.0,0.0,0.0,0.0,0.0,0.0,0.0,0.0,0.0,0.0,0.0,0.0,0.0,0.0,0.0,0.0,0.0,0.0,0.0,0.0,0.0,0.0,0.0,0.0,0.0,0.0,0.0,0.0,0.0,0.0,0.0,0.0,0.0,0.0,0.0,0.0,0.0,0.0,0.0,0.0,0.0,-5.2715,-4.8205,-4.8875,-4.9433,0.0,0.0,-4.9875,-4.9683,-5.2549,0.0,0.0,0.0,0.0,0.0,0.0,0.0,0.0,0.0,0.0,0.0,0.0,0.0,0.0,0.0,0.0,0.0,0.0,0.0,0.0,0.0,0.0,0.0,0.0,0.0,0.0,0.0,0.0,0.0,0.0,0.0,0.0,0.0,0.0,0.0,0.0,0.0,0.0,0.0,0.0,0.0,0.0,0.0,0.0,0.0,0.0,0.0,0.0,0.0,0.0,0.0,0.0,0.0,0.0,0.0,-4.9003,-5.276,-4.9611,-4.9654,-5.3206,-5.3557,-5.3833,-5.4185,-5.3532,-5.3331,0.0,0.0,0.0,0.0,0.0,0.0,0.0,0.0,0.0,0.0,0.0,0.0,0.0,0.0,0.0,0.0,0.0,0.0,0.0,0.0,0.0,0.0,0.0,0.0,0.0,0.0,0.0,0.0,0.0,0.0,0.0,0.0,0.0,0.0,0.0,0.0,0.0,0.0,0.0,0.0,0.0,0.0,-4.948,-4.9624,0.0,0.0,0.0,-5.0978,-5.1309,0.0,0.0,0.0,0.0,0.0,0.0,0.0,0.0,0.0,0.0,0.0,0.0,0.0,0.0,0.0,0.0,0.0,0.0,0.0,0.0,0.0,0.0,0.0,0.0,0.0,0.0,0.0,0.0,0.0,0.0,0.0,0.0,0.0,0.0,0.0,0.0,0.0,0.0,0.0,0.0,0.0,0.0,0.0,0.0,0.0,0.0,0.0,0.0,0.0,0.0,0.0,0.0,0.0,0.0,0.0,0.0,0.0,-5.312,-4.936,-4.9378,-5.3507,-5.3741,-5.3917,-5.4285,-5.3155,0.0,0.0,0.0,0.0,0.0,0.0,0.0,0.0,0.0,0.0,0.0,0.0,0.0,0.0,0.0,0.0,0.0,0.0,0.0,0.0,0.0,0.0,0.0,0.0,0.0,0.0,0.0,-5.1272,0.0,0.0,0.0,0.0,0.0,0.0,0.0,0.0,0.0,0.0,0.0,0.0,0.0,0.0,-5.3997,-4.9903,-5.0019,-5.0332,0.0,0.0,-5.193,-5.208,-5.3093,-5.3181,0.0,0.0,0.0,0.0,0.0,0.0,0.0,0.0,0.0,0.0,0.0,0.0,0.0,0.0,0.0,0.0,0.0,0.0,0.0,0.0,0.0,0.0,0.0,0.0,0.0,0.0,0.0,0.0,0.0,0.0,0.0,0.0,0.0,0.0,0.0,0.0,0.0,0.0,0.0,0.0,0.0,0.0,0.0,0.0,0.0,0.0,0.0,0.0,0.0,0.0,0.0,0.0,0.0,0.0,-4.9334,-5.3608,-4.9896,-4.9752,-5.3557,-5.3738,-5.3693,-5.3758,-5.3658,-5.3381,0.0,0.0,0.0,0.0,0.0,0.0,0.0,0.0,0.0,0.0,0.0,0.0,0.0,0.0,0.0,0.0,0.0,0.0,0.0,0.0,0.0,0.0,0.0,0.0,0.0,0.0,0.0,0.0,0.0,0.0,0.0,0.0,0.0,0.0,0.0,0.0,0.0,0.0,0.0,0.0,0.0,-5.3514,-4.8424,-4.9801,-5.1191,0.0,-5.2148,-5.2629,-5.0668,-5.5021,-5.6885,-5.1697,0.0,0.0,0.0,0.0,0.0,0.0,0.0,0.0,0.0,0.0,0.0,0.0,0.0,0.0,0.0,0.0,0.0,0.0,0.0,0.0,0.0,0.0,0.0,0.0,0.0,0.0,0.0,0.0,0.0,0.0,0.0,0.0,0.0,0.0,0.0,0.0,0.0,0.0,0.0,0.0,0.0,0.0,0.0,0.0,0.0,0.0,0.0,0.0,0.0,0.0,0.0,0.0,0.0,-5.0133,-5.386,-5.033,-5.0008,-5.3036,-5.3518,-5.3693,-5.3708,-5.3708,-5.3306,0.0,0.0,0.0,0.0,0.0,0.0,0.0,0.0,0.0,0.0,0.0,0.0,0.0,0.0,0.0,0.0,0.0,0.0,0.0,0.0,0.0,0.0,0.0,0.0,0.0,0.0,0.0,0.0,-4.8103,-4.7735,-4.5837,0.0,0.0,0.0,0.0,0.0,0.0,0.0,0.0,0.0,0.0,-5.2345,-4.9229,-5.0293,0.0,0.0,-5.2422,-5.3102,-5.2355,-5.3629,-5.3841,-5.0912,-5.0834,0.0,0.0,0.0,0.0,0.0,0.0,0.0,0.0,0.0,0.0,0.0,0.0,0.0,0.0,0.0,0.0,0.0,0.0,0.0,0.0,0.0,0.0,0.0,0.0,0.0,0.0,0.0,0.0,0.0,0.0,0.0,0.0,0.0,0.0,0.0,0.0,0.0,0.0,0.0,0.0,0.0,0.0,0.0,0.0,0.0,0.0,0.0,0.0,0.0,0.0,0.0,0.0,-5.085,-5.4221,-5.0658,-5.0222,-5.3105,-5.3468,-5.3813,-5.3934,-5.3783,-5.3281,0.0,0.0,0.0,0.0,0.0,0.0,0.0,0.0,0.0,0.0,0.0,0.0,0.0,0.0,0.0,0.0,0.0,0.0,0.0,0.0,0.0,0.0,0.0,0.0,0.0,0.0,0.0,0.0,-4.6426,-4.6404,-4.6284,0.0,0.0,0.0,0.0,0.0,0.0,0.0,0.0,0.0,0.0,-5.1404,-4.9452,-5.0332,-5.1328,-5.1582,-5.2285,-5.2754,-5.2795,-5.2502,-5.1711,-4.9927,0.0,0.0,0.0,0.0,0.0,0.0,0.0,0.0,0.0,0.0,0.0,0.0,0.0,0.0,0.0,0.0,0.0,0.0,0.0,0.0,0.0,0.0,0.0,0.0,0.0,0.0,0.0,-5.4668,0.0,0.0,-5.6763,0.0,0.0,0.0,0.0,0.0,0.0,0.0,0.0,0.0,0.0,0.0,0.0,0.0,0.0,0.0,0.0,0.0,0.0,0.0,0.0,0.0,0.0,-5.154,-5.4858,-5.0909,-5.0393,-5.3532,-5.3683,-5.3959,-5.4461,-5.3984,-5.3457,-5.2904,0.0,0.0,0.0,0.0,0.0,0.0,0.0,0.0,0.0,0.0,0.0,0.0,0.0,0.0,0.0,0.0,0.0,0.0,0.0,0.0,0.0,0.0,0.0,0.0,0.0,0.0,-4.7714,-4.5771,-4.5261,0.0,0.0,0.0,0.0,0.0,0.0,0.0,0.0,0.0,-4.8213,-4.9952,-5.0717,-4.8606,-4.9726,-5.1094,-5.1914,-5.1719,-5.1484,-5.1484,-5.2074,-5.165,0.0,0.0,0.0,0.0,0.0,0.0,0.0,0.0,0.0,0.0,0.0,0.0,0.0,0.0,0.0,0.0,0.0,0.0,0.0,0.0,0.0,0.0,0.0,0.0,0.0,0.0,0.0,-5.7814,-5.829,0.0,0.0,0.0,0.0,0.0,0.0,0.0,0.0,0.0,0.0,0.0,-5.5179,-5.6286,0.0,0.0,0.0,0.0,0.0,0.0,0.0,0.0,0.0,0.0,0.0,0.0,-5.2041,-5.377,-5.0908,-5.0569,-5.3105,-5.3532,-5.3632,-5.3482,-5.3607,-5.3457,-5.2929,0.0,0.0,0.0,0.0,0.0,0.0,0.0,0.0,0.0,0.0,0.0,0.0,0.0,0.0,0.0,0.0,0.0,0.0,0.0,0.0,0.0,0.0,0.0,0.0,0.0,-4.9282,0.0,0.0,0.0,0.0,0.0,0.0,0.0,0.0,0.0,0.0,0.0,-4.8241,-4.7722,-4.8151,-4.8315,-4.7824,-4.9277,-5.0586,0.0,0.0,0.0,0.0,0.0,0.0,0.0,0.0,0.0,0.0,0.0,0.0,0.0,0.0,-5.1836,-5.041,-4.9805,-4.95,-4.9568,0.0,0.0,0.0,0.0,0.0,0.0,0.0,0.0,0.0,0.0,0.0,0.0,0.0,0.0,-5.8998,0.0,-6.0164,0.0,0.0,0.0,0.0,0.0,0.0,0.0,0.0,-5.5239,-5.6166,-5.6795,-5.7693,-5.855,0.0,-5.9061,-5.8791,0.0,0.0,0.0,0.0,0.0,0.0,0.0,0.0,-5.2379,-5.3407,-5.1138,-5.087,-5.2829,-5.3256,-5.3375,-5.3193,-5.3281,-5.3181,-5.2653,-5.195,-5.2151,0.0,0.0,0.0,0.0,0.0,0.0,0.0,0.0,0.0,0.0,0.0,0.0,0.0,0.0,0.0,0.0,0.0,0.0,0.0,0.0,0.0,0.0,0.0,-4.7793,0.0,0.0,0.0,0.0,0.0,0.0,0.0,0.0,0.0,-4.9502,-4.7664,-4.6391,-4.7069,-4.6909,-4.6973,-4.7695,0.0,0.0,0.0,0.0,0.0,0.0,0.0,-4.9492,-4.8783,-4.9308,-4.9736,-4.9762,-5.0566,-5.1211,-5.1211,0.0,0.0,-5.0176,-4.9746,-4.957,-4.9574,-4.9613,-4.9486,-4.8439,-4.6984,-4.5204,0.0,0.0,0.0,0.0,0.0,0.0,0.0,0.0,-5.6256,-5.8623,0.0,-5.8976,0.0,0.0,0.0,0.0,0.0,-5.6365,0.0,0.0,-5.6675,-5.6915,-5.6466,-5.7723,-5.8248,-5.8226,-5.8457,-5.8174,-5.757,-5.6335,0.0,0.0,0.0,0.0,0.0,0.0,-5.248,-5.3422,-5.1456,-5.1247,-5.2785,-5.2861,-5.3168,-5.3645,-5.3193,-5.2703,-5.2176,-5.2101,-5.2377,-5.2911,-5.3984,0.0,0.0,0.0,0.0,0.0,0.0,0.0,0.0,0.0,0.0,0.0,0.0,0.0,0.0,0.0,0.0,0.0,0.0,0.0,0.0,-4.752,0.0,0.0,0.0,0.0,0.0,0.0,0.0,0.0,0.0,0.0,-4.7817,-4.6082,-4.4887,-4.6142,0.0,0.0,0.0,0.0,-4.8359,-4.8848,-4.8887,-4.9043,-4.9453,-4.9232,-4.8788,-4.8307,0.0,0.0,-5.0081,-5.0547,-5.0859,-5.0859,-5.0918,-5.1113,-5.1894,-5.123,-5.0581,-5.0464,-5.0161,-4.9123,-4.6522,-4.5279,-4.3512,-5.7974,0.0,0.0,0.0,0.0,-5.8964,-6.1197,-6.3666,-6.4174,-6.3766,-6.2689,-6.2276,0.0,0.0,0.0,0.0,0.0,0.0,-5.6735,-5.6705,-5.9398,-6.0057,-5.9039,-6.0805,-6.1407,-6.0909,-5.9306,-5.7617,-5.5904,-5.357,-5.3784,-5.6326,0.0,0.0,0.0,0.0,-5.1821,-5.245,-5.1564,-5.1649,-5.2904,-5.2861,-5.2955,-5.3099,-5.298,-5.2854,-5.2703,-5.2327,-5.2729,-5.4009,-5.4009,0.0,0.0,0.0,0.0,0.0,0.0,0.0,0.0,0.0,0.0,0.0,0.0,0.0,0.0,0.0,0.0,0.0,0.0,0.0,-4.8352,-4.5775,-4.435,0.0,0.0,0.0,0.0,0.0,0.0,0.0,0.0,0.0,-4.6206,-4.5541,-4.5056,0.0,0.0,-4.6992,-4.7676,-4.7754,-4.8144,-4.918,-4.9336,0.0,-4.9062,-4.9505,-4.958,-4.8836,-4.9613,-5.0453,-5.0919,-5.1172,-5.1348,-5.166,-5.1719,-5.1797,-5.1914,-5.0879,-4.948,-4.8146,-4.7609,-4.6852,-4.4748,-4.2893,-4.109,-6.2589,-5.9268,-5.9404,-5.981,-6.0486,-6.1975,-6.3552,-6.5115,-6.5249,-6.4873,-6.4053,-6.258,-6.0711,-5.8639,-5.7273,0.0,0.0,0.0,-5.8171,-5.874,-6.0475,-6.1283,-6.1343,-6.251,-6.2901,-6.2344,-5.9644,-5.7495,-5.602,-5.2751,-5.238,-5.464,0.0,0.0,-5.323,-5.196,-5.1511,-5.2068,-5.1774,-5.2051,-5.2904,-5.2861,-5.2861,-5.2861,-5.2861,-5.2861,-5.2929,-5.2628,-5.2879,-5.3858,-5.3783,-5.416,0.0,0.0,0.0,0.0,0.0,0.0,0.0,0.0,0.0,0.0,0.0,-5.6219,-5.6219,0.0,0.0,0.0,-4.9675,-4.6414,-4.5248,-4.3797,0.0,0.0,0.0,0.0,0.0,0.0,0.0,-4.4551,-4.4281,-4.4486,-4.5307,-4.5645,-4.5974,-4.6416,-4.6875,-4.7344,-4.7773,0.0,-4.793,-4.8867,-4.9004,-4.8965,-4.8867,-4.9292,-4.9605,-4.9444,-5.0122,-5.0937,-5.1348,-5.1562,-5.1777,-5.2031,-5.2226,-5.2008,-5.0977,-5.0531,-4.9778,-4.7535,-4.7327,-4.6415,-4.2961,-4.1165,-4.0027,-6.6373,-6.5053,-6.441,-6.3599,-6.2888,-6.4228,-6.4094,-6.2925,-6.2223,-6.3372,-6.5363,-6.0993,-6.0391,-6.2631,-6.0076,0.0,-5.9099,-5.9159,-5.9877,-6.1164,-6.0595,-6.1283,-6.3049,-6.3137,-6.3137,-6.3021,-5.9655,-5.7716,-5.7056,-5.3333,-5.1348,-5.1322,-5.0268,-5.0243,-5.1222,-5.1222,-5.1498,-5.2101,-5.2151,-5.2427,-5.2904,-5.2861,-5.2861,-5.2861,-5.2861,-5.2861,-5.2861,-5.2861,-5.2861,-5.2955,-5.3381,-5.3632,-5.3658,0.0,0.0,0.0,0.0,0.0,0.0,0.0,0.0,0.0,0.0,0.0,0.0,0.0,0.0,-5.134,-4.7416,0.0,-4.2111,-4.1953,0.0,0.0,0.0,-4.4082,-4.4785,-4.4219,-4.375,-4.3711,0.0,0.0,-4.4867,-4.6143,-4.7044,-4.7488,-4.7617,-4.7773,-4.8203,-4.791,-4.7793,-4.834,-4.8359,-4.8496,-4.9004,-4.9118,-4.9376,-5.0011,-5.0455,-5.0879,-5.1211,-5.1582,-5.1875,-5.1992,-5.2107,-5.1486,-4.9055,-5.0028,-5.0523,-4.729,-4.778,-4.6716,-4.1194,-3.9983,-3.927,-7.0018,-6.9722,-6.9519,-6.803,-6.5816,-6.6257,-6.6581,-6.6705,-6.608,-6.4816,-6.3047,-6.1839,-6.0352,-5.8541,-5.7851,-5.8141,-5.9129,-5.9638,-6.0565,-6.1852,-6.2211,-6.263,-6.3137,-6.3137,-6.3137,-6.2875,-5.9655,-5.7955,-5.7594,-5.3861,-5.19,-5.1875,-5.1222,-5.1021,-5.1247,-5.0845,-5.1122,-5.2101,-5.2528,-5.2804,-5.2861,-5.2861,-5.2861,-5.2861,-5.2861,-5.2861,-5.2861,-5.2861,-5.2861,-5.2929,-5.303,-5.313,-5.313,-5.4188,0.0,0.0,0.0,0.0,0.0,0.0,0.0,0.0,0.0,-5.3801,-5.3975,0.0,-4.8676,0.0,-4.6328,-4.4353,-4.3363,-4.3262,0.0,0.0,-4.4238,-4.4394,-4.3633,-4.3945,-4.4101,-4.375,-4.4288,-4.4793,-4.4926,-4.6099,-4.7061,-4.7554,-4.7878,-4.8203,-4.8613,-4.832,-4.834,-4.9004,-4.9141,-4.9375,-4.9707,-4.9886,-4.9886,-5.0156,-5.0303,-5.0371,-5.0469,-5.0547,-5.082,-5.1309,-4.9652,-4.8336,-4.7799,-4.6995,-4.4965,-4.2309,-4.3307,-4.3485,-3.8254,-3.7126,-3.6922,-7.1312,-7.1267,-7.062,-6.9386,-6.7903,-6.8602,-6.8451,-6.7671,-6.736,-6.544,-6.2585,-6.2279,-6.0964,-5.8949,-5.9189,-5.9727,-6.0446,-6.1104,-6.1822,-6.254,-6.2899,-6.3137,-6.3137,-6.3137,-6.3137,-6.3021,-5.9655,-5.7982,-5.7784,-5.427,-5.2352,-5.2101,-5.18,-5.1649,-5.1624,-5.1322,-5.1599,-5.2477,-5.2779,-5.2861,-5.2861,-5.2861,-5.2861,-5.2861,-5.2861,-5.2804,-5.2578,-5.2804,-5.2804,-5.2578,-5.2804,-5.2861,-5.2929,-5.3525,-5.3652,0.0,0.0,0.0,0.0,0.0,0.0,0.0,0.0,0.0,0.0,0.0,-4.68,-4.6332,-4.4742,-4.3647,-4.3418,-4.3242,-4.3203,-4.3398,-4.3867,-4.3945,-4.3418,-4.3789,-4.3984,-4.375,-4.4344,-4.4763,-4.5019,-4.5895,-4.6777,-4.7207,-4.7656,-4.8144,-4.8711,-4.8633,-4.8613,-4.8887,-4.8945,-4.897,-4.9266,-4.9301,-4.9444,-4.9829,-4.9925,-4.9941,-5.0137,-5.0176,-5.0351,-5.055,-4.8566,-4.6279,-4.541,-4.4291,-4.2121,-3.868,-3.9424,-3.9753,-3.655,-3.5832,-3.5765,-7.1312,-7.1143,-6.9775,-6.9184,-6.9265,-7.0343,-6.9298,-6.6906,-6.6783,-6.5328,-6.3049,-6.248,-6.1912,-6.1403,-6.1972,-6.2211,-6.2241,-6.281,-6.3137,-6.3137,-6.3137,-6.3137,-6.3079,-6.2875,-6.2758,-6.2639,-5.929,-5.7667,-5.7551,-5.4482,-5.2678,-5.2226,-5.2201,-5.2226,-5.2226,-5.2201,-5.2452,-5.2861,-5.2861,-5.2861,-5.2861,-5.2861,-5.2861,-5.2861,-5.2854,-5.2603,-5.2126,-5.2503,-5.2528,-5.2151,-5.2553,-5.2854,-5.2929,-5.2955,-5.3181,0.0,-5.4381,0.0,0.0,0.0,0.0,0.0,0.0,0.0,0.0,-4.8746,-4.5657,-4.4425,-4.316,-4.2634,-4.3047,-4.2773,-4.2734,-4.3105,-4.3164,-4.3301,-4.3652,-4.3691,-4.3691,-4.3691,-4.4139,-4.4557,-4.4935,-4.5683,-4.6416,-4.6787,-4.7248,-4.7754,-4.8496,-4.8633,-4.8496,-4.8164,-4.8125,-4.819,-4.8201,-4.8157,-4.8392,-4.9118,-4.9189,-4.9414,-4.9687,-4.9824,-4.9922,-4.9791,-4.7909,-4.5354,-4.2655,-4.1982,-4.0069,-3.5548,-3.6424,-3.7317,-3.5631,-3.5278,-3.5257,-7.1312,-7.1143,-6.9775,-6.9184,-6.9169,-6.8355,-6.701,-6.5436,-6.4376,-6.3592,-6.3107,-6.2929,-6.281,-6.272,-6.2839,-6.2869,-6.2899,-6.3019,-6.3137,-6.3137,-6.3137,-6.3137,-6.3021,-6.1644,-6.0998,-6.0764,-5.752,-5.5881,-5.5831,-5.3884,-5.2879,-5.2779,-5.2779,-5.2779,-5.2779,0.0,0.0,0.0,-5.2861,-5.2861,-5.2861,-5.2861,-5.2861,-5.2861,-5.2503,0.0,-5.2101,-5.1774,-5.1749,-5.2101,-5.2201,0.0,0.0,0.0,0.0,0.0,0.0,0.0,0.0,0.0,0.0,0.0,-5.2673,-5.0928,-5.1232,-4.6384,-4.3394,-4.373,-4.3288,-4.3016,-4.3105,-4.332,-4.3496,-4.3574,-4.3574,-4.3613,-4.3691,-4.3691,-4.3691,-4.3711,-4.4139,-4.4423,-4.4577,-4.5293,-4.591,-4.6289,-4.6738,-4.7246,-4.7715,-4.7812,-4.7812,-4.7695,-4.7656,-4.7695,-4.7683,-4.7715,-4.7695,-4.7942,-4.7981,-4.8027,-4.8164,-4.8418,-4.875,-4.9043,-4.6972,-4.4565,-4.2335,-4.0146,-3.7865,-3.4597,-3.4667,-3.4925,-3.4541,-3.4559,-3.4536,-6.9875,0.0,-6.8503,-6.7824,0.0,-6.5728,-6.4758,-6.4097,-6.4097,-6.3706,-6.3137,-6.3137,-6.3137,-6.3137,-6.3137,-6.3137,-6.3137,-6.3137,-6.3137,-6.3049,-6.272,-6.2195,-6.138,-6.0176,-5.9371,-5.8743,-5.5969,-5.4851,-5.5246,-5.346,-5.2528,-5.2528,-5.2528,-5.2377,-5.2126,-5.2377,-5.2653,-5.2861,-5.2861,-5.2861,-5.2861,-5.2861,-5.2861,-5.2861,-5.2653,0.0,0.0,0.0,0.0,0.0,0.0,0.0,0.0,-5.3168,0.0,-5.3683,-5.4542,-5.5349,-5.6095,-5.5436,-5.4877,-5.4616,-5.1043,-4.848,-4.7846,-4.4824,-4.3242,-4.3652,-4.332,-4.3066,-4.3109,-4.3242,-4.3398,-4.3398,-4.3574,-4.3691,-4.3691,-4.3691,-4.3691,-4.3711,-4.3915,-4.4139,-4.4383,-4.4744,-4.5195,-4.5605,-4.584,-4.6094,-4.6348,-4.707,-4.7461,-4.7031,-4.6758,-4.6719,-4.6914,-4.6953,-4.717,-4.7445,-4.7651,-4.7648,-4.7578,-4.7754,-4.8047,-4.8235,-4.641,-4.4352,-4.3357,-4.0254,-3.707,-3.5763,-3.4684,-3.3868,-3.3895,-3.4108,-3.4269,-6.8307,-6.7521,-6.701,-6.6154,-6.4978,-6.3706,-6.3137,-6.3164,0.0,0.0,0.0,-6.3137,-6.3137,-6.3137,-6.3137,-6.3019,-6.2929,-6.2899,-6.2839,-6.272,-6.2181,-6.1052,-5.9504,-5.8602,-5.7683,-5.6499,-5.4361,-5.3843,-5.4706,-5.2987,-5.2151,-5.2226,-5.2151,-5.1875,-5.1498,-5.1875,-5.2377,-5.2904,-5.2861,-5.2861,-5.2861,-5.2861,-5.2861,-5.2861,-5.2829,-5.2578,-5.2126,-5.2452,-5.2477,-5.2151,-5.2528,-5.2829,-5.2929,-5.2861,-5.3155,-5.3658,-5.3793,-5.4202,-5.4934,-5.3867,-5.2884,-5.2354,-4.9096,-4.6352,-4.4562,-4.3965,-4.3691,-4.3691,-4.3372,-4.3058,-4.3055,-4.3069,-4.3066,-4.3086,-4.3457,-4.3691,-4.3691,-4.3691,-4.3691,-4.3691,-4.3711,-4.3813,-4.4241,-4.4403,-4.4498,-4.4856,-4.5,-4.498,-4.5098,-4.6133,-4.6758,-4.6191,-4.584,-4.5723,-4.5976,-4.6046,-4.6366,-4.6832,-4.7042,-4.7168,-4.7246,-4.7305,-4.7519,-4.7871,-4.6218,-4.489,-4.4021,-4.0703,-3.7621,-3.662,-3.4893,-3.3374,-3.3334,-3.3734,-3.4042,-6.8002,-6.8748,-6.6417,-6.5274,-6.4978,-6.3649,-6.3137,-6.3137,-6.3337,-6.3279,-6.3137,-6.3137,-6.3137,-6.3137,-6.3137,-6.278,-6.2241,-6.2241,-6.1942,-6.1403,-6.1283,-6.0373,-5.881,-5.727,-5.5765,-5.4208,-5.2517,-5.1975,-5.2464,-5.2261,-5.2327,-5.2678,-5.2352,-5.2051,-5.2,-5.2076,-5.2377,-5.2904,-5.2861,-5.2861,-5.2861,-5.2861,-5.2861,-5.2904,-5.2477,-5.2201,-5.2101,-5.1749,-5.1699,-5.2076,-5.2176,-5.2427,-5.2904,-5.2861,-5.3155,-5.3683,-5.4148,-5.4177,-5.3459,-5.1893,-4.9628,-4.655,-4.541,-4.471,-4.4375,-4.3965,-4.3691,-4.3672,-4.3372,-4.31,-4.3081,-4.3136,-4.3066,-4.3105,-4.3457,-4.3691,-4.3691,-4.3691,-4.3691,-4.3691,-4.3691,-4.3711,-4.3813,-4.4139,-4.4383,-4.4517,-4.4582,-4.4824,-4.4609,-4.5,-4.5312,-4.5234,-4.5156,-4.5156,-4.5195,-4.518,-4.5324,-4.5359,-4.5422,-4.5666,-4.6016,-4.6289,-4.6641,-4.7051,-4.6934,-4.5496,-4.2231,-4.0573,-3.8295,-3.521,-3.3773,-3.3227,-3.2839,-3.3173,-3.3521,-6.6695,-6.5866,-6.5328,-6.4678,-6.3958,-6.3337,-6.3137,-6.3137,-6.3137,-6.3137,-6.3137,-6.3137,-6.3137,-6.3049,-6.272,-6.2391,-6.2091,-6.1732,-6.1403,-6.1104,-6.0715,-5.9211,-5.6917,-5.5742,-5.4051,-5.1986,-5.089,-5.0836,-5.1565,-5.1322,-5.1297,-5.1548,-5.1322,-5.1348,-5.1649,-5.195,-5.2377,-5.2836,-5.2861,-5.2861,-5.2861,-5.2861,-5.2861,-5.2904,-5.2653,-5.2553,-5.2553,-5.2302,-5.2302,-5.2528,-5.2553,-5.2678,-5.2904,-5.3206,-5.3582,-5.4135,-5.3663,-5.325,-5.3128,-5.0266,-4.7451,-4.4966,-4.4277,-4.4023,-4.4023,-4.3828,-4.3691,-4.3691,-4.332,-4.3092,-4.3081,-4.3074,-4.3066,-4.3066,-4.3457,-4.3691,-4.3691,-4.3691,-4.3691,-4.3691,-4.3691,-4.3691,-4.3691,-4.3915,-4.3923,-4.3729,-4.368,-4.3613,-4.3691,-4.3848,-4.4062,-4.4258,-4.4512,-4.4551,-4.4394,-4.4564,-4.4642,-4.4724,-4.4895,-4.5039,-4.5273,-4.5527,-4.5859,-4.6445,-4.6777,-4.6229,-4.4033,-4.1866,-3.9434,-3.7597,-3.431,-3.3206,-3.275,-3.2786,-3.3026,-6.5515,-6.3649,-6.4376,-6.404,-6.3137,-6.3137,-6.3137,-6.3137,-6.3137,-6.3137,-6.3079,-6.2929,-6.2869,-6.281,-6.2301,-6.1942,-6.1642,-6.1283,-6.0954,-6.0625,-6.0116,-5.8169,-5.5321,-5.458,-5.3021,-5.0619,-4.9866,-5.0167,-5.1096,-5.0695,-5.0419,-5.0419,-5.0544,-5.0845,-5.1297,-5.1825,-5.2377,-5.2879,-5.2861,-5.2861,-5.2861,-5.2861,-5.2861,-5.2861,-5.2861,-5.2861,-5.2861,-5.2861,-5.2861,-5.2861,-5.2861,-5.298,-5.3105,-5.3476,-5.4004,-5.452,-5.3205,-5.2127,-5.1485,-4.8259,-4.5596,-4.4346,-4.3906,-4.3691,-4.3691,-4.3691,-4.3691,-4.3691,-4.3346,-4.3074,-4.3111,-4.3111,-4.3066,-4.3105,-4.3457,-4.3691,-4.3691,-4.3691,-4.3691,-4.3691,-4.3691,-4.3691,-4.3691,-4.3691,-4.3539,-4.3153,-4.2719,-4.2578,-4.2871,-4.2988,-4.3223,-4.3535,-4.3945,-4.4101,-4.3789,-4.397,-4.417,-4.4222,-4.443,-4.4621,-4.4668,-4.4785,-4.5078,-4.5703,-4.5937,-4.5647,-4.5802,-4.2777,-3.9703,-3.7923,-3.5018,-3.2656,-3.2452,-3.2291,-3.2478,-6.5136,-6.4764,-6.3732,-6.3222,-6.3137,-6.3137,-6.3137,-6.3137,-6.3137,-6.3137,-6.2989,-6.245,-6.2211,-6.2181,-6.2151,-6.1493,-6.0446,-6.0864,-6.0475,-5.9428,-5.9219,-5.7528,-5.4762,-5.4414,-5.3021,-5.0659,-4.9906,-5.0142,-5.1096,-5.0645,-5.0393,-5.0469,-5.0946,-5.1222,-5.1348,-5.185,-5.2377,-5.2836,-5.2861,-5.2861,-5.2861,-5.2861,-5.2861,-5.2861,-5.2861,-5.2861,-5.2861,-5.2861,-5.2861,-5.2861,-5.2861,-5.3155,-5.3532,-5.3709,-5.4188,-5.5117,-5.3324,-5.0987,-4.766,-4.5291,-4.3958,-4.375,-4.375,-4.3691,-4.3691,-4.3691,-4.3691,-4.3609,-4.3366,-4.3104,-4.3128,-4.3079,-4.3125,-4.3144,-4.3476,-4.3691,-4.3691,-4.3691,-4.3691,-4.3691,-4.3691,-4.3691,-4.3691,-4.3691,-4.3516,-4.3069,-4.2698,-4.2441,-4.2558,-4.2871,-4.3105,-4.3223,-4.3516,-4.375,-4.3652,-4.3712,-4.385,-4.3797,-4.3833,-4.3887,-4.4023,-4.4238,-4.4531,-4.4726,-4.4922,-4.4596,-4.2863,-4.0142,-3.8164,-3.6443,-3.4273,-3.2398,-3.2158,-3.1757,-3.177,-6.4634,-6.3845,-6.3337,-6.3137,-6.3137,-6.3137,-6.3137,-6.3137,-6.3137,-6.2869,-6.245,-6.1798,-6.1918,-6.263,-6.2271,-6.1583,-6.0715,-6.0565,-6.0027,-5.9159,-5.9099,-5.7915,-5.5849,-5.48,-5.3349,-5.1353,-5.018,-4.9841,-5.0167,-5.0042,-5.0092,-5.0444,-5.0996,-5.1448,-5.1774,-5.2302,-5.2703,-5.2861,-5.2861,-5.2861,-5.2861,-5.2861,-5.2861,-5.2861,-5.2861,-5.2861,-5.2861,-5.2861,-5.2861,-5.2861,-5.2861,-5.3155,-5.3683,-5.4049,-5.4056,-5.3473,-5.0735,-4.787,-4.5128,-4.4166,-4.3691,-4.3691,-4.3691,-4.3691,-4.3691,-4.3691,-4.3691,-4.3691,-4.357,-4.3468,-4.3468,-4.3433,-4.3457,-4.3476,-4.3613,-4.3711,-4.3691,-4.3711,-4.3691,-4.3691,-4.3691,-4.3691,-4.3691,-4.3487,-4.3195,-4.277,-4.2519,-4.2441,-4.2461,-4.2793,-4.3164,-4.3398,-4.3613,-4.357,-4.3448,-4.3578,-4.3601,-4.3472,-4.357,-4.3691,-4.373,-4.3808,-4.3984,-4.3965,-4.4121,-4.4104,-4.3698,-4.0106,-3.7305,-3.5515,-3.3205,-3.1463,-3.1343,-3.1142,-3.1249,-6.4319,-6.3196,-6.3137,-6.3137,-6.3137,-6.3137,-6.3137,-6.3107,-6.2899,-6.254,-6.2061,-6.1413,-6.1712,-6.263,-6.2094,-6.1556,-6.1104,-6.0595,-5.9997,-5.9428,-5.9368,-5.8232,-5.6108,-5.5144,-5.3552,-5.1638,-5.0219,-4.969,-4.9816,-5.0017,-5.0268,-5.0695,-5.1222,-5.1699,-5.2126,-5.2653,-5.2861,-5.2861,-5.2861,-5.2861,-5.2861,-5.2861,-5.2861,-5.2861,-5.2861,-5.2861,-5.2861,-5.2861,-5.2861,-5.2861,-5.2861,-5.3231,-5.3909,-5.4386,-5.3715,-5.1699,-4.8602,-4.592,-4.3856,-4.3691,-4.3691,-4.3691,-4.3691,-4.3691,-4.3691,-4.3691,-4.3691,-4.3691,-4.3691,-4.3691,-4.3691,-4.3691,-4.3691,-4.3711,-4.3789,-4.3867,-4.373,-4.3789,-4.3867,-4.373,-4.3691,-4.3691,-4.3691,-4.3346,-4.2992,-4.2712,-4.2519,-4.25,-4.2598,-4.2891,-4.3223,-4.3613,-4.3691,-4.3589,-4.3366,-4.3531,-4.3487,-4.3468,-4.3589,-4.3652,-4.3594,-4.3535,-4.3398,-4.334,-4.3359,-4.2837,-4.1873,-3.9234,-3.6299,-3.5316,-3.3134,-3.0621,-3.0595,-3.0595,-3.0702,-6.4319,-6.3166,-6.3137,-6.3137,-6.3137,-6.3137,-6.3137,-6.3049,-6.245,-6.2151,-6.2002,-6.1413,-6.1473,-6.2061,-6.1473,-6.1145,-6.1108,-6.1044,-6.0625,-6.0027,-5.9912,-5.8023,-5.4706,-5.4939,-5.3565,-5.0932,-5.0074,-4.9891,-5.0393,-5.0896,-5.1222,-5.1272,-5.1774,-5.2051,-5.2226,-5.2678,-5.2861,-5.2861,-5.2861,-5.2861,-5.2861,-5.2861,-5.2861,-5.2861,-5.2861,-5.2861,-5.2861,-5.2861,-5.2861,-5.2861,-5.2861,-5.3406,-5.4386,-5.4452,-5.3029,-5.0244,-4.7976,-4.5839,-4.4021,-4.3691,-4.3691,-4.3691,-4.3691,-4.3691,-4.3691,-4.3691,-4.3691,-4.3691,-4.3691,-4.3691,-4.3691,-4.3691,-4.3691,-4.373,-4.4082,-4.4082,-4.3789,-4.4043,-4.4121,-4.3848,-4.373,-4.3711,-4.3691,-4.3366,-4.3172,-4.2965,-4.2695,-4.2598,-4.291,-4.3066,-4.3301,-4.3574,-4.3691,-4.3691,-4.3691,-4.3691,-4.3691,-4.3589,-4.357,-4.3613,-4.332,-4.3066,-4.291,-4.2715,-4.2715,-4.192,-4.0133,-3.7726,-3.4803,-3.3085,-3.1679,-3.0114,-3.0087,-3.0247,-3.0368,-6.3549,-6.3137,-6.3137,-6.3137,-6.3137,-6.3137,-6.3137,-6.3049,-6.2839,-6.2241,-6.1523,-6.1227,-6.0988,-6.0835,-6.1011,-6.1335,-6.1702,-6.1313,-6.0745,-5.9976,-5.8641,-5.7396,-5.6415,-5.432,-5.2926,-5.1895,-5.0677,-5.0398,-5.0938,-5.1206,-5.1473,-5.18,-5.2,-5.2277,-5.2603,-5.2829,-5.2861,-5.2861,-5.2861,-5.2861,-5.2861,-5.2861,-5.2861,-5.2861,-5.2861,-5.2861,-5.2861,-5.2861,-5.2861,-5.2861,-5.2861,-5.3256,-5.3748,-5.2112,-5.0193,-4.8071,-4.6003,-4.4494,-4.3856,-4.3691,-4.3691,-4.3691,-4.3691,-4.3691,-4.3691,-4.3691,-4.3691,-4.3691,-4.3691,-4.3691,-4.3691,-4.3691,-4.3691,-4.373,-4.3848,-4.4062,-4.4082,-4.4043,-4.3984,-4.4062,-4.3906,-4.3691,-4.3711,-4.3589,-4.3414,-4.3183,-4.3164,-4.3203,-4.3125,-4.3301,-4.3535,-4.3633,-4.3691,-4.3691,-4.3691,-4.3691,-4.3691,-4.3691,-4.3691,-4.3672,-4.3476,-4.3398,-4.3262,-4.291,-4.2656,-4.1395,-3.953,-3.6011,-3.3231,-3.1179,-2.9686,-2.9766,-2.9673,-2.994,-3.01,-6.3137,-6.3137,-6.3137,-6.3137,-6.3137,-6.3137,-6.3137,-6.3019,-6.263,-6.1942,-6.1164,-6.086,-6.0591,-6.0565,-6.1151,-6.1806,-6.2301,-6.1732,-6.1164,-6.0604,-5.8548,-5.7483,-5.6717,-5.4194,-5.2597,-5.2284,-5.143,-5.1154,-5.1557,-5.1707,-5.2,-5.2352,-5.2377,-5.2553,-5.281,-5.2861,-5.2861,-5.2861,-5.2861,-5.2861,-5.2861,-5.2861,-5.2861,-5.2861,-5.2861,-5.2861,-5.2861,-5.2861,-5.3005,-5.3155,-5.3181,-5.3217,-5.2964,-5.0175,-4.7869,-4.672,-4.4843,-4.3691,-4.3691,-4.3691,-4.3691,-4.3691,-4.3691,-4.3691,-4.3691,-4.3691,-4.3691,-4.3691,-4.3691,-4.3691,-4.3691,-4.3691,-4.3769,-4.3906,-4.4043,-4.418,-4.4355,-4.4121,-4.4043,-4.4062,-4.3887,-4.3789,-4.3906,-4.394,-4.3901,-4.373,-4.3867,-4.3789,-4.3633,-4.3574,-4.3691,-4.3691,-4.3691,-4.3813,-4.3813,-4.3833,-4.373,-4.3711,-4.3691,-4.3691,-4.3672,-4.3633,-4.3476,-4.3125,-4.2144,-4.0784,-3.8223,-3.4539,-3.1931,-2.9811,-2.9419,-2.9655,-2.9593,-2.97,-2.994,-6.3137,-6.3137,-6.3137,-6.3137,-6.3137,-6.3137,-6.3137,-6.2899,-6.1852,-6.1433,-6.1164,-6.0571,-6.0666,-6.107,-6.1695,-6.2382,-6.2747,-6.2331,-6.1888,-6.1511,-5.9858,-5.791,-5.6114,-5.4661,-5.3049,-5.1554,-5.1842,-5.2043,-5.2043,-5.2477,-5.2804,-5.2879,-5.2785,-5.2785,-5.2861,-5.2861,-5.2861,-5.2861,-5.2861,-5.2861,-5.2861,-5.2861,-5.2861,-5.2861,-5.2861,-5.2861,-5.2861,-5.2861,-5.3155,-5.3582,-5.3493,-5.3126,-5.1633,-4.8763,-4.68,-4.6295,-4.4783,-4.3856,-4.3691,-4.3691,-4.3691,-4.3691,-4.3691,-4.3691,-4.3691,-4.3691,-4.3711,-4.3793,-4.375,-4.3769,-4.3808,-4.3887,-4.3984,-4.4316,-4.4512,-4.459,-4.4453,-4.4414,-4.4238,-4.3906,-4.3852,-4.3926,-4.4233,-4.4414,-4.4485,-4.4661,-4.457,-4.4375,-4.4277,-4.4082,-4.3808,-4.375,-4.3887,-4.4106,-4.4092,-4.4057,-4.3852,-4.373,-4.3711,-4.3691,-4.3633,-4.3594,-4.3496,-4.3102,-4.114,-3.9614,-3.6242,-3.2845,-3.0793,-2.9159,-2.932,-2.948,-2.9547,-2.9593,-2.9927,-6.3137,-6.3137,-6.3137,-6.3137,-6.3137,-6.3137,-6.3137,-6.3107,-6.26,-6.2211,-6.1819,-6.1563,-6.1327,-6.1283,-6.1825,-6.2244,-6.2421,-6.26,-6.1963,-6.0208,-5.8232,-5.6589,-5.4965,-5.3178,-5.1997,-5.1465,-5.185,-5.2065,-5.2223,-5.2616,-5.2861,-5.2861,-5.2861,-5.2861,-5.2861,-5.2861,-5.2861,-5.2861,-5.2861,-5.2861,-5.2861,-5.2861,-5.2861,-5.2861,-5.2861,-5.2861,-5.2861,-5.2861,-5.3181,-5.3683,-5.2367,-5.0472,-4.8265,-4.6862,-4.5791,-4.4763,-4.4126,-4.3691,-4.3691,-4.3691,-4.3691,-4.3691,-4.3691,-4.3691,-4.3691,-4.3691,-4.3813,-4.4076,-4.4209,-4.4277,-4.459,-4.4902,-4.4707,-4.4004,-4.4043,-4.4297,-4.4414,-4.4629,-4.4609,-4.4341,-4.4458,-4.4616,-4.4746,-4.4806,-4.4914,-4.5051,-4.4941,-4.4824,-4.4785,-4.4668,-4.4473,-4.4277,-4.4394,-4.4478,-4.4508,-4.4489,-4.4444,-4.4243,-4.4126,-4.3789,-4.3691,-4.3691,-4.3574,-4.2334,-4.0345,-3.775,-3.4371,-3.1739,-2.9772,-2.9078,-2.9253,-2.9346,-2.9387,-2.9614,-2.9847,-6.3137,-6.3137,-6.3137,-6.3137,-6.3137,-6.3137,-6.3137,-6.3019,-6.281,-6.248,-6.2148,-6.2104,-6.1838,-6.1672,-6.2159,-6.2428,-6.2453,-6.2319,-6.0995,-5.903,-5.7623,-5.6151,-5.4734,-5.2833,-5.19,-5.195,-5.2251,-5.2366,-5.2454,-5.2717,-5.2861,-5.2861,-5.2861,-5.2861,-5.2861,-5.2861,-5.2861,-5.2861,-5.2861,-5.2861,-5.2861,-5.2861,-5.2861,-5.2861,-5.2861,-5.2861,-5.2861,-5.2861,-5.3281,-5.3417,-5.1752,-4.9094,-4.6574,-4.5608,-4.4683,-4.3942,-4.3691,-4.3691,-4.3691,-4.3691,-4.3691,-4.3691,-4.3691,-4.3691,-4.3691,-4.3691,-4.3915,-4.4301,-4.443,-4.4583,-4.4997,-4.5246,-4.5019,-4.4316,-4.4258,-4.4258,-4.4453,-4.4629,-4.4766,-4.4674,-4.4828,-4.5044,-4.5195,-4.5232,-4.5309,-4.5375,-4.5371,-4.5273,-4.5234,-4.5117,-4.4883,-4.4746,-4.4766,-4.4811,-4.4946,-4.4921,-4.4974,-4.4752,-4.464,-4.4185,-4.3828,-4.3882,-4.3862,-4.15,-3.9449,-3.6946,-3.3628,-3.1238,-2.9219,-2.9293,-2.9199,-2.9279,-2.936,-2.9459,-2.978,-6.3166,-6.3137,-6.3137,-6.3137,-6.3137,-6.3137,-6.3137,-6.3047,-6.251,-6.2271,-6.2208,-6.2228,-6.2198,-6.2328,-6.278,-6.2874,-6.2672,-6.1348,-5.9659,-5.8237,-5.7396,-5.6526,-5.4811,-5.3318,-5.2703,-5.266,-5.276,-5.281,-5.2717,-5.2836,-5.2861,-5.2861,-5.2861,-5.2861,-5.2861,-5.2861,-5.2861,-5.2861,-5.2861,-5.2861,-5.2861,-5.2861,-5.2861,-5.2861,-5.2861,-5.2861,-5.2861,-5.2734,-5.3113,-5.3632,-5.1216,-4.894,-4.6674,-4.4681,-4.3837,-4.3711,-4.373,-4.3789,-4.3769,-4.3906,-4.3867,-4.3828,-4.3808,-4.375,-4.3808,-4.3769,-4.4017,-4.4505,-4.4528,-4.4628,-4.5068,-4.5241,-4.511,-4.5078,-4.4902,-4.4766,-4.4492,-4.4531,-4.4785,-4.5019,-4.5078,-4.5234,-4.5664,-4.5735,-4.5871,-4.6046,-4.5898,-4.5742,-4.5664,-4.5488,-4.5195,-4.5137,-4.5215,-4.5261,-4.5353,-4.5444,-4.5457,-4.5287,-4.5111,-4.4733,-4.3729,-4.3562,-4.1909,-3.9756,-3.8135,-3.5639,-3.3165,-3.0636,-2.9333,-2.9246,-2.9246,-2.9239,-2.9387,-2.9574,-2.9726,-6.3993,-6.3137,-6.3137,-6.3137,-6.3137,-6.3137,-6.3137,-6.3107,-6.2899,-6.278,-6.2837,-6.2807,-6.2834,-6.2839,-6.2959,-6.2438,-6.1377,-6.069,-5.8765,-5.644,-5.6076,-5.5115,-5.381,-5.3179,-5.2717,-5.2479,-5.2717,-5.2717,-5.236,-5.2717,-5.2861,-5.2861,-5.2861,-5.2861,-5.2861,-5.2861,-5.2861,-5.2861,-5.2861,-5.2861,-5.2861,-5.2861,-5.2861,-5.2861,-5.2861,-5.2861,-5.2798,-5.2154,-5.1052,-5.003,-5.0139,-4.8237,-4.5027,-4.4064,-4.3691,-4.375,-4.3999,-4.4174,-4.4277,-4.4473,-4.4512,-4.4258,-4.418,-4.4219,-4.4199,-4.3906,-4.4281,-4.4952,-4.5075,-4.5129,-4.5803,-4.5948,-4.582,-4.5508,-4.5293,-4.5039,-4.4941,-4.5156,-4.5391,-4.5508,-4.5762,-4.5957,-4.6074,-4.6085,-4.6182,-4.6269,-4.6191,-4.6094,-4.5996,-4.5976,-4.5723,-4.5683,-4.5703,-4.575,-4.577,-4.5946,-4.5946,-4.5758,-4.5535,-4.5351,-4.3953,-4.2705,-3.9539,-3.6053,-3.5951,-3.4119,-3.1945,-2.9636,-2.9407,-2.9373,-2.9367,-2.944,-2.9629,-2.9839,-2.9829,-6.3787,-6.3137,-6.3137,-6.3137,-6.3137,-6.3137,-6.3137,-6.3137,-6.3137,-6.3137,-6.3137,-6.3137,-6.3137,-6.3137,-6.3079,-6.2145,-6.06,-5.9721,-5.7914,-5.5748,-5.4675,-5.3784,-5.3042,-5.2861,-5.2717,-5.2504,-5.2742,-5.2717,-5.2504,-5.2742,-5.2861,-5.2861,-5.2861,-5.2861,-5.2861,-5.2861,-5.2861,-5.2861,-5.2861,-5.2861,-5.2861,-5.2861,-5.2861,-5.2861,-5.2861,-5.2704,-5.2024,-5.1826,-5.0779,-4.9207,-4.853,-4.7086,-4.4166,-4.3691,-4.3691,-4.373,-4.4135,-4.4388,-4.4492,-4.4785,-4.4902,-4.4668,-4.4531,-4.4512,-4.4531,-4.4258,-4.4517,-4.5466,-4.5391,-4.5652,-4.6113,-4.6308,-4.6191,-4.5957,-4.5723,-4.5488,-4.5332,-4.5508,-4.5742,-4.5937,-4.6133,-4.6308,-4.6308,-4.6308,-4.6308,-4.6308,-4.6289,-4.6269,-4.6269,-4.6289,-4.6269,-4.6113,-4.6035,-4.6063,-4.6044,-4.6094,-4.6133,-4.6005,-4.5809,-4.5703,-4.4491,-4.2462,-3.9217,-3.616,-3.4581,-3.2823,-3.0928,-2.9633,-2.9695,-2.9641,-2.9553,-2.9641,-2.9859,-3.0042,-3.0003,-6.3196,-6.3137,-6.3137,-6.3137,-6.3137,-6.3137,-6.3137,-6.3137,-6.3137,-6.3137,-6.3137,-6.3137,-6.3137,-6.3079,-6.2705,-6.1761,-6.0055,-5.8418,-5.6763,-5.5008,-5.381,-5.2998,-5.2929,-5.2861,-5.2861,-5.2836,-5.2861,-5.2861,-5.2836,-5.2861,-5.2861,-5.2861,-5.2861,-5.2861,-5.2861,-5.2861,-5.2861,-5.2861,-5.2861,-5.2861,-5.2861,-5.2861,-5.2861,-5.2929,-5.308,-5.2379,-5.161,-5.1326,-5.0769,-4.883,-4.7489,-4.6001,-4.4143,-4.3769,-4.3828,-4.3984,-4.4394,-4.4648,-4.4648,-4.5039,-4.5176,-4.5078,-4.4766,-4.4687,-4.4922,-4.4707,-4.4848,-4.578,-4.5726,-4.5868,-4.6191,-4.6308,-4.6289,-4.6211,-4.623,-4.6094,-4.5859,-4.5742,-4.5879,-4.623,-4.6308,-4.6308,-4.6308,-4.6308,-4.6308,-4.6308,-4.6308,-4.6308,-4.6308,-4.6289,-4.6289,-4.625,-4.625,-4.6269,-4.6269,-4.6269,-4.6269,-4.6172,-4.5976,-4.5753,-4.5087,-4.3061,-4.0068,-3.7363,-3.469,-3.2483,-3.0485,-2.9847,-2.9873,-2.9873,-2.9793,-2.9847,-2.994,-3.0164,-3.0261,-6.4053,-6.3137,-6.3137,-6.3137,-6.3137,-6.3137,-6.3137,-6.3137,-6.3137,-6.3137,-6.3137,-6.3137,-6.3137,-6.3051,-6.181,-6.0121,-5.8599,-5.6828,-5.5049,-5.3563,-5.3179,-5.2929,-5.2861,-5.2861,-5.2861,-5.2861,-5.2861,-5.2861,-5.2861,-5.2861,-5.2861,-5.2861,-5.2861,-5.2861,-5.2861,-5.2861,-5.2861,-5.2861,-5.2861,-5.2861,-5.2929,-5.298,-5.3005,-5.3055,-5.3217,-5.2878,-5.1792,-5.0503,-4.904,-4.7648,-4.6825,-4.58,-4.4561,-4.4253,-4.439,-4.4674,-4.5052,-4.5412,-4.5476,-4.5683,-4.5859,-4.5547,-4.541,-4.543,-4.5469,-4.5137,-4.532,-4.5844,-4.5868,-4.5918,-4.623,-4.6308,-4.6308,-4.6308,-4.6308,-4.6269,-4.6172,-4.6152,-4.6191,-4.6269,-4.6308,-4.6308,-4.6308,-4.6308,-4.6308,-4.6308,-4.6308,-4.6308,-4.6308,-4.6308,-4.6308,-4.6308,-4.6308,-4.6308,-4.6308,-4.6308,-4.6308,-4.6308,-4.6152,-4.5406,-4.4739,-4.3348,-4.0263,-3.7217,-3.4192,-3.2112,-3.0187,-2.9967,-2.9967,-2.998,-3.006,-3.0183,-3.0252,-3.0423,-3.0501,-6.4319,-6.3166,-6.3137,-6.3137,-6.3137,-6.3137,-6.3137,-6.3137,-6.3137,-6.3137,-6.3137,-6.3137,-6.3137,-6.2935,-6.1296,-5.9577,-5.767,-5.5314,-5.381,-5.3067,-5.2929,-5.2861,-5.2861,-5.2861,-5.2861,-5.2861,-5.2861,-5.2861,-5.2861,-5.2861,-5.2861,-5.2861,-5.2861,-5.2861,-5.2861,-5.2861,-5.2861,-5.2861,-5.2861,-5.2861,-5.2929,-5.3181,-5.3482,-5.3453,-5.3214,-5.2403,-5.07,-4.903,-4.723,-4.59,-4.5596,-4.5325,-4.471,-4.4582,-4.4817,-4.5046,-4.5469,-4.5672,-4.5781,-4.6035,-4.6191,-4.5976,-4.5801,-4.582,-4.582,-4.5586,-4.5644,-4.6074,-4.6133,-4.6094,-4.6269,-4.6308,-4.6308,-4.6308,-4.6308,-4.6308,-4.6308,-4.6308,-4.6308,-4.6308,-4.6308,-4.6308,-4.6308,-4.6308,-4.6308,-4.6308,-4.6308,-4.6308,-4.6308,-4.6308,-4.6308,-4.6308,-4.6308,-4.6308,-4.6308,-4.6308,-4.6308,-4.6308,-4.6269,-4.5102,-4.3932,-4.229,-4.0438,-3.732,-3.426,-3.1968,-3.0361,-3.0204,-3.0164,-3.024,-3.0325,-3.0543,-3.0637,-3.077,-3.0756,-6.4319,-6.3137,-6.3137,-6.3137,-6.3137,-6.3137,-6.3137,-6.3137,-6.3137,-6.3137,-6.3137,-6.3137,-6.3137,-6.2644,-6.0851,-5.913,-5.6742,-5.4701,-5.2998,-5.2929,-5.2861,-5.2861,-5.2861,-5.2861,-5.2861,-5.2861,-5.2861,-5.2861,-5.2861,-5.2861,-5.2861,-5.2861,-5.2861,-5.2861,-5.2861,-5.2861,-5.2861,-5.2861,-5.2861,-5.298,-5.308,-5.3457,-5.3959,-5.4302,-5.3132,-5.1573,-4.9779,-4.805,-4.6125,-4.3994,-4.4316,-4.4531,-4.4668,-4.4909,-4.5156,-4.5215,-4.5647,-4.5803,-4.5918,-4.6113,-4.6308,-4.6348,-4.6113,-4.6133,-4.6328,-4.6289,-4.6318,-4.6405,-4.6483,-4.6357,-4.6308,-4.6308,-4.6308,-4.6308,-4.6308,-4.6308,-4.6308,-4.6308,-4.6308,-4.6308,-4.6308,-4.6308,-4.6308,-4.6308,-4.6308,-4.6308,-4.6308,-4.6308,-4.6308,-4.6308,-4.6308,-4.6308,-4.6308,-4.6308,-4.6308,-4.6308,-4.6308,-4.6114,-4.6114,-4.4738,-4.2996,-4.0352,-3.8439,-3.7151,-3.4608,-3.2294,-3.0704,-3.0405,-3.0338,-3.0452,-3.0644,-3.0836,-3.0996,-3.1074,-3.1129,-6.4319,-6.3137,-6.3137,-6.3137,-6.3137,-6.3137,-6.3137,-6.3137,-6.3137,-6.3137,-6.3137,-6.3137,-6.3137,-6.2381,-5.9696,-5.6793,-5.4511,-5.3179,-5.2861,-5.2861,-5.2861,-5.2861,-5.2861,-5.2861,-5.2861,-5.2861,-5.2861,-5.2861,-5.2861,-5.2861,-5.2861,-5.2861,-5.2861,-5.2861,-5.2861,-5.2861,-5.2955,-5.303,-5.303,-5.3149,-5.3539,-5.3828,-5.434,-5.4924,-5.3423,-5.1553,-4.9874,-4.8184,-4.6414,-4.4587,-4.5124,-4.5351,-4.5457,-4.553,-4.568,-4.5898,-4.6046,-4.6123,-4.6172,-4.625,-4.6504,-4.6699,-4.6719,-4.6894,-4.7168,-4.7207,-4.7091,-4.71,-4.6982,-4.6689,-4.6308,-4.6367,-4.6308,-4.6308,-4.6308,-4.6308,-4.6308,-4.6348,-4.6328,-4.6308,-4.6308,-4.6308,-4.6308,-4.6308,-4.6308,-4.6308,-4.6308,-4.6308,-4.6308,-4.6308,-4.6308,-4.6308,-4.6308,-4.6308,-4.6308,-4.6308,-4.6221,-4.5851,-4.5392,-4.41,-4.1888,-3.8321,-3.6221,-3.5791,-3.4622,-3.2532,-3.1463,-3.0657,-3.0593,-3.067,-3.0941,-3.1156,-3.1195,-3.1328,-3.1462,-6.5001,-6.3166,-6.3137,-6.3137,-6.3137,-6.3137,-6.3137,-6.3137,-6.3137,-6.3137,-6.3137,-6.3137,-6.3137,-6.2204,-5.951,-5.6119,-5.364,-5.2861,-5.2861,-5.2861,-5.2861,-5.2861,-5.2861,-5.2861,-5.2861,-5.2861,-5.2861,-5.2861,-5.2861,-5.2861,-5.2861,-5.2861,-5.2861,-5.2861,-5.2861,-5.2861,-5.3105,-5.3231,-5.3331,-5.3621,-5.4157,-5.4381,-5.5039,-5.5034,-5.3811,-5.1857,-5.0009,-4.8414,-4.6516,-4.5015,-4.5215,-4.5586,-4.577,-4.5868,-4.6091,-4.623,-4.6328,-4.6308,-4.6367,-4.6465,-4.6738,-4.6894,-4.7129,-4.7344,-4.75,-4.759,-4.764,-4.7583,-4.7425,-4.7091,-4.668,-4.6621,-4.6523,-4.6348,-4.6308,-4.6328,-4.6367,-4.6504,-4.6484,-4.6406,-4.6328,-4.6328,-4.6308,-4.6308,-4.6308,-4.6308,-4.6308,-4.6328,-4.6328,-4.6308,-4.6308,-4.6308,-4.6308,-4.6308,-4.6308,-4.6308,-4.6308,-4.5851,-4.4914,-4.3638,-4.1816,-3.8703,-3.6652,-3.5514,-3.4099,-3.2218,-3.1551,-3.0688,-3.0834,-3.0928,-3.1169,-3.145,-3.1475,-3.1555,-3.1704,-6.5329,-6.3137,-6.3137,-6.3137,-6.3137,-6.3137,-6.3137,-6.3137,-6.3137,-6.3137,-6.3137,-6.3137,-6.3137,-6.2175,-5.9532,-5.6168,-5.3042,-5.2861,-5.2861,-5.2861,-5.2861,-5.2861,-5.2861,-5.2861,-5.2861,-5.2861,-5.2861,-5.2861,-5.2861,-5.2861,-5.2861,-5.2861,-5.2861,-5.3005,-5.308,-5.3155,-5.3406,-5.3733,-5.3884,-5.4225,-5.4749,-5.5257,-5.5739,-5.5949,-5.4272,-5.2253,-5.0233,-4.878,-4.6865,-4.5579,-4.5371,-4.582,-4.5859,-4.622,-4.6435,-4.6426,-4.6396,-4.6416,-4.6543,-4.6836,-4.7129,-4.7324,-4.7539,-4.7715,-4.7871,-4.7969,-4.7942,-4.7734,-4.7683,-4.7508,-4.7157,-4.6903,-4.6836,-4.6699,-4.6562,-4.6504,-4.6699,-4.6816,-4.6816,-4.668,-4.6552,-4.6562,-4.6601,-4.6581,-4.6601,-4.6631,-4.665,-4.6484,-4.6484,-4.6328,-4.6308,-4.6308,-4.6308,-4.6308,-4.6308,-4.6308,-4.6308,-4.6114,-4.4914,-4.3549,-4.1816,-3.9614,-3.7648,-3.5174,-3.2994,-3.1443,-3.0981,-3.0929,-3.1102,-3.1276,-3.1557,-3.161,-3.165,-3.1757,-3.1851,-6.4468,-6.3137,-6.3137,-6.3137,-6.3137,-6.3137,-6.3137,-6.3137,-6.3137,-6.3137,-6.3137,-6.3079,-6.3079,-6.1998,-5.947,-5.6103,-5.3742,-5.2861,-5.2861,-5.2861,-5.2861,-5.2861,-5.2861,-5.2861,-5.2861,-5.2861,-5.2861,-5.2861,-5.2955,-5.2955,-5.2929,-5.2929,-5.308,-5.313,-5.3482,-5.3582,-5.3909,-5.4386,-5.4582,-5.4834,-5.5361,-5.5842,-5.6168,-5.5855,-5.4636,-5.2767,-5.0748,-4.9295,-4.7647,-4.5812,-4.5918,-4.6191,-4.6337,-4.661,-4.6758,-4.6836,-4.6784,-4.6792,-4.6903,-4.7246,-4.7617,-4.7832,-4.8066,-4.832,-4.8457,-4.8535,-4.8509,-4.8157,-4.8118,-4.7896,-4.7522,-4.7215,-4.7098,-4.7129,-4.7031,-4.709,-4.7246,-4.7305,-4.7266,-4.7228,-4.714,-4.7032,-4.7041,-4.7021,-4.6914,-4.6964,-4.6954,-4.6787,-4.6562,-4.6387,-4.6308,-4.6308,-4.6426,-4.6445,-4.6592,-4.6552,-4.6582,-4.6504,-4.4939,-4.3444,-4.1904,-3.988,-3.6911,-3.45,-3.2394,-3.1316,-3.1289,-3.133,-3.1343,-3.1436,-3.1678,-3.165,-3.1664,-3.181,-3.1998,-6.3609,-6.3137,-6.3137,-6.3137,-6.3137,-6.3137,-6.3137,-6.3137,-6.3137,-6.3137,-6.3137,-6.3079,-6.2116,-6.0266,-5.8446,-5.6103,-5.3495,-5.2861,-5.2861,-5.2861,-5.2861,-5.2861,-5.2861,-5.2861,-5.2861,-5.2861,-5.2861,-5.2861,-5.3005,-5.3181,-5.3256,-5.3055,-5.3482,-5.3758,-5.3959,-5.4059,-5.4712,-5.5458,-5.6031,-5.6406,-5.6468,-5.6821,-5.7148,-5.6999,-5.5238,-5.3179,-5.1228,-4.9579,-4.7871,-4.624,-4.6074,-4.6426,-4.6631,-4.6846,-4.7032,-4.7305,-4.7561,-4.747,-4.7371,-4.7734,-4.7988,-4.8203,-4.8418,-4.8652,-4.8828,-4.8848,-4.8901,-4.8646,-4.858,-4.8337,-4.8085,-4.7748,-4.7586,-4.7558,-4.7461,-4.75,-4.7637,-4.7812,-4.7793,-4.7808,-4.7751,-4.7702,-4.7613,-4.7472,-4.7405,-4.716,-4.7072,-4.6797,-4.6601,-4.6348,-4.6308,-4.6308,-4.6465,-4.6729,-4.6807,-4.6954,-4.7129,-4.6714,-4.4726,-4.3307,-4.2008,-3.9889,-3.6744,-3.4475,-3.2873,-3.2096,-3.184,-3.153,-3.1383,-3.1503,-3.1664,-3.1784,-3.1808,-3.1971,-3.2158,-6.3137,-6.3137,-6.3137,-6.3137,-6.3137,-6.3137,-6.3137,-6.3137,-6.3137,-6.3137,-6.2963,-6.2555,-6.0632,-5.8244,-5.7323,-5.5578,-5.2998,-5.2861,-5.2861,-5.2861,-5.2861,-5.2861,-5.2861,-5.2861,-5.2861,-5.2861,-5.2861,-5.2861,-5.313,-5.3457,-5.3658,-5.3181,-5.3758,-5.431,-5.4511,-5.4863,-5.5541,-5.6619,-5.7283,-5.7413,-5.7323,-5.755,-5.7372,-5.674,-5.5433,-5.358,-5.0984,-4.986,-4.8055,-4.6418,-4.6113,-4.6484,-4.6777,-4.7042,-4.7366,-4.7734,-4.8118,-4.8254,-4.8073,-4.8203,-4.834,-4.8476,-4.8594,-4.8808,-4.8828,-4.8848,-4.8848,-4.8881,-4.8808,-4.8697,-4.8488,-4.8287,-4.8073,-4.7969,-4.7851,-4.7851,-4.7891,-4.8144,-4.8203,-4.8059,-4.8064,-4.8263,-4.8181,-4.8007,-4.7846,-4.7503,-4.7209,-4.6914,-4.6738,-4.6543,-4.6601,-4.668,-4.6875,-4.712,-4.7159,-4.7316,-4.7539,-4.6786,-4.4688,-4.327,-4.2197,-3.9465,-3.6173,-3.4399,-3.3166,-3.245,-3.1864,-3.161,-3.1396,-3.1583,-3.1784,-3.1955,-3.1992,-3.2155,-3.2425,-6.3137,-6.3137,-6.3137,-6.3137,-6.3137,-6.3137,-6.3137,-6.3079,-6.3107,-6.3019,-6.2786,-6.1408,-5.9501,-5.748,-5.6187,-5.4809,-5.2929,-5.2861,-5.2861,-5.2861,-5.2861,-5.2861,-5.2861,-5.2861,-5.2861,-5.2929,-5.3005,-5.303,-5.3181,-5.3959,-5.4009,-5.3808,-5.4235,-5.4913,-5.5516,-5.6043,-5.6595,-5.7423,-5.7994,-5.8044,-5.7876,-5.777,-5.7152,-5.5626,-5.491,-5.3452,-4.9383,-4.9027,-4.8401,-4.6337,-4.6348,-4.668,-4.7109,-4.7383,-4.7734,-4.8183,-4.8535,-4.8691,-4.8633,-4.8633,-4.875,-4.8808,-4.8828,-4.8848,-4.8848,-4.8848,-4.8848,-4.8848,-4.8848,-4.8848,-4.8711,-4.8535,-4.8437,-4.8398,-4.832,-4.832,-4.8379,-4.8535,-4.8555,-4.8359,-4.8372,-4.8535,-4.8626,-4.8463,-4.8265,-4.7969,-4.7562,-4.7246,-4.7207,-4.707,-4.7148,-4.7246,-4.7422,-4.7519,-4.759,-4.7625,-4.7664,-4.6255,-4.4231,-4.3296,-4.2509,-3.9222,-3.4864,-3.4506,-3.338,-3.2681,-3.2051,-3.1891,-3.1784,-3.1757,-3.1904,-3.2128,-3.2421,-3.2568,-3.2879,-6.2754,-6.3079,-6.3137,-6.3137,-6.3137,-6.3137,-6.3137,-6.3019,-6.266,-6.248,-6.2366,-6.0675,-5.9083,-5.7484,-5.5954,-5.4474,-5.3042,-5.2861,-5.2861,-5.2861,-5.2861,-5.2861,-5.2861,-5.2861,-5.2861,-5.298,-5.3181,-5.3387,-5.3493,-5.4285,-5.4662,-5.4737,-5.5013,-5.5491,-5.6244,-5.7148,-5.7775,-5.8001,-5.8479,-5.8782,-5.8504,-5.8598,-5.7819,-5.585,-5.4015,-5.2466,-4.9618,-4.8102,-4.7347,-4.6865,-4.668,-4.707,-4.748,-4.7773,-4.8177,-4.8476,-4.8769,-4.8828,-4.8848,-4.8848,-4.8848,-4.8848,-4.8848,-4.8848,-4.8848,-4.8848,-4.8848,-4.8848,-4.8848,-4.8848,-4.8808,-4.8711,-4.8691,-4.875,-4.8769,-4.873,-4.875,-4.8828,-4.8828,-4.8574,-4.8613,-4.8744,-4.8764,-4.8803,-4.8638,-4.8429,-4.7956,-4.7598,-4.7598,-4.7558,-4.7598,-4.7715,-4.7871,-4.7961,-4.8032,-4.7871,-4.778,-4.5872,-4.3826,-4.2286,-4.0862,-3.6868,-3.3395,-3.3409,-3.3505,-3.2732,-3.2278,-3.2225,-3.2214,-3.2053,-3.2144,-3.2465,-3.2746,-3.3026,-3.32,-6.207,-6.248,-6.248,-6.272,-6.3049,-6.3137,-6.2959,-6.275,-6.254,-6.1868,-6.1229,-5.9671,-5.8261,-5.684,-5.5327,-5.4097,-5.311,-5.2861,-5.2861,-5.2861,-5.2861,-5.2861,-5.2861,-5.2861,-5.2861,-5.303,-5.3231,-5.3437,-5.3643,-5.4486,-5.5064,-5.5666,-5.6319,-5.6671,-5.7072,-5.8052,-5.873,-5.8704,-5.8956,-5.9483,-5.9232,-5.8467,-5.746,-5.5206,-5.3131,-5.0843,-4.8929,-4.7467,-4.7091,-4.7081,-4.7187,-4.7519,-4.7922,-4.8267,-4.8424,-4.8685,-4.8848,-4.8848,-4.8848,-4.8848,-4.8848,-4.8848,-4.8848,-4.8848,-4.8848,-4.8848,-4.8848,-4.8848,-4.8848,-4.8848,-4.8848,-4.8808,-4.8789,-4.8828,-4.8828,-4.8808,-4.8808,-4.8848,-4.8848,-4.8789,-4.8828,-4.892,-4.8901,-4.8881,-4.8789,-4.8527,-4.8209,-4.8008,-4.8144,-4.8066,-4.7949,-4.8086,-4.8281,-4.8405,-4.8437,-4.8346,-4.7861,-4.5358,-4.3175,-4.041,-3.8013,-3.4575,-3.2844,-3.3273,-3.3206,-3.2696,-3.2572,-3.2639,-3.2495,-3.2174,-3.2425,-3.2754,-3.2986,-3.3227,-3.3293,-6.1164,-6.1134,-6.1224,-6.1912,-6.2899,-6.3049,-6.266,-6.2211,-6.257,-6.1701,-5.9823,-5.8559,-5.6895,-5.5075,-5.3968,-5.3222,-5.3042,-5.2861,-5.2861,-5.2861,-5.2861,-5.2861,-5.2861,-5.2861,-5.2861,-5.2929,-5.3256,-5.3607,-5.3833,-5.5013,-5.5691,-5.6369,-5.7123,-5.7775,-5.7951,-5.893,-5.9433,-5.9483,-5.9583,-5.9734,-5.9665,-5.8225,-5.6489,-5.404,-5.2213,-5.023,-4.7821,-4.7317,-4.7129,-4.748,-4.7558,-4.7832,-4.8203,-4.8294,-4.849,-4.8881,-4.8848,-4.8848,-4.8848,-4.8848,-4.8848,-4.8848,-4.8848,-4.8848,-4.8848,-4.8848,-4.8848,-4.8848,-4.8848,-4.8848,-4.8848,-4.8848,-4.8848,-4.8848,-4.8848,-4.8848,-4.8848,-4.8848,-4.8848,-4.8848,-4.8848,-4.8848,-4.8848,-4.8848,-4.8848,-4.8711,-4.8418,-4.8398,-4.8535,-4.8496,-4.834,-4.8379,-4.8574,-4.8646,-4.8699,-4.8764,-4.7848,-4.5273,-4.2754,-4.0142,-3.7499,-3.4689,-3.3619,-3.3439,-3.3146,-3.2906,-3.3,-3.3133,-3.2884,-3.2629,-3.2807,-3.3054,-3.326,-3.3387,-3.34,-6.0701,-6.1104,-6.1104,-6.1373,-6.1762,-6.1762,-6.1642,-6.1493,-6.1559,-6.0935,-5.9439,-5.8026,-5.6577,-5.505,-5.3589,-5.2861,-5.2861,-5.2861,-5.2861,-5.2861,-5.2861,-5.2861,-5.2861,-5.2861,-5.2886,-5.3155,-5.3482,-5.3959,-5.4336,-5.5616,-5.6369,-5.6997,-5.7876,-5.8554,-5.9031,-5.9709,-6.0161,-6.049,-6.0367,-6.0216,-6.058,-5.9047,-5.6725,-5.3873,-5.2521,-5.0183,-4.7278,-4.7226,-4.7558,-4.793,-4.7988,-4.8183,-4.8516,-4.8646,-4.8744,-4.8848,-4.8848,-4.8848,-4.8848,-4.8848,-4.8848,-4.8848,-4.8848,-4.8848,-4.8848,-4.8848,-4.8848,-4.8848,-4.8848,-4.8848,-4.8848,-4.8848,-4.8848,-4.8848,-4.8848,-4.8848,-4.8848,-4.8848,-4.8848,-4.8848,-4.8848,-4.8848,-4.8848,-4.8848,-4.8848,-4.8848,-4.8613,-4.8594,-4.8711,-4.875,-4.8672,-4.8691,-4.8769,-4.8808,-4.8848,-4.8273,-4.7469,-4.533,-4.2854,-4.0303,-3.7546,-3.4886,-3.3882,-3.3347,-3.3293,-3.3227,-3.3187,-3.3146,-3.3192,-3.308,-3.318,-3.3187,-3.3287,-3.34,-3.34,-6.0011,-6.0416,-6.0416,-6.0416,-6.0505,-6.0894,-6.1224,-6.1373,-6.1197,-6.064,-5.964,-5.811,-5.6577,-5.5235,-5.381,-5.2861,-5.2861,-5.2861,-5.2861,-5.2861,-5.2861,-5.2861,-5.2861,-5.2886,-5.308,-5.3331,-5.3858,-5.4411,-5.5189,-5.6394,-5.7298,-5.8001,-5.8579,-5.9357,-5.9885,-6.0362,-6.0412,-6.0666,-6.0569,-6.0745,-6.0353,-5.879,-5.6475,-5.4283,-5.2303,-4.9949,-4.8186,-4.7676,-4.7988,-4.8281,-4.8476,-4.8555,-4.8769,-4.8848,-4.8848,-4.8848,-4.8848,-4.8848,-4.8848,-4.8848,-4.8848,-4.8848,-4.8848,-4.8848,-4.8848,-4.8848,-4.8848,-4.8848,-4.8848,-4.8848,-4.8848,-4.8848,-4.8848,-4.8848,-4.8848,-4.8848,-4.8848,-4.8848,-4.8848,-4.8848,-4.8848,-4.8848,-4.8848,-4.8848,-4.8848,-4.8848,-4.8828,-4.8848,-4.8848,-4.8663,-4.8181,-4.7883,-4.7529,-4.71,-4.7045,-4.7102,-4.615,-4.5151,-4.2708,-3.9964,-3.7697,-3.5126,-3.4245,-3.3414,-3.336,-3.328,-3.3173,-3.312,-3.316,-3.3227,-3.3347,-3.33,-3.3414,-3.3414,-3.3414,-5.9099,-5.9099,-5.9099,-5.9159,-5.9368,-6.0446,-6.1313,-6.1942,-6.1403,-6.0935,-6.0362,-5.8619,-5.6976,-5.5287,-5.3674,-5.2929,-5.2861,-5.2861,-5.2861,-5.2861,-5.2861,-5.2861,-5.2886,-5.3005,-5.3256,-5.3557,-5.4084,-5.4938,-5.6093,-5.7047,-5.8077,-5.8956,-5.9232,-5.996,-6.0462,-6.0688,-6.0663,-6.0964,-6.1173,-6.1374,-6.1011,-5.7686,-5.6012,-5.4035,-5.1607,-4.9397,-4.8111,-4.8183,-4.8437,-4.8652,-4.8808,-4.8828,-4.8848,-4.8848,-4.8848,-4.8848,-4.8848,-4.8848,-4.8848,-4.8848,-4.8848,-4.8848,-4.8848,-4.8848,-4.8848,-4.8848,-4.8848,-4.8848,-4.8848,-4.8848,-4.8848,-4.8848,-4.8848,-4.8848,-4.8848,-4.8848,-4.8848,-4.8848,-4.8848,-4.8848,-4.8848,-4.8848,-4.8848,-4.8848,-4.8848,-4.8848,-4.8848,-4.8848,-4.8663,-4.7883,-4.7214,-4.5849,-4.5476,-4.4955,-4.4898,-4.4934,-4.5463,-4.4671,-4.1945,-3.9323,-3.72,-3.5536,-3.4186,-3.3414,-3.3414,-3.336,-3.3267,-3.328,-3.3347,-3.3414,-3.3414,-3.3414,-3.3414,-3.3414,-3.3414,-5.8411,-5.844,-5.8871,-5.9099,-5.9159,-5.9518,-6.0326,-6.1313,-6.1642,-6.1378,-6.039,-5.8743,-5.714,-5.5353,-5.3674,-5.3042,-5.2861,-5.2861,-5.2861,-5.2861,-5.2861,-5.2861,-5.3055,-5.3281,-5.3532,-5.3959,-5.4511,-5.529,-5.6369,-5.7424,-5.8504,-5.9332,-5.9483,-6.0186,-6.0738,-6.1014,-6.1391,-6.1692,-6.1802,-6.1743,-6.1063,-5.8173,-5.641,-5.4127,-5.1766,-4.9622,-4.8496,-4.8516,-4.873,-4.8808,-4.8848,-4.8848,-4.8848,-4.8848,-4.8848,-4.8848,-4.8848,-4.8848,-4.8848,-4.8848,-4.8848,-4.8848,-4.8848,-4.8848,-4.8848,-4.8848,-4.8848,-4.8848,-4.8848,-4.8848,-4.8848,-4.8848,-4.8848,-4.8848,-4.8848,-4.8848,-4.8848,-4.8848,-4.8848,-4.8848,-4.8848,-4.8848,-4.8848,-4.8848,-4.8848,-4.8848,-4.8848,-4.8755,-4.8273,-4.7307,-4.6036,-4.4589,-4.3054,-4.2379,-4.2313,-4.2296,-4.359,-4.3969,-4.1174,-3.926,-3.8481,-3.6706,-3.4471,-3.3414,-3.3414,-3.3414,-3.3387,-3.3414,-3.3414,-3.3414,-3.3414,-3.3414,-3.3414,-3.3414,-3.3414,-5.7832,-5.8124,-5.8543,-5.886,-5.9129,-5.9398,-5.9997,-6.0775,-6.1433,-6.1549,-6.1261,-5.903,-5.739,-5.6283,-5.4122,-5.2861,-5.2861,-5.2861,-5.2861,-5.2861,-5.2861,-5.3105,-5.3306,-5.3582,-5.3984,-5.4461,-5.5089,-5.5867,-5.6922,-5.8127,-5.9257,-5.9433,-5.9508,-6.0186,-6.0839,-6.1215,-6.1793,-6.2275,-6.2395,-6.1864,-6.0418,-5.8477,-5.6287,-5.404,-5.1747,-4.9924,-4.8712,-4.8862,-4.8828,-4.8848,-4.8848,-4.8848,-4.8848,-4.8848,-4.8848,-4.8848,-4.8848,-4.8848,-4.8848,-4.8848,-4.8848,-4.8848,-4.8848,-4.8848,-4.8848,-4.8848,-4.8848,-4.8848,-4.8848,-4.8848,-4.8848,-4.8848,-4.8848,-4.8848,-4.8848,-4.8848,-4.8848,-4.8848,-4.8848,-4.8848,-4.8848,-4.8848,-4.8848,-4.8848,-4.8848,-4.8848,-4.8459,-4.7976,-4.7214,-4.6149,-4.4701,-4.3054,-4.1172,-3.9609,-3.9692,-3.9964,-4.1257,-4.171,-3.9975,-3.8554,-3.8819,-3.7183,-3.4186,-3.3414,-3.3414,-3.3414,-3.3414,-3.3414,-3.3414,-3.3414,-3.3414,-3.3427,-3.3414,-3.3414,-3.3414,-5.7376,-5.791,-5.8095,-5.8471,-5.9069,-5.9638,-5.9997,-6.0146,-6.0775,-6.1646,-6.1992,-5.952,-5.7998,-5.6931,-5.4712,-5.3236,-5.298,-5.2861,-5.2861,-5.2861,-5.2861,-5.313,-5.3507,-5.3808,-5.4361,-5.5039,-5.5691,-5.6294,-5.7725,-5.878,-5.9382,-5.9508,-5.9508,-6.0085,-6.1014,-6.1165,-6.1718,-6.2546,-6.2007,-6.1129,-5.9034,-5.6931,-5.4741,-5.2613,-5.058,-4.8901,-4.892,-4.8848,-4.8848,-4.8848,-4.8848,-4.8848,-4.8848,-4.8848,-4.8848,-4.8848,-4.8848,-4.8848,-4.8848,-4.8848,-4.8848,-4.8848,-4.8848,-4.8848,-4.8848,-4.8848,-4.8848,-4.8848,-4.8848,-4.8848,-4.8848,-4.8848,-4.8848,-4.8848,-4.8848,-4.8848,-4.8848,-4.8848,-4.8848,-4.8848,-4.8848,-4.8848,-4.8848,-4.8848,-4.8848,-4.8848,-4.7976,-4.7102,-4.5755,-4.4589,-4.2959,-4.1235,-3.8944,-3.7174,-3.7279,-3.7712,-3.8915,-3.8889,-3.8144,-3.7857,-3.8005,-3.6129,-3.36,-3.3414,-3.3414,-3.3414,-3.3414,-3.3414,-3.3414,-3.3414,-3.3414,-3.344,-3.344,-3.3494,-3.344,-5.6515,-5.6762,-5.7715,-5.8231,-5.8441,-5.9069,-5.9608,-6.0086,-6.0236,-6.0805,-6.1151,-5.9888,-5.8345,-5.6957,-5.5546,-5.4123,-5.3048,-5.2861,-5.2861,-5.2861,-5.2861,-5.3281,-5.3733,-5.4135,-5.4737,-5.5315,-5.5917,-5.6696,-5.7851,-5.8855,-5.9508,-5.9508,-5.9558,-6.0136,-6.1115,-6.1215,-6.1687,-6.2206,-6.1137,-5.9985,-5.8296,-5.6618,-5.4722,-5.2395,-5.0276,-4.9032,-4.8848,-4.8848,-4.8848,-4.8848,-4.8848,-4.8848,-4.8848,-4.8848,-4.8848,-4.8848,-4.8848,-4.8848,-4.8848,-4.8867,-4.8887,-4.8887,-4.8887,-4.8867,-4.8848,-4.8848,-4.8867,-4.8867,-4.8848,-4.8848,-4.8848,-4.8848,-4.8848,-4.8848,-4.8848,-4.8848,-4.8848,-4.8848,-4.8848,-4.8848,-4.8848,-4.8848,-4.8848,-4.8848,-4.8848,-4.7976,-4.6523,-4.5173,-4.3547,-4.2099,-4.0368,-3.8539,-3.6129,-3.4754,-3.5293,-3.6406,-3.7998,-3.8364,-3.7976,-3.7621,-3.7228,-3.5253,-3.3414,-3.3414,-3.3414,-3.3467,-3.348,-3.3414,-3.3414,-3.3467,-3.3447,-3.3527,-3.3694,-3.3748,-3.3601,-5.5932,-5.6334,-5.7228,-5.7663,-5.7782,-5.8381,-5.889,-5.9219,-5.9518,-5.9847,-6.0156,-5.9583,-5.8575,-5.7016,-5.5919,-5.4508,-5.3099,-5.2929,-5.2861,-5.2861,-5.2961,-5.3482,-5.3934,-5.4482,-5.5089,-5.5691,-5.6595,-5.7424,-5.8027,-5.888,-5.9508,-5.9533,-5.9709,-6.0261,-6.114,-6.1416,-6.1409,-6.1169,-5.981,-5.839,-5.6982,-5.4924,-5.3132,-5.0976,-4.9748,-4.8848,-4.8848,-4.8848,-4.8848,-4.8848,-4.8848,-4.8848,-4.8848,-4.8848,-4.8848,-4.8848,-4.8848,-4.8848,-4.8848,-4.8887,-4.8965,-4.9043,-4.916,-4.9219,-4.9219,-4.9199,-4.9023,-4.9004,-4.8867,-4.8848,-4.8848,-4.8848,-4.8848,-4.8848,-4.8848,-4.8848,-4.8848,-4.8848,-4.8848,-4.8848,-4.8848,-4.8848,-4.8848,-4.8848,-4.8551,-4.6728,-4.5173,-4.2898,-4.1252,-3.9981,-3.8148,-3.6918,-3.5196,-3.4883,-3.6117,-3.707,-3.7998,-3.8052,-3.7953,-3.6659,-3.5778,-3.4527,-3.3414,-3.3494,-3.3574,-3.3654,-3.3641,-3.3587,-3.3601,-3.3668,-3.366,-3.3652,-3.3833,-3.4015,-3.3975,-5.532,-5.5992,-5.6689,-5.6974,-5.7124,-5.7812,-5.8171,-5.8291,-5.883,-5.9129,-5.9194,-5.9347,-5.8348,-5.6996,-5.5881,-5.4347,-5.3312,-5.2955,-5.2861,-5.2861,-5.2861,-5.3557,-5.4135,-5.4612,-5.5361,-5.6267,-5.7272,-5.7725,-5.8152,-5.8956,-5.9533,-5.9608,-6.0035,-6.0588,-6.1165,-6.1451,-6.1407,-6.0012,-5.8436,-5.6285,-5.4256,-5.2309,-5.1127,-4.9914,-4.8848,-4.8848,-4.8848,-4.8848,-4.8848,-4.8848,-4.8848,-4.8848,-4.8848,-4.8848,-4.8848,-4.8848,-4.8848,-4.8848,-4.8887,-4.8984,-4.918,-4.9375,-4.9512,-4.959,-4.957,-4.9433,-4.9258,-4.9043,-4.8906,-4.8867,-4.8867,-4.8848,-4.8848,-4.8906,-4.8906,-4.8887,-4.8887,-4.8926,-4.8965,-4.8945,-4.8979,-4.8979,-4.8984,-4.8965,-4.7534,-4.5655,-4.3331,-4.1012,-3.8991,-3.7983,-3.6608,-3.6484,-3.616,-3.6315,-3.7583,-3.9045,-4.0197,-3.8844,-3.8646,-3.642,-3.4661,-3.4125,-3.3734,-3.3681,-3.3761,-3.3895,-3.3921,-3.3895,-3.3895,-3.3908,-3.394,-3.3957,-3.4189,-3.4282,-3.4402,-5.395,-5.466,-5.5888,-5.6346,-5.6526,-5.7573,-5.8141,-5.8231,-5.88,-5.9099,-5.9045,-5.8634,-5.7742,-5.6211,-5.5668,-5.4526,-5.3074,-5.2861,-5.2861,-5.2861,-5.2861,-5.3632,-5.4361,-5.4909,-5.5631,-5.6589,-5.7548,-5.8077,-5.8404,-5.9133,-5.9508,-5.9533,-6.0085,-6.0638,-6.119,-6.1235,-6.0809,-5.9069,-5.6931,-5.4872,-5.328,-5.1829,-5.0943,-4.9842,-4.8848,-4.8848,-4.8848,-4.8848,-4.8848,-4.8848,-4.8848,-4.8848,-4.8959,-4.8959,-4.8959,-4.8959,-4.8959,-4.9018,-4.9077,-4.918,-4.9433,-4.9687,-4.9824,-4.9922,-4.9844,-4.9687,-4.9414,-4.9077,-4.8979,-4.8979,-4.8887,-4.8867,-4.8867,-4.8984,-4.9043,-4.9023,-4.9023,-4.9199,-4.9336,-4.9253,-4.9281,-4.9272,-4.934,-4.848,-4.6694,-4.4445,-4.1358,-3.9101,-3.767,-3.6446,-3.5408,-3.6487,-3.7383,-3.8811,-4.0544,-4.2402,-4.3207,-4.1456,-3.9274,-3.7197,-3.5512,-3.4455,-3.4148,-3.3988,-3.4068,-3.4215,-3.4215,-3.4229,-3.4291,-3.4215,-3.4273,-3.4276,-3.4482,-3.4563,-3.4683]}]]